ftp/pub/palmer/observations_modified/2019/May/original_files/AR190514_BASE.txt

Download

Sample DateTime	Unit Id	WS Avg 2min	WD Avg 2min	WGS 10min	WGD 10min	Air Temp	Rel Humidity	Dew Point	Pyranometer	Quantum	Air Pressure	Snow Level	Rainfall	PW Current	Visibility	CBase 1	CBase 2	CBase 3	Vert Vis
2019/05/14 00:00:00	BASE	3.67	326	4.01	326	-0.8	85	-3.1	0	0	963.3	NA	0.0000		9999	4330	0	0	0
2019/05/14 00:01:00	BASE	3.43	328	4.01	326	-0.8	84	-3.2	0	0	963.3	NA	0.0000		9999	4360	0	0	0
2019/05/14 00:02:00	BASE	3.51	332	4.01	336	-0.8	84	-3.2	0	0	963.3	NA	0.0000		9999	4400	0	0	0
2019/05/14 00:03:00	BASE	3.58	337	4.01	336	-0.8	83	-3.3	0	0	963.2	NA	0.0000		9999	4690	0	0	0
2019/05/14 00:04:00	BASE	3.30	337	4.01	336	-0.8	83	-3.3	0	0	963.2	NA	0.0000		9999	5120	0	0	0
2019/05/14 00:05:00	BASE	3.16	337	4.01	336	-0.8	83	-3.3	0	0	963.2	NA	0.0000		9999	5350	0	0	0
2019/05/14 00:06:00	BASE	3.11	338	4.01	336	-0.8	84	-3.2	0	0	963.2	NA	0.0000		9999	5480	0	0	0
2019/05/14 00:07:00	BASE	2.98	339	4.01	336	-0.8	84	-3.2	0	0	963.2	NA	0.0000		9999	5510	0	0	0
2019/05/14 00:08:00	BASE	2.74	340	4.01	336	-0.8	84	-3.2	0	0	963.3	NA	0.0000		9999	5610	0	0	0
2019/05/14 00:09:00	BASE	2.55	343	4.01	336	-0.8	84	-3.2	0	0	963.3	NA	0.0000		9999	5480	0	0	0
2019/05/14 00:10:00	BASE	2.61	346	4.01	336	-0.8	84	-3.2	0	0	963.3	NA	0.0000		9999	5320	0	0	0
2019/05/14 00:11:00	BASE	2.70	343	4.01	336	-0.8	84	-3.2	0	0	963.2	NA	0.0000		9999	5090	0	0	0
2019/05/14 00:12:00	BASE	2.63	347	3.70	338	-0.8	84	-3.2	0	0	963.2	NA	0.0000		9999	4890	0	0	0
2019/05/14 00:13:00	BASE	2.79	352	3.45	337	-0.8	84	-3.2	0	0	963.2	NA	0.0000		9999	4690	0	0	0
2019/05/14 00:14:00	BASE	3.08	348	3.45	337	-0.8	84	-3.2	0	0	963.2	NA	0.0000		9999	4590	0	0	0
2019/05/14 00:15:00	BASE	3.21	347	3.45	349	-0.8	84	-3.2	0	0	963.2	NA	0.0000		9999	4460	0	0	0
2019/05/14 00:16:00	BASE	3.32	345	4.22	348	-0.8	84	-3.2	0	0	963.2	NA	0.0000		9999	4460	0	0	0
2019/05/14 00:17:00	BASE	4.01	347	4.84	355	-0.8	84	-3.1	0	0	963.2	NA	0.0000		9999	4400	0	0	0
2019/05/14 00:18:00	BASE	4.64	356	4.89	279	-0.8	85	-3.1	0	0	963.2	NA	0.0000		9999	4360	0	0	0
2019/05/14 00:19:00	BASE	4.70	360	4.99	360	-0.8	85	-3.0	0	0	963.2	NA	0.0000		9999	4330	0	0	0
2019/05/14 00:20:00	BASE	4.77	1	4.99	360	-0.9	86	-3.0	0	0	963.2	NA	0.0000		9999	4330	0	0	0
2019/05/14 00:21:00	BASE	4.68	356	4.99	354	-0.9	86	-3.0	0	0	963.2	NA	0.0000		9999	4460	0	0	0
2019/05/14 00:22:00	BASE	4.53	355	4.99	354	-0.9	86	-2.9	0	0	963.2	NA	0.0000		9999	4430	0	0	0
2019/05/14 00:23:00	BASE	4.59	354	5.09	350	-0.9	86	-2.9	0	0	963.2	NA	0.0000		9999	4400	0	0	0
2019/05/14 00:24:00	BASE	4.41	343	5.09	350	-0.9	86	-2.9	0	0	963.2	NA	0.0000		9999	4300	0	0	0
2019/05/14 00:25:00	BASE	4.00	333	5.09	350	-0.8	86	-2.9	0	0	963.2	NA	0.0000		9999	4430	0	0	0
2019/05/14 00:26:00	BASE	4.24	334	5.09	350	-0.8	86	-2.8	0	0	963.2	NA	0.0000		9999	4530	0	0	0
2019/05/14 00:27:00	BASE	5.12	341	6.02	337	-0.8	87	-2.8	0	0	963.1	NA	0.0000		9999	4560	0	0	0
2019/05/14 00:28:00	BASE	5.44	341	6.02	337	-0.8	87	-2.7	0	0	963.1	NA	0.0000		9999	4460	0	0	0
2019/05/14 00:29:00	BASE	5.08	338	6.02	337	-0.8	87	-2.7	0	0	963.1	NA	0.0000		9999	4300	0	0	0
2019/05/14 00:30:00	BASE	5.48	339	6.58	340	-0.8	87	-2.7	0	0	963.1	NA	0.0000		9999	4300	0	0	0
2019/05/14 00:31:00	BASE	6.08	339	6.58	340	-0.8	87	-2.7	0	0	963.1	NA	0.0000		9999	4460	0	0	0
2019/05/14 00:32:00	BASE	6.08	338	6.69	338	-0.8	87	-2.7	0	0	963.1	NA	0.0000		9999	4430	0	0	0
2019/05/14 00:33:00	BASE	5.67	339	6.69	338	-0.8	88	-2.6	0	0	963.1	NA	0.0000		9999	4560	0	0	0
2019/05/14 00:34:00	BASE	5.88	342	6.74	343	-0.8	88	-2.6	0	0	963.1	NA	0.0000		9999	4790	0	0	0
2019/05/14 00:35:00	BASE	6.35	343	6.74	343	-0.8	88	-2.6	0	0	963.1	NA	0.0000		9999	4990	0	0	0
2019/05/14 00:36:00	BASE	6.07	342	6.74	343	-0.9	88	-2.6	0	0	963.1	NA	0.0000		9999	5180	0	0	0
2019/05/14 00:37:00	BASE	5.74	341	6.74	343	-0.8	88	-2.6	0	0	963.1	NA	0.0000		9999	4890	0	0	0
2019/05/14 00:38:00	BASE	5.88	344	6.74	343	-0.9	88	-2.6	0	0	963.1	NA	0.0000		9999	5090	0	0	0
2019/05/14 00:39:00	BASE	5.73	344	6.74	343	-0.9	88	-2.6	0	0	963.1	NA	0.0000		9999	5180	0	0	0
2019/05/14 00:40:00	BASE	5.26	344	6.74	343	-0.9	88	-2.6	0	0	963.1	NA	0.0000		9999	5280	0	0	0
2019/05/14 00:41:00	BASE	5.36	348	6.74	343	-0.9	88	-2.6	0	0	963.1	NA	0.0000		9999	5220	0	0	0
2019/05/14 00:42:00	BASE	5.57	349	6.74	343	-0.9	88	-2.6	0	0	963.2	NA	0.0000		9999	5050	0	0	0
2019/05/14 00:43:00	BASE	5.49	351	6.74	343	-0.9	89	-2.5	0	0	963.2	NA	0.0000		9999	5090	0	0	0
2019/05/14 00:44:00	BASE	5.58	352	6.58	345	-0.9	89	-2.5	0	0	963.1	NA	0.0000		9999	5180	0	0	0
2019/05/14 00:45:00	BASE	5.55	353	6.58	345	-0.9	89	-2.5	0	0	963.1	NA	0.0000		9999	5220	0	0	0
2019/05/14 00:46:00	BASE	4.87	354	6.58	345	-0.9	89	-2.5	0	0	963.1	NA	0.0000		9999	5280	0	0	0
2019/05/14 00:47:00	BASE	4.16	354	6.38	346	-0.9	89	-2.5	0	0	963.2	NA	0.0000		9999	5250	0	0	0
2019/05/14 00:48:00	BASE	3.67	356	6.12	346	-0.9	89	-2.5	0	0	963.2	NA	0.0000		9999	5180	0	0	0
2019/05/14 00:49:00	BASE	3.25	353	6.12	346	-0.9	89	-2.4	0	0	963.2	NA	0.0000		9999	5120	0	0	0
2019/05/14 00:50:00	BASE	2.86	350	6.12	346	-0.8	89	-2.4	0	0	963.2	NA	0.0000		9999	5050	0	0	0
2019/05/14 00:51:00	BASE	2.83	348	6.12	346	-0.8	89	-2.4	0	0	963.2	NA	0.0000		9999	5020	0	0	0
2019/05/14 00:52:00	BASE	3.25	351	6.12	346	-0.8	89	-2.4	0	0	963.2	NA	0.0000		9999	4950	0	0	0
2019/05/14 00:53:00	BASE	4.02	3	6.12	346	-0.8	89	-2.4	0	0	963.2	NA	0.0000		9999	4820	0	0	0
2019/05/14 00:54:00	BASE	4.91	3	5.81	326	-0.8	89	-2.4	0	0	963.2	NA	0.0000		9999	4720	0	0	0
2019/05/14 00:55:00	BASE	5.27	1	5.81	326	-0.8	89	-2.4	0	0	963.2	NA	0.0000		9999	4590	0	0	0
2019/05/14 00:56:00	BASE	5.56	2	6.17	6	-0.8	89	-2.3	0	0	963.2	NA	0.0000		9999	4530	0	0	0
2019/05/14 00:57:00	BASE	5.87	0	6.33	2	-0.7	89	-2.3	0	0	963.2	NA	0.0000		9999	4490	0	0	0
2019/05/14 00:58:00	BASE	5.93	0	6.33	2	-0.7	89	-2.3	0	0	963.2	NA	0.0000		9999	4460	0	0	0
2019/05/14 00:59:00	BASE	5.96	5	6.33	7	-0.7	89	-2.3	0	0	963.2	NA	0.0000		9999	4360	0	0	0
2019/05/14 01:00:00	BASE	6.00	7	6.38	9	-0.7	88	-2.4	0	0	963.2	NA	0.0000		9999	4270	0	0	0
2019/05/14 01:01:00	BASE	5.87	7	6.38	9	-0.7	88	-2.4	0	0	963.2	NA	0.0000		9999	4170	0	0	0
2019/05/14 01:02:00	BASE	5.72	10	6.38	9	-0.7	88	-2.4	0	0	963.2	NA	0.0000		9999	4070	0	0	0
2019/05/14 01:03:00	BASE	5.79	12	6.38	9	-0.7	88	-2.4	0	0	963.2	NA	0.0000		9999	4000	0	0	0
2019/05/14 01:04:00	BASE	5.69	12	6.38	9	-0.7	88	-2.4	0	0	963.2	NA	0.0000		9999	3900	0	0	0
2019/05/14 01:05:00	BASE	5.38	13	6.38	9	-0.7	88	-2.4	0	0	963.2	NA	0.0000		9999	3940	0	0	0
2019/05/14 01:06:00	BASE	5.13	16	6.38	9	-0.7	88	-2.4	0	0	963.2	NA	0.0000		9999	4000	0	0	0
2019/05/14 01:07:00	BASE	5.16	17	6.38	9	-0.7	89	-2.4	0	0	963.2	NA	0.0000		9999	3900	0	0	0
2019/05/14 01:08:00	BASE	5.21	15	6.38	9	-0.7	89	-2.4	0	0	963.2	NA	0.0000		9999	3810	0	0	0
2019/05/14 01:09:00	BASE	5.11	16	6.38	9	-0.8	89	-2.3	0	0	963.2	NA	0.0000		9999	3740	0	0	0
2019/05/14 01:10:00	BASE	5.28	18	6.28	360	-0.8	89	-2.4	0	0	963.2	NA	0.0000		9999	3740	0	0	0
2019/05/14 01:11:00	BASE	5.26	19	6.12	12	-0.8	89	-2.4	0	0	963.2	NA	0.0000		9999	3840	0	0	0
2019/05/14 01:12:00	BASE	5.04	17	6.12	12	-0.8	89	-2.4	0	0	963.2	NA	0.0000		9999	3840	0	0	0
2019/05/14 01:13:00	BASE	5.38	19	6.17	17	-0.8	89	-2.3	0	0	963.2	NA	0.0000		9999	3870	0	0	0
2019/05/14 01:14:00	BASE	5.85	21	6.17	17	-0.8	90	-2.3	0	0	963.2	NA	0.0000		9999	3840	0	0	0
2019/05/14 01:15:00	BASE	5.81	21	6.17	17	-0.8	90	-2.3	0	0	963.2	NA	0.0000		9999	3810	0	0	0
2019/05/14 01:16:00	BASE	5.48	22	6.17	17	-0.9	90	-2.3	0	0	963.2	NA	0.0000		9999	3710	0	0	0
2019/05/14 01:17:00	BASE	5.56	25	6.17	17	-0.9	90	-2.3	0	0	963.2	NA	0.0000		9999	3410	0	0	0
2019/05/14 01:18:00	BASE	5.84	27	6.22	27	-0.9	90	-2.3	0	0	963.2	NA	0.0000		9999	3350	0	0	0
2019/05/14 01:19:00	BASE	5.69	28	6.22	27	-0.9	91	-2.3	0	0	963.2	NA	0.0000		9999	3280	0	0	0
2019/05/14 01:20:00	BASE	5.37	30	6.22	27	-0.9	91	-2.2	0	0	963.3	NA	0.0000		9999	3150	0	0	0
2019/05/14 01:21:00	BASE	5.37	30	6.22	27	-1.0	91	-2.2	0	0	963.3	NA	0.0000		9999	3220	0	0	0
2019/05/14 01:22:00	BASE	5.17	31	6.22	27	-1.0	92	-2.2	0	0	963.3	NA	0.0000		9999	0	0	0	3450
2019/05/14 01:23:09	BASE	4.98	34	6.22	27	-1.0	92	-2.1	0	0	963.3	NA	0.0000		9999	0	0	0	3410
2019/05/14 01:24:00	BASE	4.94	37	6.22	27	-1.0	92	-2.1	0	0	963.3	NA	0.0000		9999	0	0	0	3310
2019/05/14 01:25:00	BASE	4.63	39	6.22	27	-1.1	93	-2.1	0	0	963.3	NA	0.0000	UP	9999	0	0	0	3120
2019/05/14 01:26:00	BASE	4.63	40	6.22	27	-1.1	93	-2.0	0	0	963.3	NA	0.0000	UP	9999	0	0	0	3080
2019/05/14 01:27:00	BASE	4.81	42	6.22	27	-1.1	94	-2.0	0	0	963.3	NA	0.0000	UP	9999	0	0	0	3120
2019/05/14 01:28:00	BASE	4.68	46	5.76	28	-1.1	95	-1.9	0	0	963.3	NA	0.0000	UP	9999	0	0	0	3120
2019/05/14 01:29:00	BASE	4.65	48	5.76	28	-1.2	95	-1.8	0	0	963.3	NA	0.0000	UP	9999	0	0	0	3020
2019/05/14 01:30:00	BASE	4.44	48	5.76	28	-1.2	96	-1.7	0	0	963.3	NA	0.0000	UP	9999	0	0	0	2990
2019/05/14 01:31:00	BASE	4.09	47	5.35	30	-1.2	97	-1.7	0	0	963.3	NA	0.0000	UP	9999	0	0	0	2890
2019/05/14 01:32:00	BASE	4.26	41	5.25	34	-1.2	97	-1.6	0	0	963.3	NA	0.0000	UP	9999	0	0	0	2760
2019/05/14 01:33:00	BASE	4.44	34	5.20	38	-1.2	98	-1.5	0	0	963.3	NA	0.0000	UP	9999	0	0	0	2560
2019/05/14 01:34:00	BASE	4.51	27	5.04	41	-1.3	98	-1.5	0	0	963.3	NA	0.0000	UP	9999	0	0	0	2490
2019/05/14 01:35:00	BASE	4.57	22	5.04	41	-1.3	99	-1.5	0	0	963.3	NA	0.0000	UP	9999	0	0	0	2460
2019/05/14 01:36:00	BASE	4.43	17	4.99	47	-1.3	99	-1.5	0	0	963.3	NA	0.0000	UP	8000	0	0	0	2400
2019/05/14 01:37:00	BASE	4.26	15	4.89	51	-1.4	100	-1.4	0	0	963.3	NA	0.0000	UP BR	7000	0	0	0	2330
2019/05/14 01:38:00	BASE	4.05	16	4.89	51	-1.4	100	-1.4	0	0	963.3	NA	0.0000	UP BR	7000	0	0	0	2260
2019/05/14 01:39:00	BASE	3.89	17	4.78	36	-1.4	100	-1.4	0	0	963.3	NA	0.0000	UP BR	5000	0	0	0	2300
2019/05/14 01:40:00	BASE	3.87	16	4.78	36	-1.4	100	-1.4	0	0	963.3	NA	0.0000	UP BR	4700	0	0	0	2230
2019/05/14 01:41:00	BASE	3.64	17	4.78	36	-1.4	100	-1.4	0	0	963.3	NA	0.0000	UP BR	4200	0	0	0	2170
2019/05/14 01:42:00	BASE	3.29	17	4.73	23	-1.5	100	-1.5	0	0	963.3	NA	0.0000	UP BR	4100	0	0	0	2230
2019/05/14 01:43:00	BASE	2.96	16	4.73	23	-1.5	100	-1.5	0	0	963.3	NA	0.0000	UP BR	4300	0	0	0	2200
2019/05/14 01:44:00	BASE	2.58	18	4.68	19	-1.5	100	-1.5	0	0	963.3	NA	0.0000	UP BR	3500	0	0	0	2260
2019/05/14 01:45:00	BASE	2.37	19	4.58	14	-1.5	100	-1.5	0	0	963.3	NA	0.0000	UP BR	3400	0	0	0	2360
2019/05/14 01:46:00	BASE	2.29	20	4.48	16	-1.5	100	-1.5	0	0	963.3	NA	0.0000	UP BR	3600	0	0	0	2360
2019/05/14 01:47:00	BASE	2.36	20	4.22	15	-1.5	100	-1.5	0	0	963.3	NA	0.0000	UP BR	3900	0	0	0	2400
2019/05/14 01:48:00	BASE	2.46	17	4.22	15	-1.5	100	-1.5	0	0	963.3	NA	0.0000	UP BR	3500	0	0	0	2460
2019/05/14 01:49:00	BASE	2.34	18	4.22	15	-1.6	100	-1.6	0	0	963.3	NA	0.0000	UP BR	3000	0	0	0	2720
2019/05/14 01:50:00	BASE	2.19	21	3.76	19	-1.6	100	-1.6	0	0	963.3	NA	0.0000	UP BR	3200	0	0	0	2850
2019/05/14 01:51:00	BASE	2.17	20	3.45	18	-1.6	100	-1.6	0	0	963.3	NA	0.0000	UP BR	3200	0	0	0	2920
2019/05/14 01:52:00	BASE	2.01	16	2.98	17	-1.7	100	-1.7	0	0	963.3	NA	0.0000	UP BR	3100	0	0	0	2990
2019/05/14 01:53:00	BASE	1.74	13	2.88	8	-1.7	100	-1.7	0	0	963.3	NA	0.0000	UP BR	3200	0	0	0	3970
2019/05/14 01:54:00	BASE	1.66	8	2.88	8	-1.7	100	-1.7	0	0	963.3	NA	0.0000	UP BR	3600	0	0	0	4100
2019/05/14 01:55:00	BASE	1.65	3	2.88	8	-1.7	100	-1.7	0	0	963.3	NA	0.0000	UP BR	4400	0	0	0	4100
2019/05/14 01:56:00	BASE	1.54	1	2.88	8	-1.7	100	-1.7	0	0	963.3	NA	0.0000	UP BR	4400	0	0	0	5280
2019/05/14 01:57:00	BASE	1.37	357	2.62	17	-1.8	100	-1.8	0	0	963.2	NA	0.0000	UP BR	4200	300	0	0	0
2019/05/14 01:58:00	BASE	1.30	357	2.52	17	-1.8	100	-1.8	0	0	963.2	NA	0.0000	UP BR	4500	300	0	0	0
2019/05/14 01:59:00	BASE	1.18	357	2.52	17	-1.8	100	-1.8	0	0	963.2	NA	0.0000	UP BR	4900	300	0	0	0
2019/05/14 02:00:00	BASE	0.61	354	2.21	21	-1.8	100	-1.8	0	0	963.2	NA	0.0000	UP BR	5000	300	0	0	0
2019/05/14 02:01:00	BASE	0.09	352	2.06	19	-1.8	100	-1.8	0	0	963.2	NA	0.0000	UP BR	5000	230	0	0	0
2019/05/14 02:02:00	BASE	0.00	350	1.85	5	-1.8	100	-1.8	0	0	963.2	NA	0.0000	UP BR	5000	260	0	0	0
2019/05/14 02:03:00	BASE	0.00	348	1.85	5	-1.8	100	-1.8	0	0	963.2	NA	0.0000	UP BR	5000	230	0	0	0
2019/05/14 02:04:00	BASE	0.00	348	1.75	1	-1.8	100	-1.8	0	0	963.2	NA	0.0000	UP BR	5000	260	0	0	0
2019/05/14 02:05:00	BASE	0.00	348	1.54	360	-1.8	100	-1.8	0	0	963.2	NA	0.0000	UP BR	5000	300	0	0	0
2019/05/14 02:06:00	BASE	0.13	350	1.44	354	-1.8	100	-1.8	0	0	963.2	NA	0.0000	UP BR	5000	330	0	0	0
2019/05/14 02:07:00	BASE	0.67	352	1.39	1	-1.8	100	-1.8	0	0	963.2	NA	0.0000	UP BR	5000	360	0	0	0
2019/05/14 02:08:00	BASE	1.15	353	1.29	354	-1.8	100	-1.8	0	0	963.2	NA	0.0000	BR	5000	360	0	0	0
2019/05/14 02:09:00	BASE	1.17	353	1.29	354	-1.8	100	-1.8	0	0	963.2	NA	0.0000	BR	5000	1210	0	0	0
2019/05/14 02:10:00	BASE	0.93	356	1.29	354	-1.9	100	-1.9	0	0	963.2	NA	0.0000	BR	5000	1050	0	0	0
2019/05/14 02:11:00	BASE	0.36	360	1.29	354	-1.9	100	-1.9	0	0	963.2	NA	0.0000	BR	5000	1310	0	0	0
2019/05/14 02:12:00	BASE	0.00	0	1.29	354	-1.9	100	-1.9	0	0	963.2	NA	0.0000	BR	5000	1250	0	0	0
2019/05/14 02:13:00	BASE	0.00	0	1.29	354	-1.9	100	-1.9	0	0	963.2	NA	0.0000	BR	5000	1120	0	0	0
2019/05/14 02:14:00	BASE	0.00	0	1.29	354	-1.9	100	-1.9	0	0	963.2	NA	0.0000	BR	5000	1210	0	0	0
2019/05/14 02:15:00	BASE	0.17	0	1.29	354	-1.9	100	-1.9	0	0	963.2	NA	0.0000	BR	5000	1150	0	0	0
2019/05/14 02:16:00	BASE	0.26	0	1.29	354	-1.9	100	-1.9	0	0	963.2	NA	0.0000	BR	5000	1150	0	0	0
2019/05/14 02:17:00	BASE	0.39	1	1.29	354	-1.9	100	-1.9	0	0	963.1	NA	0.0000	BR	5000	1210	0	0	0
2019/05/14 02:18:00	BASE	0.74	2	1.23	353	-1.9	100	-1.9	0	0	963.1	NA	0.0000	BR	5000	1250	0	0	0
2019/05/14 02:19:00	BASE	0.65	2	1.18	360	-1.9	100	-1.9	0	0	963.1	NA	0.0000	BR	5000	1120	0	0	0
2019/05/14 02:20:00	BASE	0.35	3	1.08	7	-1.9	100	-1.9	0	0	963.1	NA	0.0000	BR	5000	1280	0	0	0
2019/05/14 02:21:00	BASE	0.63	5	1.08	5	-1.9	100	-1.9	0	0	963.1	NA	0.0000	BR	5000	1250	0	0	0
2019/05/14 02:22:00	BASE	1.06	6	1.18	5	-1.9	100	-1.9	0	0	963.1	NA	0.0000	BR	5000	1150	0	0	0
2019/05/14 02:23:00	BASE	1.14	4	1.18	3	-1.9	100	-1.9	0	0	963.1	NA	0.0000	BR	5000	1050	0	0	0
2019/05/14 02:24:00	BASE	1.14	3	1.18	360	-1.9	100	-1.9	0	0	963.1	NA	0.0000	BR	5000	820	0	0	0
2019/05/14 02:25:00	BASE	1.15	2	1.18	2	-1.9	100	-1.9	0	0	963.1	NA	0.0000	BR	5000	920	0	0	0
2019/05/14 02:26:00	BASE	1.20	1	1.39	1	-1.9	100	-1.9	0	0	963.1	NA	0.0000	BR	5000	1120	0	0	0
2019/05/14 02:27:00	BASE	1.22	1	1.39	1	-1.9	100	-1.9	0	0	963.1	NA	0.0000	BR	5000	1640	0	0	0
2019/05/14 02:28:00	BASE	1.22	1	1.39	1	-1.9	100	-1.9	0	0	963.1	NA	0.0000	BR	5000	1480	0	0	0
2019/05/14 02:29:00	BASE	1.23	360	1.39	1	-1.9	100	-1.9	0	0	963.1	NA	0.0000	BR	5000	1970	0	0	0
2019/05/14 02:30:00	BASE	1.22	355	1.39	1	-1.9	100	-1.9	0	0	963.1	NA	0.0000	BR	5000	0	0	0	5540
2019/05/14 02:31:00	BASE	1.28	350	1.44	345	-1.9	100	-1.9	0	0	963.1	NA	0.0000	BR	5000	0	0	0	5480
2019/05/14 02:32:00	BASE	1.43	347	1.59	346	-1.9	100	-1.9	0	0	963.2	NA	0.0000	BR	5000	1540	0	0	0
2019/05/14 02:33:00	BASE	1.59	349	1.80	352	-1.9	100	-1.9	0	0	963.2	NA	0.0000	BR	5000	0	0	0	5610
2019/05/14 02:34:00	BASE	1.71	352	1.90	350	-1.9	100	-1.9	0	0	963.2	NA	0.0000	BR	5000	0	0	0	5540
2019/05/14 02:35:00	BASE	1.89	350	2.11	348	-1.9	100	-1.9	0	0	963.2	NA	0.0000	BR	5000	0	0	0	5510
2019/05/14 02:36:00	BASE	2.13	344	2.37	340	-1.9	100	-1.9	0	0	963.2	NA	0.0000	BR	5000	0	0	0	5540
2019/05/14 02:37:00	BASE	2.25	340	2.47	337	-1.9	100	-1.9	0	0	963.2	NA	0.0000	BR	5000	0	0	0	5610
2019/05/14 02:38:00	BASE	2.38	338	2.62	335	-1.9	100	-1.9	0	0	963.2	NA	0.0000	BR	5000	0	0	0	5640
2019/05/14 02:39:00	BASE	2.53	336	2.68	335	-1.8	100	-1.8	0	0	963.2	NA	0.0000	BR	5000	0	0	0	5640
2019/05/14 02:40:00	BASE	2.59	334	2.68	334	-1.8	100	-1.8	0	0	963.2	NA	0.0000	BR	5000	0	0	0	5740
2019/05/14 02:41:00	BASE	2.61	333	2.68	332	-1.9	100	-1.9	0	0	963.2	NA	0.0000	BR	5000	0	0	0	5740
2019/05/14 02:42:00	BASE	2.59	333	2.68	332	-1.9	100	-1.9	0	0	963.2	NA	0.0000	UP BR	5000	0	0	0	5640
2019/05/14 02:43:00	BASE	2.58	333	2.68	332	-1.9	100	-1.9	0	0	963.2	NA	0.0000	UP BR	4400	0	0	0	5840
2019/05/14 02:44:00	BASE	2.61	335	2.78	337	-1.9	100	-1.9	0	0	963.2	NA	0.0000	UP BR	3800	0	0	0	7380
2019/05/14 02:45:00	BASE	2.70	338	2.93	338	-1.9	100	-1.9	0	0	963.2	NA	0.0000	UP BR	4400	0	0	0	7450
2019/05/14 02:46:00	BASE	2.77	340	2.93	338	-1.9	100	-1.9	0	0	963.2	NA	0.0000	UP BR	4500	0	0	0	7350
2019/05/14 02:47:00	BASE	2.84	339	2.98	337	-1.8	100	-1.8	0	0	963.2	NA	0.0000	UP BR	4500	0	0	0	7020
2019/05/14 02:48:00	BASE	2.90	336	3.04	335	-1.9	100	-1.9	0	0	963.2	NA	0.0000	UP BR	4900	0	0	0	6960
2019/05/14 02:49:00	BASE	2.95	334	3.45	334	-1.9	100	-1.9	0	0	963.2	NA	0.0000	UP BR	5000	0	0	0	7050
2019/05/14 02:50:00	BASE	3.19	335	3.65	336	-1.9	100	-1.9	0	0	963.2	NA	0.0000	UP BR	6000	0	0	0	7120
2019/05/14 02:51:00	BASE	3.47	336	3.65	337	-1.9	100	-1.9	0	0	963.2	NA	0.0000	UP BR	7000	0	0	0	7090
2019/05/14 02:52:00	BASE	3.38	338	3.65	337	-1.9	100	-1.9	0	0	963.2	NA	0.0000	UP BR	7000	0	0	0	6400
2019/05/14 02:53:00	BASE	3.19	342	3.65	337	-1.9	100	-1.9	0	0	963.2	NA	0.0000	UP BR	7000	0	0	0	6400
2019/05/14 02:54:00	BASE	3.04	345	3.65	337	-1.9	100	-1.9	0	0	963.2	NA	0.0000	UP BR	7000	0	0	0	6430
2019/05/14 02:55:00	BASE	2.90	348	3.65	337	-1.9	100	-1.9	0	0	963.2	NA	0.0000	UP BR	7000	0	0	0	6590
2019/05/14 02:56:00	BASE	3.16	349	3.70	348	-1.9	100	-1.9	0	0	963.2	NA	0.0000	UP BR	7000	0	0	0	6530
2019/05/14 02:57:00	BASE	3.46	347	3.76	344	-1.9	100	-1.9	0	0	963.2	NA	0.0000	UP BR	7000	0	0	0	6300
2019/05/14 02:58:00	BASE	3.52	348	3.76	347	-1.9	100	-1.9	0	0	963.2	NA	0.0000	UP BR	7000	0	0	0	6140
2019/05/14 02:59:00	BASE	3.62	347	3.76	347	-1.9	100	-1.9	0	0	963.2	NA	0.0000	UP BR	7000	0	0	0	5910
2019/05/14 03:00:00	BASE	3.58	345	3.76	347	-1.9	100	-1.9	0	0	963.2	NA	0.0000	UP BR	7000	0	0	0	5680
2019/05/14 03:01:00	BASE	3.51	344	3.76	347	-1.9	100	-1.9	0	0	963.2	NA	0.0000	BR	7000	0	0	0	5580
2019/05/14 03:02:00	BASE	3.47	343	3.76	347	-1.9	100	-1.9	0	0	963.2	NA	0.0000	UP BR	7000	0	0	0	5450
2019/05/14 03:03:00	BASE	3.26	341	3.76	347	-1.9	100	-1.9	0	0	963.2	NA	0.0000	UP BR	6000	0	0	0	5220
2019/05/14 03:04:00	BASE	2.98	339	3.76	347	-1.9	100	-1.9	0	0	963.2	NA	0.0000	UP BR	4200	0	0	0	4330
2019/05/14 03:05:00	BASE	2.84	341	3.76	347	-1.9	100	-1.9	0	0	963.2	NA	0.0000	UP BR	3000	0	0	0	4200
2019/05/14 03:06:00	BASE	2.79	343	3.76	347	-1.9	100	-1.9	0	0	963.2	NA	0.0000	UP BR	3000	390	0	0	0
2019/05/14 03:07:00	BASE	2.62	343	3.76	347	-1.9	100	-1.9	0	0	963.2	NA	0.0000	UP BR	3000	0	0	0	3540
2019/05/14 03:08:00	BASE	2.43	342	3.76	347	-1.9	100	-1.9	0	0	963.2	NA	0.0000	UP BR	2900	360	0	0	0
2019/05/14 03:09:00	BASE	2.20	346	3.65	338	-1.9	100	-1.9	0	0	963.2	NA	0.0000	UP BR	3300	0	0	0	3350
2019/05/14 03:10:00	BASE	2.01	351	3.65	338	-1.9	100	-1.9	0	0	963.2	NA	0.0000	UP BR	3200	330	0	0	0
2019/05/14 03:11:00	BASE	1.91	352	3.65	338	-1.9	100	-1.9	0	0	963.2	NA	0.0000	UP BR	3600	0	0	0	4040
2019/05/14 03:12:00	BASE	1.88	353	3.24	332	-1.9	100	-1.9	0	0	963.2	NA	0.0000	UP BR	3900	0	0	0	3740
2019/05/14 03:13:00	BASE	1.97	346	3.24	332	-2.0	100	-2.0	0	0	963.2	NA	0.0000	UP BR	3200	0	0	0	3970
2019/05/14 03:14:00	BASE	2.23	344	3.04	339	-2.0	100	-2.0	0	0	963.2	NA	0.0000	UP BR	2800	0	0	0	3940
2019/05/14 03:15:00	BASE	2.47	350	2.98	347	-2.0	100	-2.0	0	0	963.2	NA	0.0000	UP BR	3200	0	0	0	3900
2019/05/14 03:16:00	BASE	2.48	347	2.68	338	-2.0	100	-2.0	0	0	963.2	NA	0.0000	UP BR	3900	0	0	0	4000
2019/05/14 03:17:00	BASE	2.64	342	2.93	343	-2.0	100	-2.0	0	0	963.2	NA	0.0000	UP BR	4400	0	0	0	3970
2019/05/14 03:18:00	BASE	2.89	341	3.09	341	-2.0	100	-2.0	0	0	963.2	NA	0.0000	UP BR	3900	0	0	0	3870
2019/05/14 03:19:00	BASE	3.04	343	3.55	343	-2.0	100	-2.0	0	0	963.2	NA	0.0000	UP BR	4700	0	0	0	3840
2019/05/14 03:20:00	BASE	2.96	339	3.55	343	-2.0	100	-2.0	0	0	963.2	NA	0.0000	UP BR	4700	0	0	0	3180
2019/05/14 03:21:00	BASE	2.82	336	3.55	343	-2.0	100	-2.0	0	0	963.2	NA	0.0000	UP BR	4100	0	0	0	3020
2019/05/14 03:22:00	BASE	2.76	343	3.55	343	-2.0	100	-2.0	0	0	963.2	NA	0.0000	UP BR	4500	360	0	0	0
2019/05/14 03:23:00	BASE	2.61	348	3.55	343	-2.0	100	-2.0	0	0	963.2	NA	0.0000	UP BR	4200	0	0	0	2920
2019/05/14 03:24:00	BASE	2.48	348	3.55	343	-2.0	100	-2.0	0	0	963.2	NA	0.0000	UP BR	3300	360	0	0	0
2019/05/14 03:25:00	BASE	2.33	356	3.55	343	-2.0	100	-2.0	0	0	963.2	NA	0.0000	UP BR	3400	0	0	0	2590
2019/05/14 03:26:01	BASE	2.09	4	3.55	343	-2.0	100	-2.0	0	0	963.2	NA	0.0000	UP BR	4500	360	0	0	0
2019/05/14 03:27:01	BASE	2.21	5	3.55	343	-1.9	100	-1.9	0	0	963.2	NA	0.0000	UP BR	6000	0	0	0	2820
2019/05/14 03:28:01	BASE	2.58	3	3.55	343	-1.9	100	-1.9	0	0	963.2	NA	0.0000	UP BR	6000	0	0	0	2790
2019/05/14 03:29:01	BASE	2.57	6	3.19	6	-1.9	100	-1.9	0	0	963.3	NA	0.0000	UP BR	5000	390	0	0	0
2019/05/14 03:30:00	BASE	2.30	16	3.19	6	-1.9	100	-1.9	0	0	963.3	NA	0.0000	UP BR	5000	390	0	0	0
2019/05/14 03:31:00	BASE	1.97	22	3.19	6	-1.9	100	-1.9	0	0	963.3	NA	0.0000	UP BR	5000	360	0	0	0
2019/05/14 03:32:01	BASE	1.56	33	3.19	6	-1.9	100	-1.9	0	0	963.3	NA	0.0000	UP BR	6000	0	0	0	3050
2019/05/14 03:33:01	BASE	1.19	50	3.19	6	-1.9	100	-1.9	0	0	963.3	NA	0.0000	UP BR	5000	0	0	0	3180
2019/05/14 03:34:01	BASE	1.10	56	3.19	6	-1.9	100	-1.9	0	0	963.3	NA	0.0000	UP BR	5000	0	0	0	3180
2019/05/14 03:35:01	BASE	0.78	32	3.19	6	-1.9	100	-1.9	0	0	963.3	NA	0.0000	-SN BR	4700	0	0	0	3120
2019/05/14 03:36:01	BASE	0.97	356	3.19	6	-1.9	100	-1.9	0	0	963.3	NA	0.0000	-SN BR	4500	0	0	0	3150
2019/05/14 03:37:01	BASE	1.66	9	2.78	2	-1.9	100	-1.9	0	0	963.3	NA	0.0000	-SN BR	4900	0	0	0	3120
2019/05/14 03:38:01	BASE	1.74	36	2.68	6	-2.0	100	-2.0	0	0	963.4	NA	0.0000	-SN BR	5000	0	0	0	2660
2019/05/14 03:39:01	BASE	1.14	47	2.52	16	-1.9	100	-1.9	0	0	963.4	NA	0.0000	-SN BR	6000	0	0	0	2690
2019/05/14 03:40:01	BASE	0.97	66	2.42	36	-1.9	100	-1.9	0	0	963.4	NA	0.0000	-SN BR	5000	390	0	0	0
2019/05/14 03:41:01	BASE	1.20	95	2.42	36	-1.9	100	-1.9	0	0	963.4	NA	0.0000	-SN BR	4500	390	0	0	0
2019/05/14 03:42:01	BASE	1.46	131	2.42	36	-1.9	100	-1.9	0	0	963.4	NA	0.0000	-SN BR	4900	360	0	0	0
2019/05/14 03:43:01	BASE	1.85	152	2.57	146	-1.9	100	-1.9	0	0	963.4	NA	0.0000	-SN BR	4400	360	0	0	0
2019/05/14 03:44:01	BASE	1.76	166	2.57	146	-1.9	100	-1.9	0	0	963.5	NA	0.0000	-SN BR	4700	390	0	0	0
2019/05/14 03:45:01	BASE	2.44	166	3.81	137	-1.9	100	-1.9	0	0	963.5	NA	0.0000	-SN BR	5000	430	0	0	0
2019/05/14 03:46:01	BASE	3.84	148	6.02	141	-1.9	100	-1.9	0	0	963.5	NA	0.0000	-SN BR	5000	390	0	0	0
2019/05/14 03:47:01	BASE	5.83	141	10.08	146	-1.8	100	-1.8	0	0	963.5	NA	0.0000	-SN BR	4400	390	0	0	0
2019/05/14 03:48:01	BASE	8.11	143	10.80	153	-1.8	100	-1.8	0	0	963.5	NA	0.0000	-SN BR	4600	390	0	0	0
2019/05/14 03:49:01	BASE	9.32	144	11.68	149	-1.7	100	-1.7	0	0	963.5	NA	0.0000	-SN BR	5000	430	0	0	0
2019/05/14 03:50:01	BASE	8.74	142	11.68	149	-1.7	100	-1.7	0	0	963.5	NA	0.0000	-SN BR	6000	430	0	0	0
2019/05/14 03:51:01	BASE	8.78	145	12.04	151	-1.6	100	-1.6	0	0	963.5	NA	0.0000	-SN BR	5000	390	0	0	0
2019/05/14 03:52:01	BASE	10.48	149	12.45	147	-1.5	100	-1.5	0	0	963.5	NA	0.0000	-SN BR	5000	390	0	0	0
2019/05/14 03:53:01	BASE	11.70	151	14.10	155	-1.5	100	-1.5	0	0	963.5	NA	0.0000	-SN BR	5000	0	0	0	3480
2019/05/14 03:54:01	BASE	11.99	151	14.56	161	-1.5	100	-1.5	0	0	963.5	NA	0.0000	-SN BR	5000	0	0	0	3380
2019/05/14 03:55:01	BASE	11.43	149	14.56	161	-1.4	100	-1.4	0	0	963.5	NA	0.0000	-SN BR	6000	0	0	0	3410
2019/05/14 03:56:01	BASE	11.70	149	14.87	153	-1.4	100	-1.4	0	0	963.6	NA	0.0000	-SN BR	6000	0	0	0	3310
2019/05/14 03:57:01	BASE	12.63	152	14.87	153	-1.4	100	-1.4	0	0	963.6	NA	0.0000	-SN BR	6000	0	0	0	3380
2019/05/14 03:58:01	BASE	12.38	152	14.87	153	-1.4	100	-1.4	0	0	963.6	NA	0.0000	-SN BR	6000	0	0	0	3350
2019/05/14 03:59:01	BASE	12.27	149	14.87	153	-1.4	100	-1.4	0	0	963.6	NA	0.0000	-SN BR	7000	0	0	0	3220
2019/05/14 04:00:01	BASE	12.77	150	14.87	153	-1.4	100	-1.4	0	0	963.6	NA	0.0000	-SN BR	8000	0	0	0	3310
2019/05/14 04:01:01	BASE	12.19	153	14.87	153	-1.4	100	-1.4	0	0	963.6	NA	0.0000	-SN BR	9000	0	0	0	3150
2019/05/14 04:02:01	BASE	11.36	152	14.87	153	-1.4	100	-1.4	0	0	963.6	NA	0.0000	-SN BR	8000	0	0	0	3020
2019/05/14 04:03:01	BASE	11.77	148	14.87	153	-1.4	100	-1.4	0	0	963.6	NA	0.0000	-SN BR	8000	0	0	0	3120
2019/05/14 04:04:01	BASE	12.00	147	14.87	153	-1.4	100	-1.4	0	0	963.6	NA	0.0000	-SN BR	9000	0	0	0	2920
2019/05/14 04:05:01	BASE	11.42	150	14.87	153	-1.4	100	-1.4	0	0	963.6	NA	0.0000	-SN BR	9999	0	0	0	2920
2019/05/14 04:06:01	BASE	10.98	153	14.82	152	-1.4	100	-1.4	0	0	963.6	NA	0.0000	-SN BR	9999	0	0	0	3120
2019/05/14 04:07:01	BASE	11.05	154	14.82	152	-1.4	100	-1.4	0	0	M	NA	0.0000	-SN BR	9999	590	0	0	0
2019/05/14 04:08:02	BASE	11.48	159	14.82	152	-1.4	100	-1.4	0	0	963.6	NA	0.0000	-SN BR	9999	0	0	0	3310
2019/05/14 04:09:01	BASE	13.78	164	16.72	170	-1.4	100	-1.4	0	0	963.6	NA	0.0000	-SN BR	9999	0	0	0	3310
2019/05/14 04:10:01	BASE	14.84	166	16.72	170	-1.4	100	-1.4	0	0	963.6	NA	0.0000	-SN BR	9999	0	0	0	3250
2019/05/14 04:11:02	BASE	14.07	168	16.72	170	-1.4	100	-1.4	0	0	963.6	NA	0.0000	-SN	9999	0	0	0	3280
2019/05/14 04:12:02	BASE	13.79	170	16.72	170	-1.4	100	-1.4	0	0	963.6	NA	0.0000	-SN	8000	0	0	0	3120
2019/05/14 04:13:02	BASE	12.86	171	16.72	170	-1.4	100	-1.4	0	0	963.6	NA	0.0000	-SN	7000	0	0	0	3150
2019/05/14 04:14:01	BASE	12.51	175	16.72	170	-1.4	100	-1.4	0	0	963.7	NA	0.0000	-SN BR	6000	0	0	0	2590
2019/05/14 04:15:01	BASE	13.91	177	16.72	170	-1.4	100	-1.4	0	0	963.7	NA	0.0000	-SN BR	5000	0	0	0	2620
2019/05/14 04:16:02	BASE	15.19	177	17.08	183	-1.4	100	-1.4	0	0	963.7	NA	0.0000	-SN BR	4900	0	0	0	2690
2019/05/14 04:17:01	BASE	15.37	177	17.08	183	-1.4	100	-1.4	0	0	963.7	NA	0.0000	-SN BR	5000	0	0	0	2330
2019/05/14 04:18:02	BASE	14.96	173	17.08	183	-1.4	100	-1.4	0	0	963.7	NA	0.0000	-SN BR	6000	360	0	0	0
2019/05/14 04:19:02	BASE	14.79	175	17.08	183	-1.4	100	-1.4	0	0	963.7	NA	0.0000	-SN BR	2200	330	0	0	0
2019/05/14 04:20:01	BASE	14.07	179	17.08	183	-1.4	100	-1.4	0	0	963.7	NA	0.0000	-SN BR	2100	0	0	0	2260
2019/05/14 04:21:02	BASE	13.56	177	17.08	183	-1.4	100	-1.4	0	0	963.7	NA	0.0000	-SN BR	1700	0	0	0	2200
2019/05/14 04:22:02	BASE	14.58	175	17.08	183	-1.4	100	-1.4	0	0	963.7	NA	0.0000	-SN BR	1900	0	0	0	2070
2019/05/14 04:23:01	BASE	14.56	176	17.08	183	-1.4	100	-1.4	0	0	963.7	NA	0.0000	-SN BR	1900	0	0	0	2490
2019/05/14 04:24:02	BASE	13.77	179	17.08	183	-1.4	100	-1.4	0	0	963.8	NA	0.0000	-SN BR	1900	300	0	0	0
2019/05/14 04:25:02	BASE	12.92	179	17.08	183	-1.4	100	-1.4	0	0	963.8	NA	0.0000	-SN BR	1800	0	0	0	2590
2019/05/14 04:26:02	BASE	12.92	175	16.82	176	-1.4	100	-1.4	0	0	963.9	NA	0.0000	-SN BR	3200	300	0	0	0
2019/05/14 04:27:01	BASE	13.08	175	16.46	171	-1.4	100	-1.4	0	0	963.8	NA	0.0000	-SN BR	4500	0	0	0	2590
2019/05/14 04:28:01	BASE	12.86	173	16.51	179	-1.4	100	-1.4	0	0	963.8	NA	0.0000	-SN BR	1800	0	0	0	2660
2019/05/14 04:29:01	BASE	14.02	171	16.51	179	-1.4	100	-1.4	0	0	963.9	NA	0.0000	-SN BR	1900	0	0	0	2690
2019/05/14 04:30:02	BASE	14.76	173	16.51	179	-1.4	100	-1.4	0	0	963.9	NA	0.0000	-SN BR	4300	0	0	0	2620
2019/05/14 04:31:02	BASE	14.88	175	16.77	178	-1.5	100	-1.5	0	0	963.9	NA	0.0000	-SN BR	4900	0	0	0	2590
2019/05/14 04:32:02	BASE	14.42	176	16.77	178	-1.5	100	-1.5	0	0	963.9	NA	0.0000	-SN BR	2000	0	0	0	2660
2019/05/14 04:33:01	BASE	13.55	176	16.77	178	-1.5	100	-1.5	0	0	964.0	NA	0.0000	-SN BR	4300	0	0	0	2560
2019/05/14 04:34:02	BASE	13.03	176	16.77	178	-1.5	100	-1.5	0	0	964.0	NA	0.0000	-SN BR	7000	0	0	0	2660
2019/05/14 04:35:01	BASE	12.58	176	16.77	178	-1.5	100	-1.5	0	0	964.0	NA	0.0000	-SN BR	4400	0	0	0	2760
2019/05/14 04:36:01	BASE	12.58	176	16.77	178	-1.5	100	-1.5	0	0	964.0	NA	0.0000	-SN BR	4200	890	0	0	0
2019/05/14 04:37:02	BASE	13.12	179	16.77	178	-1.5	100	-1.5	0	0	964.0	NA	0.0000	-SN BR	4500	0	0	0	2660
2019/05/14 04:38:02	BASE	13.31	179	16.77	178	-1.5	100	-1.5	0	0	964.0	NA	0.0000	-SN BR	4300	0	0	0	2660
2019/05/14 04:39:01	BASE	13.13	177	16.77	178	-1.5	100	-1.5	0	0	964.1	NA	0.0000	-SN BR	5000	0	0	0	2490
2019/05/14 04:40:02	BASE	12.12	179	16.77	178	-1.5	100	-1.5	0	0	964.1	NA	0.2540	-SN BR	5000	0	0	0	2530
2019/05/14 04:41:02	BASE	11.79	179	15.64	173	-1.5	100	-1.5	0	0	964.1	NA	0.0000	-SN BR	6000	0	0	0	2560
2019/05/14 04:42:02	BASE	11.78	177	15.18	176	-1.5	100	-1.5	0	0	964.2	NA	0.0000	-SN BR	5000	300	0	0	0
2019/05/14 04:43:01	BASE	11.24	176	14.97	177	-1.5	100	-1.5	0	0	964.2	NA	0.0000	-SN BR	5000	330	0	0	0
2019/05/14 04:44:01	BASE	11.10	172	14.92	180	-1.5	100	-1.5	0	0	964.2	NA	0.0000	-SN BR	6000	330	0	0	0
2019/05/14 04:45:02	BASE	10.18	168	14.92	180	-1.5	100	-1.5	0	0	964.2	NA	0.0000	-SN BR	8000	0	0	0	2590
2019/05/14 04:46:02	BASE	10.23	164	14.92	180	-1.5	100	-1.5	0	0	964.2	NA	0.0000	-SN BR	5000	0	0	0	2850
2019/05/14 04:47:00	BASE	11.05	162	14.51	180	-1.5	100	-1.5	0	0	964.2	NA	0.0000	-SN BR	5000	0	0	0	3080
2019/05/14 04:48:02	BASE	10.91	160	14.35	176	-1.5	100	-1.5	0	0	964.2	NA	0.0000	-SN BR	5000	0	0	0	3050
2019/05/14 04:49:02	BASE	10.39	157	14.04	170	-1.5	100	-1.5	0	0	964.2	NA	0.0000	-SN BR	5000	0	0	0	2990
2019/05/14 04:50:01	BASE	9.13	156	14.04	170	-1.5	100	-1.5	0	0	964.2	NA	0.0000	-SN BR	5000	0	0	0	3050
2019/05/14 04:51:02	BASE	8.27	156	12.55	181	-1.5	100	-1.5	0	0	964.2	NA	0.0000	-SN BR	5000	0	0	0	3080
2019/05/14 04:52:02	BASE	8.53	152	12.45	170	-1.5	100	-1.5	0	0	964.2	NA	0.0000	-SN BR	6000	0	0	0	3020
2019/05/14 04:53:01	BASE	8.57	151	12.35	168	-1.5	100	-1.5	0	0	964.2	NA	0.0000	-SN BR	6000	0	0	0	2950
2019/05/14 04:54:02	BASE	8.83	150	12.35	168	-1.5	100	-1.5	0	0	964.2	NA	0.0000	-SN BR	6000	0	0	0	3020
2019/05/14 04:55:02	BASE	9.55	146	12.35	168	-1.5	100	-1.5	0	0	964.2	NA	0.0000	-SN BR	9999	0	0	0	3120
2019/05/14 04:56:01	BASE	9.58	144	12.35	168	-1.5	100	-1.5	0	0	964.3	NA	0.0000	-SN BR	9999	0	0	0	3740
2019/05/14 04:57:02	BASE	9.24	145	12.24	161	-1.5	100	-1.5	0	0	964.3	NA	0.0000	-SN BR	9999	0	0	0	3310
2019/05/14 04:58:02	BASE	8.75	143	11.27	145	-1.5	100	-1.5	0	0	964.3	NA	0.0000	-SN BR	8000	0	0	0	3970
2019/05/14 04:59:02	BASE	8.39	140	11.27	145	-1.5	100	-1.5	0	0	964.3	NA	0.0000	-SN BR	9000	0	0	0	3870
2019/05/14 05:00:01	BASE	8.15	137	11.27	145	-1.5	100	-1.5	0	0	964.3	NA	0.0000	-SN BR	8000	3540	0	0	0
2019/05/14 05:01:02	BASE	8.12	135	11.27	145	-1.5	100	-1.5	0	0	964.3	NA	0.0000	-SN BR	8000	3450	0	0	0
2019/05/14 05:02:01	BASE	9.02	133	10.75	145	-1.5	100	-1.5	0	0	964.3	NA	0.0000	-SN BR	8000	3580	0	0	0
2019/05/14 05:03:02	BASE	9.49	133	10.75	145	-1.5	100	-1.5	0	0	964.3	NA	0.0000	-SN BR	7000	3580	0	0	0
2019/05/14 05:04:01	BASE	8.96	133	10.75	145	-1.5	100	-1.5	0	0	964.4	NA	0.0000	BR	7000	3670	0	0	0
2019/05/14 05:05:02	BASE	8.39	133	10.49	136	-1.5	100	-1.5	0	0	964.5	NA	0.0000	BR	7000	3770	0	0	0
2019/05/14 05:06:02	BASE	8.36	133	10.49	136	-1.5	100	-1.5	0	0	964.5	NA	0.0000	BR	9999	4170	0	0	0
2019/05/14 05:07:02	BASE	8.16	130	10.49	136	-1.5	100	-1.5	0	0	964.5	NA	0.0000	BR	9999	4460	0	0	0
2019/05/14 05:08:01	BASE	7.47	127	10.49	136	-1.5	100	-1.5	0	0	964.5	NA	0.0000	BR	9999	4760	0	0	0
2019/05/14 05:09:02	BASE	7.23	128	10.49	136	-1.5	100	-1.5	0	0	964.5	NA	0.0000	BR	9999	5050	0	0	0
2019/05/14 05:10:01	BASE	7.31	129	10.49	136	-1.5	100	-1.5	0	0	964.6	NA	0.0000		9999	5120	0	0	0
2019/05/14 05:11:02	BASE	7.23	128	10.49	136	-1.5	100	-1.5	0	0	964.6	NA	0.0000		9999	3080	0	0	0
2019/05/14 05:12:01	BASE	7.36	133	9.67	129	-1.4	100	-1.4	0	0	964.6	NA	0.0000		9999	5120	0	0	0
2019/05/14 05:13:01	BASE	7.34	134	9.31	135	-1.4	100	-1.4	0	0	964.6	NA	0.0000		9999	3810	0	0	0
2019/05/14 05:14:01	BASE	6.93	128	9.31	135	-1.4	100	-1.4	0	0	964.7	NA	0.0000		9999	3150	0	0	0
2019/05/14 05:15:01	BASE	7.12	128	9.31	135	-1.4	100	-1.4	0	0	964.7	NA	0.0000		9999	3120	0	0	0
2019/05/14 05:16:02	BASE	7.69	132	9.31	135	-1.4	100	-1.4	0	0	964.7	NA	0.0000		9999	3250	0	0	0
2019/05/14 05:17:01	BASE	7.28	135	9.31	135	-1.4	100	-1.4	0	0	964.7	NA	0.0000		9999	5280	0	0	0
2019/05/14 05:18:01	BASE	5.71	138	9.31	135	-1.4	100	-1.4	0	0	964.7	NA	0.0000		9999	2920	0	0	0
2019/05/14 05:19:01	BASE	5.42	132	9.31	135	-1.3	100	-1.3	0	0	964.7	NA	0.0000		9999	2920	0	0	0
2019/05/14 05:20:03	BASE	5.57	120	9.31	135	-1.3	100	-1.3	0	0	964.7	NA	0.0000		9999	3080	4460	0	0
2019/05/14 05:21:02	BASE	4.41	113	9.31	135	-1.3	100	-1.3	0	0	964.7	NA	0.0000		9999	3050	0	0	0
2019/05/14 05:22:02	BASE	3.56	123	9.05	128	-1.2	100	-1.2	0	0	964.8	NA	0.0000		9999	3020	0	0	0
2019/05/14 05:23:01	BASE	3.90	138	9.05	128	-1.3	100	-1.3	0	0	964.8	NA	0.0000		9999	2990	0	0	0
2019/05/14 05:24:02	BASE	4.59	135	9.05	128	-1.3	100	-1.3	0	0	964.8	NA	0.0000		9999	2990	0	0	0
2019/05/14 05:25:02	BASE	4.32	140	9.05	128	-1.3	100	-1.3	0	0	964.8	NA	0.0000		9999	3020	0	0	0
2019/05/14 05:26:02	BASE	3.92	145	8.85	150	-1.3	100	-1.3	0	0	964.8	NA	0.0000		9999	2790	0	0	0
2019/05/14 05:27:01	BASE	4.12	141	6.94	132	-1.3	100	-1.3	0	0	964.8	NA	0.0000		9999	2820	0	0	0
2019/05/14 05:28:02	BASE	4.21	145	6.94	132	-1.2	100	-1.2	0	0	964.8	NA	0.0000		9999	2950	0	0	0
2019/05/14 05:29:02	BASE	3.91	143	5.86	123	-1.2	100	-1.2	0	0	964.8	NA	0.0000		9999	2950	0	0	0
2019/05/14 05:30:01	BASE	4.17	134	5.86	123	-1.2	100	-1.2	0	0	964.8	NA	0.0000		9999	3120	0	0	0
2019/05/14 05:31:01	BASE	4.36	143	5.86	123	-1.2	100	-1.2	0	0	964.9	NA	0.0000		9999	3350	0	0	0
2019/05/14 05:32:01	BASE	3.26	160	5.86	123	-1.2	100	-1.2	0	0	964.9	NA	0.0000		9999	3250	0	0	0
2019/05/14 05:33:02	BASE	2.44	155	5.86	123	-1.2	100	-1.2	0	0	965.0	NA	0.0000		9999	3480	0	0	0
2019/05/14 05:34:02	BASE	2.97	159	5.35	139	-1.2	100	-1.2	0	0	965.1	NA	0.0000		9999	4790	0	0	0
2019/05/14 05:35:01	BASE	3.34	172	5.35	139	-1.2	100	-1.2	0	0	965.1	NA	0.0000		9999	3150	0	0	0
2019/05/14 05:36:01	BASE	2.85	168	5.35	139	-1.2	100	-1.2	0	0	965.1	NA	0.0000		9999	4690	0	0	0
2019/05/14 05:37:02	BASE	2.71	166	5.35	139	-1.1	100	-1.1	0	0	965.1	NA	0.0000		9999	3120	0	0	0
2019/05/14 05:38:02	BASE	2.46	169	5.35	139	-1.1	100	-1.1	0	0	965.1	NA	0.0000		9999	3080	0	0	0
2019/05/14 05:39:00	BASE	1.83	173	5.35	139	-1.1	100	-1.1	0	0	965.2	NA	0.0000		9999	3120	0	0	0
2019/05/14 05:40:01	BASE	1.73	167	4.84	153	-1.1	100	-1.1	0	0	965.2	NA	0.0000		9999	3150	0	0	0
2019/05/14 05:41:01	BASE	2.65	161	4.94	164	-1.1	100	-1.1	0	0	965.2	NA	0.0000		9999	4530	0	0	0
2019/05/14 05:42:01	BASE	3.45	175	4.94	164	-1.1	100	-1.1	0	0	965.2	NA	0.0000		9999	4560	0	0	0
2019/05/14 05:43:01	BASE	3.51	190	4.94	164	-1.1	100	-1.1	0	0	965.2	NA	0.0000		9999	4560	0	0	0
2019/05/14 05:44:01	BASE	3.29	191	4.94	164	-1.1	100	-1.1	0	0	965.2	NA	0.0000		9999	4530	0	0	0
2019/05/14 05:45:02	BASE	2.97	174	4.94	164	-1.0	100	-1.0	0	0	965.2	NA	0.0000		9999	4690	0	0	0
2019/05/14 05:46:01	BASE	2.52	157	4.94	164	-1.0	100	-1.0	0	0	965.2	NA	0.0000		9999	4760	0	0	0
2019/05/14 05:47:01	BASE	1.99	194	4.94	164	-1.0	100	-1.0	0	0	965.3	NA	0.0000		9999	4720	0	0	0
2019/05/14 05:48:01	BASE	2.52	231	4.94	164	-1.0	100	-1.0	0	0	965.3	NA	0.0000		9999	4660	0	0	0
2019/05/14 05:49:01	BASE	4.01	232	6.33	232	-1.0	100	-1.0	0	0	965.3	NA	0.0000		9999	4690	0	0	0
2019/05/14 05:50:01	BASE	5.15	236	6.33	232	-1.0	100	-1.0	0	0	965.4	NA	0.0000		9999	4720	0	0	0
2019/05/14 05:51:01	BASE	5.68	239	6.94	246	-1.0	100	-1.0	0	0	965.4	NA	0.0000		9999	4690	0	0	0
2019/05/14 05:52:01	BASE	6.03	244	7.20	235	-1.0	100	-1.0	0	0	965.4	NA	0.0000		9999	3740	0	0	0
2019/05/14 05:53:03	BASE	5.96	241	7.20	235	-1.0	100	-1.0	0	0	965.4	NA	0.0000		9999	3810	0	0	0
2019/05/14 05:54:02	BASE	5.74	233	7.20	235	-1.0	100	-1.0	0	0	965.4	NA	0.0000		9999	3770	0	0	0
2019/05/14 05:55:01	BASE	6.47	225	9.00	220	-1.0	99	-1.1	0	0	965.5	NA	0.0000		9999	3810	0	0	0
2019/05/14 05:56:01	BASE	8.11	213	10.65	196	-1.0	99	-1.2	0	0	965.4	NA	0.0000		9999	3870	0	0	0
2019/05/14 05:57:01	BASE	9.01	206	10.65	196	-1.0	98	-1.3	0	0	965.5	NA	0.0000		9999	3900	0	0	0
2019/05/14 05:58:02	BASE	8.58	213	10.65	196	-1.0	97	-1.4	0	0	965.5	NA	0.0000		9999	3970	0	0	0
2019/05/14 05:59:01	BASE	9.01	216	11.21	213	-1.0	96	-1.5	0	0	965.6	NA	0.0000		9999	4070	0	0	0
2019/05/14 06:00:01	BASE	9.32	212	11.21	213	-0.9	95	-1.7	0	0	965.6	NA	0.0000		9999	4100	0	0	0
2019/05/14 06:01:01	BASE	8.69	202	11.21	213	-0.9	94	-1.8	0	0	965.6	NA	0.0000		9999	4200	0	0	0
2019/05/14 06:02:01	BASE	10.10	202	13.27	208	-0.9	93	-1.9	0	0	965.6	NA	0.0000		9999	4040	4920	0	0
2019/05/14 06:03:01	BASE	11.90	210	14.76	217	-0.9	92	-2.1	0	0	965.6	NA	0.0000		9999	4040	0	0	0
2019/05/14 06:04:01	BASE	12.42	214	15.18	212	-0.9	91	-2.2	0	0	965.5	NA	0.0000		9999	4170	0	0	0
2019/05/14 06:05:02	BASE	11.91	215	15.18	212	-0.9	90	-2.4	0	0	965.6	NA	0.0000		9999	4400	0	0	0
2019/05/14 06:06:02	BASE	11.96	209	15.18	212	-0.9	88	-2.6	0	0	965.6	NA	0.0000		9999	4130	0	0	0
2019/05/14 06:07:01	BASE	12.74	208	15.18	212	-0.9	87	-2.8	0	0	965.6	NA	0.0000		9999	4270	0	0	0
2019/05/14 06:08:02	BASE	11.81	210	15.18	212	-0.9	86	-3.0	0	0	965.6	NA	0.0000		9999	4590	0	0	0
2019/05/14 06:09:01	BASE	10.85	211	15.18	212	-0.9	86	-3.0	0	0	965.6	NA	0.0000		9999	4630	0	0	0
2019/05/14 06:10:01	BASE	11.27	210	15.18	212	-0.9	85	-3.1	0	0	965.6	NA	0.0000		9999	4460	0	0	0
2019/05/14 06:11:04	BASE	11.49	211	15.18	212	-0.9	85	-3.1	0	0	965.6	NA	0.0000		9999	4430	0	0	0
2019/05/14 06:12:01	BASE	11.88	215	15.18	212	-0.9	85	-3.1	0	0	965.6	NA	0.0000		9999	4400	0	0	0
2019/05/14 06:13:01	BASE	11.86	214	15.18	212	-0.9	85	-3.0	0	0	965.6	NA	0.0000		9999	4330	0	0	0
2019/05/14 06:14:01	BASE	12.09	214	14.87	213	-0.9	86	-3.0	0	0	965.6	NA	0.0000		9999	4360	0	0	0
2019/05/14 06:15:02	BASE	13.08	212	14.87	213	-0.9	86	-3.0	0	0	965.6	NA	0.0000		9999	4400	0	0	0
2019/05/14 06:16:02	BASE	12.26	214	14.87	213	-0.9	86	-3.0	0	0	965.7	NA	0.0000		9999	4400	0	0	0
2019/05/14 06:17:02	BASE	11.68	212	14.87	213	-0.9	86	-3.0	0	0	965.7	NA	0.0000		9999	4530	0	0	0
2019/05/14 06:18:01	BASE	12.23	212	14.87	213	-1.0	86	-3.0	0	0	965.8	NA	0.0000		9999	4400	0	0	0
2019/05/14 06:19:02	BASE	12.38	216	14.87	213	-1.0	86	-3.0	0	0	965.8	NA	0.0000		9999	4430	0	0	0
2019/05/14 06:20:02	BASE	12.87	217	14.87	213	-1.0	86	-3.0	0	0	965.8	NA	0.0000		9999	4630	0	0	0
2019/05/14 06:21:02	BASE	12.87	217	14.87	213	-1.0	86	-3.0	0	0	965.8	NA	0.0000		9999	4760	0	0	0
2019/05/14 06:22:02	BASE	12.21	213	14.87	213	-1.0	86	-3.0	0	0	965.8	NA	0.0000		9999	4760	0	0	0
2019/05/14 06:23:02	BASE	11.23	209	14.87	213	-1.0	86	-3.0	0	0	965.9	NA	0.0000		9999	4860	0	0	0
2019/05/14 06:24:02	BASE	10.99	210	14.61	208	-1.0	86	-2.9	0	0	965.9	NA	0.0000		9999	4920	0	0	0
2019/05/14 06:25:03	BASE	11.09	212	14.15	211	-1.0	87	-2.9	0	0	965.9	NA	0.0000		9999	4860	0	0	0
2019/05/14 06:26:02	BASE	10.57	211	14.15	211	-0.9	87	-2.8	0	0	965.9	NA	0.0000		9999	4860	0	0	0
2019/05/14 06:27:02	BASE	11.36	211	14.15	211	-0.9	87	-2.8	0	0	965.9	NA	0.0000		9999	4950	0	0	0
2019/05/14 06:28:02	BASE	12.31	210	14.51	211	-0.9	88	-2.7	0	0	965.9	NA	0.0000		9999	4990	0	0	0
2019/05/14 06:29:01	BASE	12.15	210	14.51	211	-1.0	88	-2.7	0	0	966.0	NA	0.0000		9999	4860	0	0	0
2019/05/14 06:30:02	BASE	11.29	213	14.51	211	-1.0	88	-2.6	0	0	966.0	NA	0.0000		9999	4890	0	0	0
2019/05/14 06:31:01	BASE	10.87	214	14.51	211	-1.0	89	-2.6	0	0	966.0	NA	0.0000		9999	5020	0	0	0
2019/05/14 06:32:02	BASE	11.64	212	15.07	209	-1.0	89	-2.6	0	0	966.0	NA	0.0000		9999	5020	0	0	0
2019/05/14 06:33:01	BASE	12.41	210	15.07	209	-1.0	89	-2.6	0	0	966.1	NA	0.0000		9999	6660	0	0	0
2019/05/14 06:34:02	BASE	11.35	210	15.07	209	-1.0	89	-2.6	0	0	966.1	NA	0.0000		9999	6820	0	0	0
2019/05/14 06:35:02	BASE	9.80	210	15.07	209	-1.0	89	-2.5	0	0	966.1	NA	0.0000		9999	6760	0	0	0
2019/05/14 06:36:02	BASE	9.53	210	15.07	209	-1.0	89	-2.5	0	0	966.1	NA	0.0000		9999	6890	0	0	0
2019/05/14 06:37:02	BASE	10.03	216	15.07	209	-1.0	90	-2.5	0	0	966.2	NA	0.0000		9999	4760	0	0	0
2019/05/14 06:38:04	BASE	11.28	218	15.07	209	-1.0	90	-2.4	0	0	966.2	NA	0.0000		9999	4760	0	0	0
2019/05/14 06:39:03	BASE	11.23	216	15.07	209	-1.0	90	-2.4	0	0	966.2	NA	0.0000		9999	6960	0	0	0
2019/05/14 06:40:02	BASE	10.31	215	15.07	209	-1.0	90	-2.4	0	0	966.2	NA	0.0000		9999	4760	0	0	0
2019/05/14 06:41:02	BASE	10.18	215	15.07	209	-1.0	90	-2.4	0	0	966.2	NA	0.0000		9999	4790	0	0	0
2019/05/14 06:42:03	BASE	10.55	216	13.68	212	-1.0	90	-2.4	0	0	966.2	NA	0.0000		9999	4720	0	0	0
2019/05/14 06:43:02	BASE	10.85	219	13.17	213	-1.0	90	-2.3	0	0	966.2	NA	0.0000		9999	4720	0	0	0
2019/05/14 06:44:01	BASE	10.91	219	13.12	224	-1.0	91	-2.3	0	0	966.2	NA	0.0000		9999	4720	0	0	0
2019/05/14 06:45:02	BASE	11.24	218	13.12	213	-1.0	91	-2.3	0	0	966.2	NA	0.0000		9999	4790	0	0	0
2019/05/14 06:46:02	BASE	11.90	218	13.12	213	-1.0	91	-2.2	0	0	966.2	NA	0.0000		9999	5090	0	0	0
2019/05/14 06:47:02	BASE	11.46	217	13.12	213	-1.0	91	-2.2	0	0	966.3	NA	0.0000		9999	5050	0	0	0
2019/05/14 06:48:01	BASE	10.61	215	13.12	213	-1.0	91	-2.2	0	0	966.3	NA	0.0000		9999	5150	0	0	0
2019/05/14 06:49:02	BASE	10.95	219	13.12	213	-1.0	92	-2.2	0	0	966.3	NA	0.0000		9999	6660	0	0	0
2019/05/14 06:50:02	BASE	10.93	219	13.12	213	-1.0	92	-2.1	0	0	966.4	NA	0.0000		9999	6690	0	0	0
2019/05/14 06:51:02	BASE	10.96	215	13.32	219	-1.0	92	-2.1	0	0	966.3	NA	0.0000		9999	5150	0	0	0
2019/05/14 06:52:02	BASE	11.24	214	13.32	219	-1.0	92	-2.1	0	0	966.4	NA	0.0000		9999	5250	0	0	0
2019/05/14 06:53:02	BASE	11.37	216	13.32	219	-1.0	93	-2.0	0	0	966.4	NA	0.0000		9999	5180	0	0	0
2019/05/14 06:54:02	BASE	11.73	219	13.32	219	-1.0	93	-2.0	0	0	966.4	NA	0.0000		9999	6790	0	0	0
2019/05/14 06:55:02	BASE	11.71	217	13.32	219	-1.0	93	-2.0	0	0	966.4	NA	0.0000		9999	6730	0	0	0
2019/05/14 06:56:02	BASE	11.43	216	13.38	213	-1.0	93	-2.0	0	0	966.4	NA	0.0000		9999	6730	0	0	0
2019/05/14 06:57:01	BASE	11.59	217	13.38	213	-1.0	93	-2.0	0	0	966.4	NA	0.0000		9999	5050	0	0	0
2019/05/14 06:58:01	BASE	12.55	217	14.51	213	-1.0	93	-2.0	0	0	966.4	NA	0.0000		9999	4990	0	0	0
2019/05/14 06:59:01	BASE	12.94	216	14.51	213	-1.0	93	-1.9	0	0	966.5	NA	0.0000		9999	5120	0	0	0
2019/05/14 07:00:02	BASE	12.27	216	14.51	213	-0.9	93	-2.0	0	0	966.5	NA	0.0000		9999	5150	0	0	0
2019/05/14 07:01:02	BASE	11.84	219	14.51	213	-0.9	93	-1.9	0	0	966.5	NA	0.0000		9999	6960	0	0	0
2019/05/14 07:02:02	BASE	12.01	219	14.51	213	-0.9	93	-1.9	0	0	966.5	NA	0.0000		9999	6920	0	0	0
2019/05/14 07:03:01	BASE	12.87	218	15.43	215	-0.9	93	-1.9	0	0	966.5	NA	0.0000		9999	6860	0	0	0
2019/05/14 07:04:02	BASE	14.14	217	15.48	218	-0.9	93	-1.9	0	0	966.5	NA	0.0000		9999	5410	0	0	0
2019/05/14 07:05:03	BASE	14.86	219	16.05	221	-0.9	93	-1.9	0	0	966.5	NA	0.0000		9999	5280	0	0	0
2019/05/14 07:06:02	BASE	14.71	219	16.05	221	-0.9	93	-1.9	0	0	966.5	NA	0.0000		9999	6070	0	0	0
2019/05/14 07:07:01	BASE	14.69	219	17.54	217	-0.9	93	-1.9	0	0	966.5	NA	0.0000		9999	6590	0	0	0
2019/05/14 07:08:02	BASE	15.73	218	18.11	227	-0.9	93	-1.9	0	0	966.5	NA	0.0000		9999	6530	0	0	0
2019/05/14 07:09:01	BASE	16.01	215	18.11	227	-1.0	93	-2.0	0	0	966.5	NA	0.0000		9999	6630	0	0	0
2019/05/14 07:10:01	BASE	15.80	216	18.11	227	-1.0	93	-2.0	0	0	966.5	NA	0.0000		9999	5970	0	0	0
2019/05/14 07:11:01	BASE	16.41	217	18.11	227	-1.0	92	-2.1	0	0	966.6	NA	0.0000		9999	5970	0	0	0
2019/05/14 07:12:01	BASE	16.29	217	18.11	227	-1.0	92	-2.2	0	0	966.6	NA	0.0000		9999	5710	0	0	0
2019/05/14 07:13:02	BASE	15.91	217	18.11	227	-1.0	91	-2.3	0	0	966.6	NA	0.0000		9999	5680	0	0	0
2019/05/14 07:14:01	BASE	15.64	217	18.11	227	-1.0	91	-2.3	0	0	966.6	NA	0.0000		9999	5580	0	0	0
2019/05/14 07:15:02	BASE	14.97	218	18.11	227	-1.0	90	-2.4	0	0	966.7	NA	0.0000		9999	5610	0	0	0
2019/05/14 07:16:02	BASE	14.69	220	18.11	227	-1.0	90	-2.4	0	0	966.7	NA	0.0000		9999	5640	0	0	0
2019/05/14 07:17:02	BASE	15.03	224	18.11	227	-0.9	90	-2.4	0	0	966.7	NA	0.0000		9999	5710	0	0	0
2019/05/14 07:18:01	BASE	15.25	223	17.85	210	-0.9	90	-2.3	0	0	966.7	NA	0.0000		9999	5770	0	0	0
2019/05/14 07:19:02	BASE	15.10	219	17.49	216	-0.9	91	-2.2	0	0	966.7	NA	0.0000		9999	5840	0	0	0
2019/05/14 07:20:01	BASE	13.77	219	17.49	216	-0.9	91	-2.2	0	0	966.7	NA	0.0000		9999	5120	0	0	0
2019/05/14 07:21:01	BASE	13.43	219	17.49	216	-0.9	92	-2.1	0	0	966.7	NA	0.0000		9999	6920	0	0	0
2019/05/14 07:22:02	BASE	13.80	220	17.18	222	-0.9	92	-2.0	0	0	966.8	NA	0.0000		9999	5840	0	0	0
2019/05/14 07:23:01	BASE	13.77	221	16.31	218	-0.9	93	-1.9	0	0	966.8	NA	0.0000		9999	5970	0	0	0
2019/05/14 07:24:01	BASE	14.40	220	16.00	226	-0.9	93	-1.9	0	0	966.8	NA	0.0000		9999	5710	0	0	0
2019/05/14 07:25:02	BASE	14.53	220	16.00	216	-0.9	94	-1.8	0	0	966.8	NA	0.0000		9999	6000	0	0	0
2019/05/14 07:26:01	BASE	14.90	219	16.57	218	-1.0	94	-1.8	0	0	966.8	NA	0.0000		9999	5870	0	0	0
2019/05/14 07:27:02	BASE	15.79	218	17.70	218	-1.0	94	-1.8	0	0	966.8	NA	0.0000		9999	5870	0	0	0
2019/05/14 07:28:01	BASE	15.88	218	17.70	218	-1.0	94	-1.8	0	0	966.9	NA	0.0000		9999	5810	0	0	0
2019/05/14 07:29:02	BASE	14.66	218	17.70	218	-1.0	95	-1.8	0	0	966.9	NA	0.0000		9999	7190	0	0	0
2019/05/14 07:30:02	BASE	14.38	219	17.70	218	-1.0	95	-1.8	0	0	966.9	NA	0.0000		9999	6920	0	0	0
2019/05/14 07:31:01	BASE	15.91	221	18.67	220	-1.0	95	-1.7	0	0	966.9	NA	0.0000		9999	6890	0	0	0
2019/05/14 07:32:02	BASE	16.54	220	18.67	220	-1.0	95	-1.7	0	0	966.9	NA	0.0000		9999	6790	0	0	0
2019/05/14 07:33:02	BASE	16.13	221	18.67	220	-1.0	95	-1.7	0	0	966.9	NA	0.0000		9999	6820	0	0	0
2019/05/14 07:34:02	BASE	15.86	224	18.67	220	-1.0	95	-1.7	0	0	966.9	NA	0.0000		9999	6990	0	0	0
2019/05/14 07:35:02	BASE	14.97	224	18.67	220	-1.0	95	-1.7	0	0	967.0	NA	0.0000		9999	7250	0	0	0
2019/05/14 07:36:02	BASE	14.57	225	18.67	220	-1.0	95	-1.7	0	0	967.0	NA	0.0000		9999	7480	0	0	0
2019/05/14 07:37:02	BASE	14.45	223	18.67	220	-1.0	95	-1.6	0	0	967.0	NA	0.0000		9999	7380	0	0	0
2019/05/14 07:38:02	BASE	13.44	222	18.67	220	-0.9	95	-1.6	0	0	967.1	NA	0.0000		9999	7610	0	0	0
2019/05/14 07:39:02	BASE	14.51	223	18.67	220	-0.9	96	-1.5	0	0	967.0	NA	0.0000		9999	7680	0	0	0
2019/05/14 07:40:02	BASE	16.73	223	18.67	220	-0.9	96	-1.5	0	0	967.1	NA	0.0000		9999	7640	0	0	0
2019/05/14 07:41:02	BASE	17.28	221	18.42	221	-1.0	96	-1.5	0	0	967.1	NA	0.0000		9999	7640	0	0	0
2019/05/14 07:42:02	BASE	16.13	220	18.42	221	-1.0	96	-1.5	0	0	967.1	NA	0.0000		9999	7350	0	0	0
2019/05/14 07:43:02	BASE	14.64	223	18.42	221	-1.0	97	-1.5	0	0	967.2	NA	0.0000		9999	7190	0	0	0
2019/05/14 07:44:02	BASE	15.43	224	18.42	221	-1.0	97	-1.5	0	0	967.1	NA	0.0000		9999	7190	0	0	0
2019/05/14 07:45:02	BASE	16.69	225	18.88	225	-1.0	97	-1.4	0	0	967.2	NA	0.0000		9999	7610	0	0	0
2019/05/14 07:46:02	BASE	17.08	227	18.88	225	-1.0	97	-1.4	0	0	967.2	NA	0.0000		9999	7940	0	0	0
2019/05/14 07:47:04	BASE	17.70	227	18.88	225	-1.0	97	-1.4	0	0	967.2	NA	0.0000		9999	7970	0	0	0
2019/05/14 07:48:01	BASE	18.23	228	19.55	223	-1.0	97	-1.5	0	0	967.2	NA	0.0000		9999	8330	0	0	0
2019/05/14 07:49:02	BASE	17.73	227	19.55	223	-1.1	97	-1.5	0	0	967.2	NA	0.0000		9999	8730	0	0	0
2019/05/14 07:50:02	BASE	16.18	225	19.55	223	-1.1	97	-1.5	0	0	967.3	NA	0.0000		9999	8860	0	0	0
2019/05/14 07:51:01	BASE	15.28	225	19.55	223	-1.1	97	-1.5	0	0	967.3	NA	0.0000		9999	7610	0	0	0
2019/05/14 07:52:02	BASE	14.48	225	19.55	223	-1.1	97	-1.5	0	0	967.3	NA	0.0000		9999	7680	0	0	0
2019/05/14 07:53:02	BASE	15.01	224	19.55	223	-1.0	97	-1.5	0	0	967.3	NA	0.0000		9999	7740	0	0	0
2019/05/14 07:54:02	BASE	15.55	224	19.55	223	-1.0	97	-1.4	0	0	967.3	NA	0.0000		9999	4790	0	0	0
2019/05/14 07:55:02	BASE	14.74	225	19.55	223	-1.0	97	-1.4	0	0	967.4	NA	0.0000		9999	1740	0	0	0
2019/05/14 07:56:01	BASE	16.37	229	19.55	229	-1.0	98	-1.3	0	0	967.3	NA	0.0000		9999	1840	6460	7610	0
2019/05/14 07:57:02	BASE	16.75	231	19.55	229	-1.0	98	-1.3	0	0	967.4	NA	0.0000		9999	6370	0	0	0
2019/05/14 07:58:02	BASE	15.19	232	19.55	229	-1.0	98	-1.3	0	0	967.4	NA	0.0000		9999	1670	7320	0	0
2019/05/14 07:59:02	BASE	15.87	230	19.55	229	-1.0	98	-1.3	0	0	967.4	NA	0.0000		9999	6230	0	0	0
2019/05/14 08:00:02	BASE	16.98	225	19.55	229	-1.1	98	-1.3	0	0	967.4	NA	0.0000		9999	6660	7810	0	0
2019/05/14 08:01:01	BASE	17.76	224	19.55	229	-1.1	98	-1.4	0	0	967.4	NA	0.0000		9999	8430	0	0	0
2019/05/14 08:02:02	BASE	18.09	226	19.65	227	-1.1	98	-1.4	0	0	967.4	NA	0.0000		9999	8400	0	0	0
2019/05/14 08:03:01	BASE	17.46	225	19.65	227	-1.1	98	-1.4	0	0	967.5	NA	0.0000		9999	6590	0	0	0
2019/05/14 08:04:02	BASE	17.06	225	19.65	227	-1.1	98	-1.4	0	0	967.5	NA	0.0000		9999	6630	0	0	0
2019/05/14 08:05:03	BASE	16.89	224	19.65	227	-1.1	98	-1.4	0	0	967.5	NA	0.0000		9999	6630	0	0	0
2019/05/14 08:06:02	BASE	16.81	222	19.65	227	-1.1	98	-1.4	0	0	967.6	NA	0.0000		9999	6630	0	0	0
2019/05/14 08:07:01	BASE	15.69	221	19.65	227	-1.1	98	-1.4	0	0	967.6	NA	0.0000		9999	6170	0	0	0
2019/05/14 08:08:01	BASE	14.74	224	19.65	227	-1.1	98	-1.4	0	0	967.7	NA	0.0000		9999	6920	0	0	0
2019/05/14 08:09:01	BASE	15.74	228	19.65	227	-1.1	98	-1.3	0	0	967.7	NA	0.0000		9999	1800	6990	0	0
2019/05/14 08:10:02	BASE	16.31	227	19.65	227	-1.1	98	-1.3	0	0	967.7	NA	0.0000		9999	1840	6990	0	0
2019/05/14 08:11:01	BASE	16.81	225	19.65	227	-1.1	98	-1.3	0	0	967.7	NA	0.0000		9999	6560	0	0	0
2019/05/14 08:12:02	BASE	18.08	225	20.01	225	-1.1	98	-1.3	0	0	967.7	NA	0.0000		9999	6730	0	0	0
2019/05/14 08:13:02	BASE	18.13	222	20.01	225	-1.1	98	-1.4	0	0	967.7	NA	0.0000		9999	6920	0	0	0
2019/05/14 08:14:02	BASE	16.53	221	20.01	225	-1.1	98	-1.4	0	0	967.7	NA	0.0000		9999	1800	6960	0	0
2019/05/14 08:15:03	BASE	15.72	225	20.01	225	-1.1	98	-1.4	0	0	967.7	NA	0.0000		9999	1710	6960	0	0
2019/05/14 08:16:02	BASE	16.91	229	20.01	225	-1.1	98	-1.4	0	0	967.7	NA	0.0000		9999	1670	6690	0	0
2019/05/14 08:17:02	BASE	17.89	230	20.01	225	-1.1	98	-1.4	0	0	967.7	NA	0.0000		9999	1610	0	0	0
2019/05/14 08:18:01	BASE	17.14	229	20.01	225	-1.1	98	-1.4	0	0	967.8	NA	0.0000		9999	1710	6860	0	0
2019/05/14 08:19:02	BASE	17.15	230	20.01	225	-1.1	98	-1.4	0	0	967.8	NA	0.0000		9999	1670	6820	0	0
2019/05/14 08:20:02	BASE	17.49	231	20.01	225	-1.1	98	-1.4	0	0	967.8	NA	0.0000		9999	1610	6920	0	0
2019/05/14 08:21:02	BASE	17.41	232	20.01	225	-1.1	98	-1.4	0	0	967.8	NA	0.0000		9999	1770	6960	0	0
2019/05/14 08:22:02	BASE	17.04	230	19.70	231	-1.1	98	-1.4	0	0	967.8	NA	0.0000		9999	6990	0	0	0
2019/05/14 08:23:02	BASE	16.29	226	19.70	231	-1.1	98	-1.4	0	0	967.9	NA	0.0000		9999	7020	0	0	0
2019/05/14 08:24:02	BASE	16.89	227	19.70	231	-1.1	98	-1.4	0	0	967.9	NA	0.0000		9999	7120	0	0	0
2019/05/14 08:25:02	BASE	17.38	228	19.70	231	-1.1	98	-1.4	0	0	967.9	NA	0.0000		9999	7280	0	0	0
2019/05/14 08:26:02	BASE	17.35	228	19.70	231	-1.1	98	-1.4	0	0	967.9	NA	0.0000		9999	1610	0	0	0
2019/05/14 08:27:02	BASE	17.91	229	20.11	227	-1.1	98	-1.4	0	0	967.9	NA	0.0000		9999	1710	7450	0	0
2019/05/14 08:28:02	BASE	18.31	230	20.37	232	-1.1	98	-1.4	0	0	967.9	NA	0.0000		9999	1640	0	0	0
2019/05/14 08:29:02	BASE	17.11	231	20.37	232	-1.1	98	-1.4	0	0	968.0	NA	0.0000		9999	1710	7550	0	0
2019/05/14 08:30:03	BASE	16.13	229	20.37	232	-1.1	98	-1.4	0	0	968.0	NA	0.0000		9999	1670	7710	0	0
2019/05/14 08:31:02	BASE	17.25	230	20.37	232	-1.1	98	-1.4	0	0	968.0	NA	0.0000		9999	1710	7640	0	0
2019/05/14 08:32:02	BASE	18.98	231	22.48	232	-1.1	98	-1.4	0	0	967.9	NA	0.0000		9999	1870	7640	0	0
2019/05/14 08:33:02	BASE	19.51	233	22.48	232	-1.2	98	-1.4	0	0	968.0	NA	0.0000		9999	1670	0	0	0
2019/05/14 08:34:02	BASE	18.60	231	22.48	232	-1.2	98	-1.4	0	0	968.0	NA	0.0000		9999	1770	0	0	0
2019/05/14 08:35:02	BASE	17.64	227	22.48	232	-1.2	98	-1.5	0	0	968.1	NA	0.0000		9999	1670	0	0	0
2019/05/14 08:36:02	BASE	16.58	227	22.48	232	-1.2	98	-1.5	0	0	968.1	NA	0.0000		9999	1670	0	0	0
2019/05/14 08:37:02	BASE	16.32	227	22.48	232	-1.2	98	-1.4	0	0	968.1	NA	0.0000		9999	1710	0	0	0
2019/05/14 08:38:02	BASE	17.08	225	22.48	232	-1.1	98	-1.4	0	0	968.1	NA	0.0000		9999	1670	7940	0	0
2019/05/14 08:39:02	BASE	17.60	226	22.48	232	-1.1	98	-1.4	0	0	968.2	NA	0.0000		9999	1710	7940	0	0
2019/05/14 08:40:01	BASE	18.42	229	22.48	232	-1.1	98	-1.3	0	0	968.2	NA	0.0000		9999	1740	7940	0	0
2019/05/14 08:41:02	BASE	18.69	227	22.48	232	-1.1	99	-1.3	0	0	968.2	NA	0.0000		9999	1710	7970	0	0
2019/05/14 08:42:02	BASE	18.62	223	21.71	228	-1.1	99	-1.3	0	0	968.2	NA	0.0000		9999	7910	0	0	0
2019/05/14 08:43:01	BASE	18.93	220	21.14	221	-1.2	99	-1.3	0	0	968.3	NA	0.0000		9999	1480	7970	0	0
2019/05/14 08:44:02	BASE	17.77	219	21.14	221	-1.2	99	-1.3	0	0	968.4	NA	0.0000		9999	1570	7970	0	0
2019/05/14 08:45:02	BASE	17.38	221	21.14	221	-1.2	99	-1.3	0	0	968.4	NA	0.0000		9999	1540	8040	0	0
2019/05/14 08:46:03	BASE	17.74	225	21.14	221	-1.2	99	-1.3	0	0	968.4	NA	0.0000		9999	8040	0	0	0
2019/05/14 08:47:02	BASE	16.80	224	21.14	221	-1.2	99	-1.3	0	0	968.5	NA	0.0000		9999	1510	0	0	0
2019/05/14 08:48:02	BASE	15.38	223	21.14	221	-1.2	99	-1.3	0	0	968.5	NA	0.0000		9999	1570	8170	0	0
2019/05/14 08:49:02	BASE	14.81	225	21.14	221	-1.1	99	-1.3	0	0	968.6	NA	0.0000		9999	1540	8200	0	0
2019/05/14 08:50:02	BASE	16.63	226	21.14	221	-1.1	99	-1.3	0	0	968.5	NA	0.0000		9999	1510	0	0	0
2019/05/14 08:51:02	BASE	17.29	227	21.14	221	-1.1	99	-1.2	0	0	968.6	NA	0.0000		9999	1480	0	0	0
2019/05/14 08:52:02	BASE	15.90	226	21.14	221	-1.1	99	-1.2	0	0	968.6	NA	0.0000		9999	1440	0	0	0
2019/05/14 08:53:02	BASE	15.83	221	19.70	231	-1.1	100	-1.1	0	0	968.6	NA	0.0000		9999	1610	0	0	0
2019/05/14 08:54:02	BASE	16.71	220	19.70	231	-1.1	100	-1.1	0	0	968.6	NA	0.0000		9999	9350	0	0	0
2019/05/14 08:55:02	BASE	15.79	225	19.65	222	-1.1	100	-1.1	0	0	968.6	NA	0.0000		9999	9220	0	0	0
2019/05/14 08:56:01	BASE	14.57	226	19.65	222	-1.1	100	-1.1	0	0	968.7	NA	0.0000		9999	9120	0	0	0
2019/05/14 08:57:02	BASE	15.59	221	19.65	222	-1.1	100	-1.1	0	0	968.6	NA	0.0000		9999	1800	0	0	0
2019/05/14 08:58:03	BASE	17.08	220	19.91	226	-1.1	100	-1.1	0	0	968.7	NA	0.0000		9999	1440	0	0	0
2019/05/14 08:59:02	BASE	17.79	224	19.91	226	-1.1	100	-1.1	0	0	968.7	NA	0.0000		9999	1480	0	0	0
2019/05/14 09:00:02	BASE	17.72	227	19.91	226	-1.2	100	-1.2	0	0	968.7	NA	0.0000		9999	2030	0	0	0
2019/05/14 09:01:02	BASE	16.31	229	19.91	226	-1.2	100	-1.2	0	0	968.7	NA	0.0000		9999	1480	0	0	0
2019/05/14 09:02:02	BASE	13.93	232	19.91	226	-1.1	100	-1.1	0	0	968.8	NA	0.0000		9999	1440	0	0	0
2019/05/14 09:03:02	BASE	15.23	235	19.91	226	-1.2	100	-1.2	0	0	968.7	NA	0.0000		9999	1410	2030	0	0
2019/05/14 09:04:02	BASE	18.19	230	19.91	226	-1.2	100	-1.2	0	0	968.7	NA	0.0000		9999	1540	0	0	0
2019/05/14 09:05:02	BASE	18.20	226	19.91	226	-1.1	100	-1.1	0	0	968.8	NA	0.0000		9999	1480	0	0	0
2019/05/14 09:06:02	BASE	18.56	224	20.32	230	-1.1	100	-1.1	0	0	968.7	NA	0.0000		9999	1510	0	0	0
2019/05/14 09:07:03	BASE	18.37	225	20.32	230	-1.2	100	-1.2	0	0	968.8	NA	0.0000		9999	1670	0	0	0
2019/05/14 09:08:02	BASE	18.28	229	20.68	232	-1.2	100	-1.2	0	0	968.7	NA	0.0000		9999	1670	0	0	0
2019/05/14 09:09:02	BASE	18.93	231	20.68	232	-1.2	100	-1.2	0	0	968.8	NA	0.0000		9999	1610	0	0	0
2019/05/14 09:10:02	BASE	18.89	228	22.48	221	-1.2	100	-1.2	0	0	968.8	NA	0.0000		9999	1570	0	0	0
2019/05/14 09:11:02	BASE	18.56	222	22.48	221	-1.2	100	-1.2	0	0	968.8	NA	0.0000		9999	9780	0	0	0
2019/05/14 09:12:02	BASE	18.59	222	22.48	221	-1.2	100	-1.2	0	0	968.9	NA	0.0000		9999	10660	0	0	0
2019/05/14 09:13:02	BASE	18.48	226	22.48	221	-1.2	100	-1.2	0	0	968.8	NA	0.0000		9999	2000	0	0	0
2019/05/14 09:14:02	BASE	17.75	229	22.48	221	-1.2	100	-1.2	0	0	968.9	NA	0.0000		9999	10630	0	0	0
2019/05/14 09:15:02	BASE	17.18	230	22.48	221	-1.2	100	-1.2	0	0	968.9	NA	0.0000		9999	2070	0	0	0
2019/05/14 09:16:02	BASE	17.46	230	22.48	221	-1.2	100	-1.2	0	0	968.9	NA	0.0000		9999	10600	0	0	0
2019/05/14 09:17:01	BASE	17.65	228	22.48	221	-1.2	100	-1.2	0	0	969.0	NA	0.0000		9999	9150	0	0	0
2019/05/14 09:18:02	BASE	18.01	228	22.48	221	-1.2	100	-1.2	0	0	969.0	NA	0.0000		9999	1510	0	0	0
2019/05/14 09:19:01	BASE	18.66	227	22.48	221	-1.2	100	-1.2	0	0	969.0	NA	0.0000		9999	1540	0	0	0
2019/05/14 09:20:01	BASE	18.82	225	21.76	224	-1.2	100	-1.2	0	0	969.0	NA	0.0000		9999	2100	0	0	0
2019/05/14 09:21:02	BASE	19.44	224	21.76	224	-1.2	100	-1.2	0	0	969.0	NA	0.0000		9999	1900	0	0	0
2019/05/14 09:22:01	BASE	17.21	222	21.76	224	-1.2	100	-1.2	0	0	969.1	NA	0.0000		9999	10200	0	0	0
2019/05/14 09:23:02	BASE	16.19	219	21.76	224	-1.2	100	-1.2	0	0	969.1	NA	0.0000		9999	10370	0	0	0
2019/05/14 09:24:01	BASE	16.63	217	21.76	224	-1.3	100	-1.3	0	0	969.1	NA	0.0000		9999	10760	0	0	0
2019/05/14 09:25:02	BASE	16.30	216	21.76	224	-1.3	100	-1.3	0	0	969.1	NA	0.0000		9999	1900	0	0	0
2019/05/14 09:26:02	BASE	15.41	222	21.76	224	-1.3	100	-1.3	0	0	969.2	NA	0.0000		9999	10270	0	0	0
2019/05/14 09:27:02	BASE	13.66	223	21.76	224	-1.3	100	-1.3	0	0	969.2	NA	0.0000		9999	1770	0	0	0
2019/05/14 09:28:02	BASE	13.96	222	21.20	221	-1.2	100	-1.2	0	0	969.2	NA	0.0000		9999	1540	0	0	0
2019/05/14 09:29:02	BASE	15.08	227	21.20	221	-1.2	100	-1.2	0	0	969.2	NA	0.0000		9999	1310	0	0	0
2019/05/14 09:30:02	BASE	16.34	228	21.20	221	-1.1	100	-1.1	0	0	969.2	NA	0.0000		9999	1250	0	0	0
2019/05/14 09:31:02	BASE	16.71	227	19.60	218	-1.1	100	-1.1	0	0	969.2	NA	0.0000		9999	1210	0	0	0
2019/05/14 09:32:03	BASE	15.70	233	19.60	218	-1.1	100	-1.1	0	0	969.3	NA	0.0000		9999	1180	0	0	0
2019/05/14 09:33:02	BASE	14.65	237	17.90	218	-1.1	100	-1.1	0	0	969.3	NA	0.0000		9999	1280	0	0	0
2019/05/14 09:34:02	BASE	15.78	235	20.78	233	-1.1	100	-1.1	0	0	969.3	NA	0.0000		9999	1310	0	0	0
2019/05/14 09:35:02	BASE	16.49	234	20.78	233	-1.2	100	-1.2	0	0	969.3	NA	0.0000		9999	1710	0	0	0
2019/05/14 09:36:02	BASE	15.88	233	20.78	233	-1.2	100	-1.2	0	0	969.3	NA	0.0000		9999	1770	0	0	0
2019/05/14 09:37:02	BASE	15.77	237	20.78	233	-1.3	100	-1.3	0	0	969.4	NA	0.0000		9999	1440	0	0	0
2019/05/14 09:38:02	BASE	15.06	240	20.78	233	-1.3	100	-1.3	0	0	969.5	NA	0.0000		9999	1380	0	0	0
2019/05/14 09:39:02	BASE	15.38	240	20.78	233	-1.4	100	-1.4	0	0	969.5	NA	0.0000		9999	1410	0	0	0
2019/05/14 09:40:02	BASE	15.19	243	20.78	233	-1.4	100	-1.4	0	0	969.6	NA	0.0000		9999	1540	0	0	0
2019/05/14 09:41:01	BASE	15.06	242	20.78	233	-1.4	100	-1.4	0	0	969.6	NA	0.0000		9999	1350	0	0	0
2019/05/14 09:42:02	BASE	15.29	237	20.78	233	-1.4	100	-1.4	0	0	969.6	NA	0.0000		9999	1350	0	0	0
2019/05/14 09:43:02	BASE	13.67	234	20.78	233	-1.4	100	-1.4	0	0	969.7	NA	0.0000		9999	1800	0	0	0
2019/05/14 09:44:02	BASE	13.45	233	19.39	242	-1.4	100	-1.4	0	0	969.7	NA	0.0000		9999	1510	0	0	0
2019/05/14 09:45:02	BASE	14.73	232	18.57	233	-1.4	100	-1.4	0	0	969.8	NA	0.0000		9999	1440	0	0	0
2019/05/14 09:46:01	BASE	15.08	236	18.57	233	-1.4	100	-1.4	0	0	969.8	NA	0.0000		9999	1480	0	0	0
2019/05/14 09:47:02	BASE	15.37	236	18.83	234	-1.5	100	-1.5	0	0	969.8	NA	0.0000		9999	1410	0	0	0
2019/05/14 09:48:02	BASE	15.18	234	18.83	234	-1.5	100	-1.5	0	0	969.8	NA	0.0000		9999	1440	0	0	0
2019/05/14 09:49:02	BASE	15.12	236	19.34	235	-1.5	100	-1.5	0	0	969.8	NA	0.0000		9999	1380	0	0	0
2019/05/14 09:50:02	BASE	16.04	233	19.34	235	-1.5	100	-1.5	0	0	969.8	NA	0.0000		9999	1380	0	0	0
2019/05/14 09:51:02	BASE	15.76	228	19.34	235	-1.6	100	-1.6	0	0	969.9	NA	0.0000		9999	1410	0	0	0
2019/05/14 09:52:02	BASE	14.70	228	19.34	235	-1.6	100	-1.6	0	0	969.9	NA	0.0000		9999	1640	0	0	0
2019/05/14 09:53:02	BASE	14.17	232	19.34	235	-1.6	100	-1.6	0	0	969.9	NA	0.0000		9999	1380	0	0	0
2019/05/14 09:54:02	BASE	13.93	236	19.34	235	-1.6	100	-1.6	0	0	969.9	NA	0.0000		9999	1570	0	0	0
2019/05/14 09:55:02	BASE	13.25	234	19.34	235	-1.6	100	-1.6	0	0	969.9	NA	0.0000		9999	1380	0	0	0
2019/05/14 09:56:02	BASE	14.58	228	19.34	235	-1.6	100	-1.6	0	0	970.0	NA	0.0000		9999	1310	0	0	0
2019/05/14 09:57:01	BASE	16.54	227	19.34	235	-1.6	100	-1.6	0	0	970.0	NA	0.0000		9999	1440	0	0	0
2019/05/14 09:58:02	BASE	16.06	228	19.34	235	-1.6	100	-1.6	0	0	970.1	NA	0.0000		9999	1510	0	0	0
2019/05/14 09:59:02	BASE	15.48	230	19.45	235	-1.6	100	-1.6	0	0	970.1	NA	0.0000		9999	1380	0	0	0
2019/05/14 10:00:01	BASE	16.42	234	19.60	243	-1.6	100	-1.6	0	0	970.1	NA	0.0000		9999	1440	0	0	0
2019/05/14 10:01:02	BASE	17.03	236	19.60	243	-1.6	100	-1.6	0	0	970.1	NA	0.0000		9999	1410	0	0	0
2019/05/14 10:02:02	BASE	15.95	234	19.60	243	-1.6	100	-1.6	0	0	970.1	NA	0.0000		9999	1410	0	0	0
2019/05/14 10:03:02	BASE	16.09	233	19.60	243	-1.6	100	-1.6	0	0	970.1	NA	0.0000		9999	1210	0	0	0
2019/05/14 10:04:02	BASE	16.34	236	19.60	243	-1.6	100	-1.6	0	0	970.2	NA	0.0000		9999	1310	0	0	0
2019/05/14 10:05:03	BASE	16.32	233	20.68	227	-1.6	100	-1.6	0	0	970.2	NA	0.0000		9999	1350	0	0	0
2019/05/14 10:06:02	BASE	18.42	230	21.71	228	-1.7	100	-1.7	0	0	970.2	NA	0.0000		9999	1480	0	0	0
2019/05/14 10:07:02	BASE	18.79	229	21.71	228	-1.7	100	-1.7	0	0	970.2	NA	0.0000		9999	1380	0	0	0
2019/05/14 10:08:02	BASE	18.60	228	21.71	228	-1.8	100	-1.8	0	0	970.2	NA	0.0000		9999	1800	0	0	0
2019/05/14 10:09:02	BASE	18.71	230	21.71	228	-1.8	100	-1.8	0	0	970.3	NA	0.0000		9999	1900	0	0	0
2019/05/14 10:10:02	BASE	17.51	230	21.71	228	-1.8	100	-1.8	0	0	970.3	NA	0.0000		9999	1840	0	0	0
2019/05/14 10:11:02	BASE	17.51	228	21.71	228	-1.8	100	-1.8	0	0	970.3	NA	0.0000		9999	1710	0	0	0
2019/05/14 10:12:02	BASE	18.43	227	21.71	228	-1.8	100	-1.8	0	0	970.4	NA	0.0000		9999	1610	0	0	0
2019/05/14 10:13:02	BASE	18.53	224	21.71	228	-1.8	100	-1.8	0	0	970.4	NA	0.0000		9999	1710	0	0	0
2019/05/14 10:14:02	BASE	18.15	221	21.71	228	-1.8	100	-1.8	0	0	970.3	NA	0.0000		9999	1540	0	0	0
2019/05/14 10:15:02	BASE	18.21	220	21.71	228	-1.8	100	-1.8	0	0	970.4	NA	0.0000		9999	1800	0	0	0
2019/05/14 10:16:02	BASE	18.49	219	21.45	222	-1.8	100	-1.8	0	0	970.4	NA	0.0000		9999	1970	0	0	0
2019/05/14 10:17:01	BASE	18.66	217	21.45	222	-1.8	100	-1.8	0	0	970.3	NA	0.0000		9999	1970	0	0	0
2019/05/14 10:18:01	BASE	18.63	217	21.45	222	-1.8	100	-1.8	0	0	970.4	NA	0.0000		9999	1540	0	0	0
2019/05/14 10:19:02	BASE	17.72	218	21.45	222	-1.8	100	-1.8	0	0	970.4	NA	0.0000		9999	1510	0	0	0
2019/05/14 10:20:02	BASE	17.21	219	21.45	222	-1.8	100	-1.8	0	0	970.4	NA	0.0000		9999	1640	0	0	0
2019/05/14 10:21:02	BASE	17.87	221	21.45	222	-1.8	100	-1.8	0	0	970.4	NA	0.0000		9999	1570	2330	0	0
2019/05/14 10:22:02	BASE	17.10	222	21.35	220	-1.8	100	-1.8	0	0	970.5	NA	0.0000		9999	1610	0	0	0
2019/05/14 10:23:02	BASE	15.95	222	21.35	220	-1.8	100	-1.8	0	0	970.5	NA	0.0000		9999	1510	0	0	0
2019/05/14 10:24:02	BASE	15.61	219	20.83	219	-1.7	100	-1.7	0	0	970.6	NA	0.0000		9999	1570	0	0	0
2019/05/14 10:25:02	BASE	15.10	219	20.63	216	-1.7	100	-1.7	0	0	970.6	NA	0.0000		9999	1480	2030	0	0
2019/05/14 10:26:01	BASE	15.04	220	20.63	216	-1.7	100	-1.7	0	0	970.6	NA	0.0000		9999	1440	0	0	0
2019/05/14 10:27:02	BASE	14.56	220	20.63	216	-1.7	100	-1.7	0	0	970.7	NA	0.0000		9999	1380	1900	0	0
2019/05/14 10:28:02	BASE	14.17	223	19.45	220	-1.6	100	-1.6	0	0	970.7	NA	0.0000		9999	1350	0	0	0
2019/05/14 10:29:01	BASE	14.12	227	19.45	220	-1.6	100	-1.6	0	0	970.7	NA	0.0000		9999	1310	0	0	0
2019/05/14 10:30:02	BASE	12.15	233	19.45	220	-1.6	100	-1.6	0	0	970.8	NA	0.0000		9999	1180	0	0	0
2019/05/14 10:31:01	BASE	12.22	238	17.85	223	-1.6	100	-1.6	0	0	970.8	NA	0.0000		9999	1180	0	0	0
2019/05/14 10:32:02	BASE	13.33	238	17.18	215	-1.6	100	-1.6	0	0	970.8	NA	0.0000		9999	1180	0	0	0
2019/05/14 10:33:02	BASE	11.76	242	17.18	215	-1.6	100	-1.6	0	0	970.9	NA	0.0000		9999	1210	0	0	0
2019/05/14 10:34:02	BASE	12.51	246	16.77	227	-1.6	100	-1.6	0	0	970.9	NA	0.0000		9999	1210	0	0	0
2019/05/14 10:35:01	BASE	14.65	248	16.77	227	-1.6	100	-1.6	0	0	970.9	NA	0.0000		9999	1280	0	0	0
2019/05/14 10:36:02	BASE	14.84	248	16.77	227	-1.7	100	-1.7	0	0	970.9	NA	0.0000		9999	1250	0	0	0
2019/05/14 10:37:02	BASE	13.41	241	16.77	227	-1.7	100	-1.7	0	0	970.9	NA	0.0000		9999	1350	0	0	0
2019/05/14 10:38:02	BASE	12.54	238	16.41	228	-1.7	100	-1.7	0	0	970.9	NA	0.0000		9999	1350	1800	0	0
2019/05/14 10:39:01	BASE	14.18	241	18.57	248	-1.7	100	-1.7	0	0	970.9	NA	0.0000		9999	1480	0	0	0
2019/05/14 10:40:02	BASE	15.50	239	19.45	230	-1.7	100	-1.7	0	0	970.9	NA	0.0000		9999	1480	0	0	0
2019/05/14 10:41:02	BASE	14.35	236	19.45	230	-1.7	100	-1.7	0	0	971.0	NA	0.0000		9999	1540	0	0	0
2019/05/14 10:42:02	BASE	13.50	240	19.45	230	-1.7	100	-1.7	0	0	971.0	NA	0.0000		9999	1250	1870	0	0
2019/05/14 10:43:02	BASE	13.76	246	19.45	230	-1.7	100	-1.7	0	0	971.1	NA	0.0000		9999	1150	0	0	0
2019/05/14 10:44:02	BASE	13.38	250	19.45	230	-1.8	100	-1.8	0	0	971.0	NA	0.0000		9999	1120	2130	0	0
2019/05/14 10:45:02	BASE	13.08	243	19.45	230	-1.8	100	-1.8	0	0	971.1	NA	0.0000		9999	1380	0	0	0
2019/05/14 10:46:02	BASE	12.86	241	19.45	230	-1.8	100	-1.8	0	0	971.1	NA	0.0000		9999	1710	0	0	0
2019/05/14 10:47:02	BASE	13.50	248	19.45	230	-1.8	100	-1.8	0	0	971.1	NA	0.0000		9999	1280	0	0	0
2019/05/14 10:48:02	BASE	14.14	249	19.45	230	-1.8	100	-1.8	0	0	971.1	NA	0.0000		9999	1180	0	0	0
2019/05/14 10:49:01	BASE	14.06	249	19.45	230	-1.9	100	-1.9	0	0	971.2	NA	0.0000		9999	1280	0	0	0
2019/05/14 10:50:02	BASE	13.73	249	16.72	242	-1.9	100	-1.9	0	0	971.2	NA	0.0000		9999	1350	0	0	0
2019/05/14 10:51:02	BASE	13.99	248	16.72	242	-1.9	100	-1.9	0	0	971.2	NA	0.0000		9999	1510	0	0	0
2019/05/14 10:52:01	BASE	15.57	249	18.57	245	-1.9	100	-1.9	0	0	971.2	NA	0.0000		9999	1250	0	0	0
2019/05/14 10:53:01	BASE	16.09	250	18.57	245	-1.9	100	-1.9	0	0	971.2	NA	0.0000		9999	1440	2330	0	0
2019/05/14 10:54:02	BASE	15.87	249	18.57	245	-1.9	100	-1.9	0	0	971.3	NA	0.0000		9999	1480	0	0	0
2019/05/14 10:55:02	BASE	14.84	248	18.57	245	-2.0	100	-2.0	0	0	971.3	NA	0.0000		9999	1210	0	0	0
2019/05/14 10:56:02	BASE	14.30	248	18.57	245	-2.0	100	-2.0	0	0	971.4	NA	0.0000		9999	1150	0	0	0
2019/05/14 10:57:02	BASE	14.05	249	18.57	245	-2.0	100	-2.0	0	0	971.4	NA	0.0000		9999	1280	0	0	0
2019/05/14 10:58:02	BASE	12.95	250	18.57	245	-2.0	100	-2.0	0	0	971.4	NA	0.0000		9999	1250	1900	0	0
2019/05/14 10:59:02	BASE	12.43	247	18.57	245	-2.0	100	-2.0	0	0	971.5	NA	0.0000		9999	1770	0	0	0
2019/05/14 11:00:02	BASE	12.70	248	18.57	245	-1.9	100	-1.9	0	0	971.5	NA	0.0000		9999	1250	1940	0	0
2019/05/14 11:01:01	BASE	13.76	247	18.57	245	-1.9	100	-1.9	0	0	971.5	NA	0.0000		9999	1870	0	0	0
2019/05/14 11:02:01	BASE	14.33	243	17.85	242	-1.9	100	-1.9	0	0	971.5	NA	0.0000		9999	1480	0	0	0
2019/05/14 11:03:01	BASE	14.35	242	17.85	242	-2.0	100	-2.0	0	0	971.5	NA	0.0000		9999	1570	0	0	0
2019/05/14 11:04:01	BASE	13.75	245	17.18	247	-2.0	100	-2.0	0	0	971.6	NA	0.0000		9999	1570	0	0	0
2019/05/14 11:05:03	BASE	12.91	248	17.18	247	-2.0	100	-2.0	0	0	971.6	NA	0.0000		9999	1540	0	0	0
2019/05/14 11:06:02	BASE	14.76	248	17.95	254	-2.0	100	-2.0	0	0	971.5	NA	0.0000		9999	1180	0	0	0
2019/05/14 11:07:02	BASE	15.94	248	17.95	254	-2.0	100	-2.0	0	0	971.6	NA	0.0000		9999	1870	0	0	0
2019/05/14 11:08:02	BASE	14.65	249	17.95	254	-2.1	100	-2.1	0	0	971.6	NA	0.0000		9999	1350	0	0	0
2019/05/14 11:09:02	BASE	14.80	251	17.95	254	-2.1	100	-2.1	0	0	971.6	NA	0.0000		9999	1510	0	0	0
2019/05/14 11:10:03	BASE	14.83	251	17.95	254	-2.1	100	-2.1	0	0	971.7	NA	0.0000		9999	1540	0	0	0
2019/05/14 11:11:02	BASE	14.85	252	17.95	254	-2.1	100	-2.1	0	0	971.7	NA	0.0000		9999	1250	0	0	0
2019/05/14 11:12:02	BASE	15.04	253	17.95	254	-2.2	100	-2.2	0	0	971.7	NA	0.0000		9999	1310	0	0	0
2019/05/14 11:13:02	BASE	14.26	250	17.95	254	-2.1	100	-2.1	0	0	971.7	NA	0.0000		9999	1540	0	0	0
2019/05/14 11:14:02	BASE	14.19	250	17.95	254	-2.1	100	-2.1	0	0	971.8	NA	0.0000		9999	1380	1900	0	0
2019/05/14 11:15:02	BASE	13.73	248	17.95	254	-2.2	100	-2.2	0	0	971.8	NA	0.0000		9999	1840	0	0	0
2019/05/14 11:16:03	BASE	13.29	246	17.29	252	-2.2	100	-2.2	0	0	971.8	NA	0.0000		9999	1940	0	0	0
2019/05/14 11:17:02	BASE	14.23	247	17.29	252	-2.2	100	-2.2	0	0	971.8	NA	0.0000		9999	1310	0	0	0
2019/05/14 11:18:02	BASE	14.51	246	17.29	252	-2.2	100	-2.2	0	0	971.9	NA	0.0000		9999	1380	0	0	0
2019/05/14 11:19:01	BASE	14.75	247	17.54	235	-2.2	100	-2.2	0	0	971.9	NA	0.0000		9999	1570	0	0	0
2019/05/14 11:20:02	BASE	15.10	247	17.54	235	-2.3	100	-2.3	0	0	971.9	NA	0.0000		9999	0	0	0	0
2019/05/14 11:21:02	BASE	14.73	246	17.54	235	-2.3	100	-2.3	0	0	971.9	NA	0.0000		9999	0	0	0	0
2019/05/14 11:22:02	BASE	14.53	249	17.54	235	-2.3	100	-2.3	0	0	972.0	NA	0.0000		9999	1570	0	0	0
2019/05/14 11:23:01	BASE	13.87	252	17.54	235	-2.3	100	-2.3	0	0	972.0	NA	0.0000		9999	1640	0	0	0
2019/05/14 11:24:02	BASE	12.55	244	17.54	235	-2.3	100	-2.3	0	0	972.1	NA	0.0000		9999	1610	0	0	0
2019/05/14 11:25:02	BASE	11.33	238	17.54	235	-2.2	100	-2.2	0	0	972.1	NA	0.0000		9999	1410	0	0	0
2019/05/14 11:26:02	BASE	11.31	244	17.54	235	-2.2	100	-2.2	0	0	972.1	NA	0.0000		9999	1380	0	0	0
2019/05/14 11:27:01	BASE	12.35	246	17.54	235	-2.2	100	-2.2	0	0	972.1	NA	0.0000		9999	1310	1900	0	0
2019/05/14 11:28:01	BASE	14.11	241	17.75	244	-2.2	100	-2.2	0	0	972.1	NA	0.0000		9999	1410	0	0	0
2019/05/14 11:29:02	BASE	14.00	241	17.75	244	-2.2	100	-2.2	0	0	972.1	NA	0.0000		9999	1570	0	0	0
2019/05/14 11:30:02	BASE	13.09	245	17.75	244	-2.2	100	-2.2	0	0	972.2	NA	0.0000		9999	1510	0	0	0
2019/05/14 11:31:02	BASE	12.93	247	17.75	244	-2.2	100	-2.2	0	0	972.2	NA	0.0000		9999	1610	0	0	0
2019/05/14 11:32:02	BASE	12.26	249	17.75	244	-2.3	100	-2.3	0	0	972.2	NA	0.0000		9999	1380	0	0	0
2019/05/14 11:33:02	BASE	12.01	247	17.75	244	-2.3	100	-2.3	0	0	972.3	NA	0.0000		9999	1440	0	0	0
2019/05/14 11:34:02	BASE	11.08	242	17.75	244	-2.3	100	-2.3	0	0	972.3	NA	0.0000		9999	1480	0	0	0
2019/05/14 11:35:01	BASE	11.08	244	17.75	244	-2.3	100	-2.3	0	0	972.3	NA	0.0000		9999	1440	0	0	0
2019/05/14 11:36:01	BASE	12.35	247	17.75	244	-2.2	100	-2.2	0	0	972.3	NA	0.0000		9999	1380	0	0	0
2019/05/14 11:37:02	BASE	13.13	243	17.75	244	-2.2	100	-2.2	0	0	972.3	NA	0.0000		9999	1350	0	0	0
2019/05/14 11:38:02	BASE	12.77	236	16.62	244	-2.2	100	-2.2	0	0	972.3	NA	0.0000		9999	1380	0	0	0
2019/05/14 11:39:01	BASE	11.76	236	16.62	244	-2.2	100	-2.2	0	0	972.3	NA	0.0000		9999	1410	0	0	0
2019/05/14 11:40:01	BASE	12.25	246	15.84	239	-2.3	100	-2.3	0	0	972.3	NA	0.0000		9999	1380	0	0	0
2019/05/14 11:41:02	BASE	13.22	251	15.84	239	-2.3	100	-2.3	0	0	972.4	NA	0.0000		9999	1380	0	0	0
2019/05/14 11:42:02	BASE	13.55	248	16.10	250	-2.3	100	-2.3	0	0	972.4	NA	0.0000		9999	1380	0	0	0
2019/05/14 11:43:02	BASE	12.66	244	16.10	250	-2.3	100	-2.3	0	0	972.4	NA	0.0000		9999	1380	0	0	0
2019/05/14 11:44:01	BASE	11.41	242	16.10	250	-2.3	100	-2.3	0	0	972.4	NA	0.0000		9999	1380	0	0	0
2019/05/14 11:45:02	BASE	11.41	242	16.10	250	-2.3	100	-2.3	0	0	972.5	NA	0.0000		9999	1350	0	0	0
2019/05/14 11:46:02	BASE	11.26	242	16.10	250	-2.3	100	-2.3	0	0	972.4	NA	0.0000		9999	1350	0	0	0
2019/05/14 11:47:02	BASE	11.55	236	16.10	250	-2.3	100	-2.3	0	0	972.5	NA	0.0000		9999	1280	0	0	0
2019/05/14 11:48:01	BASE	10.91	233	16.10	250	-2.2	100	-2.2	0	0	972.5	NA	0.0000		9999	1310	0	0	0
2019/05/14 11:49:02	BASE	10.42	237	16.10	250	-2.2	100	-2.2	0	0	972.5	NA	0.0000		9999	1280	0	0	0
2019/05/14 11:50:02	BASE	9.80	238	16.10	250	-2.2	100	-2.2	0	0	972.6	NA	0.0000		9999	1310	0	0	0
2019/05/14 11:51:02	BASE	9.02	237	16.10	250	-2.2	100	-2.2	0	0	972.6	NA	0.0000		9999	1280	0	0	0
2019/05/14 11:52:02	BASE	8.86	232	14.04	248	-2.2	100	-2.2	0	0	972.6	NA	0.0000		9999	1280	0	0	0
2019/05/14 11:53:02	BASE	9.13	231	14.04	248	-2.2	100	-2.2	0	0	972.6	NA	0.0000		9999	1410	0	0	0
2019/05/14 11:54:02	BASE	10.84	240	14.04	248	-2.2	100	-2.2	0	0	972.6	NA	0.0000		9999	1440	0	0	0
2019/05/14 11:55:02	BASE	11.78	246	14.04	248	-2.2	100	-2.2	0	0	972.6	NA	0.0000		9999	1380	0	0	0
2019/05/14 11:56:01	BASE	12.74	247	14.97	251	-2.2	100	-2.2	0	0	972.6	NA	0.0000		9999	1410	0	0	0
2019/05/14 11:57:01	BASE	13.67	245	15.07	240	-2.3	100	-2.3	0	0	972.6	NA	0.0000		9999	1440	0	0	0
2019/05/14 11:58:02	BASE	13.09	243	15.07	240	-2.3	100	-2.3	0	0	972.7	NA	0.0000		9999	1480	0	0	0
2019/05/14 11:59:01	BASE	12.31	245	15.07	240	-2.3	100	-2.3	0	0	972.7	NA	0.0000		9999	1480	0	0	0
2019/05/14 12:00:01	BASE	12.25	250	15.07	240	-2.4	100	-2.4	0	0	972.7	NA	0.0000		9999	1510	0	0	0
2019/05/14 12:01:01	BASE	13.00	250	15.33	244	-2.4	100	-2.4	0	0	972.7	NA	0.0000		9999	1480	0	0	0
2019/05/14 12:02:03	BASE	13.20	247	15.33	244	-2.4	100	-2.4	0	0	972.7	NA	0.0000		9999	1510	0	0	0
2019/05/14 12:03:02	BASE	12.43	248	15.33	244	-2.5	100	-2.5	0	0	972.8	NA	0.0000		9999	1510	0	0	0
2019/05/14 12:04:01	BASE	10.83	244	15.33	244	-2.5	100	-2.5	0	0	972.8	NA	0.0000		9999	1670	0	0	0
2019/05/14 12:05:02	BASE	9.45	240	15.33	244	-2.5	100	-2.5	0	0	972.9	NA	0.0000		9999	1800	0	0	0
2019/05/14 12:06:01	BASE	9.88	243	15.33	244	-2.5	100	-2.5	0	0	972.9	NA	0.0000		9999	1640	0	0	0
2019/05/14 12:07:01	BASE	11.83	244	15.33	244	-2.5	100	-2.5	0	0	972.8	NA	0.0000		9999	0	0	0	0
2019/05/14 12:08:02	BASE	13.35	243	15.33	244	-2.5	100	-2.5	0	0	972.9	NA	0.0000		9999	1640	0	0	0
2019/05/14 12:09:02	BASE	12.49	242	15.33	244	-2.5	100	-2.5	0	0	972.9	NA	0.0000		9999	1610	0	0	0
2019/05/14 12:10:00	BASE	10.63	246	15.33	244	-2.6	100	-2.6	0	0	972.9	NA	0.0000		9999	1640	0	0	0
2019/05/14 12:11:01	BASE	10.40	251	14.97	238	-2.6	100	-2.6	0	0	972.9	NA	0.0000		9999	1610	0	0	0
2019/05/14 12:12:02	BASE	11.66	252	14.97	238	-2.6	100	-2.6	0	0	972.9	NA	0.0000		9999	1640	0	0	0
2019/05/14 12:13:01	BASE	11.93	251	14.97	238	-2.7	100	-2.7	0	0	972.9	NA	0.0000		9999	1710	0	0	0
2019/05/14 12:14:00	BASE	10.89	249	14.97	238	-2.7	100	-2.8	0	0	972.9	NA	0.0000		9999	1640	0	0	0
2019/05/14 12:15:02	BASE	10.73	247	14.97	238	-2.7	99	-2.8	0	0	972.9	NA	0.0000		9999	1640	0	0	0
2019/05/14 12:16:02	BASE	11.44	244	14.97	238	-2.7	99	-2.8	0	0	972.9	NA	0.0000		9999	1670	0	0	0
2019/05/14 12:17:01	BASE	12.77	236	14.92	255	-2.7	99	-2.8	0	0	973.0	NA	0.0000		9999	1670	0	0	0
2019/05/14 12:18:01	BASE	12.40	231	14.92	255	-2.7	99	-2.8	0	0	973.0	NA	0.0000		9999	1740	0	0	0
2019/05/14 12:19:01	BASE	11.45	228	14.92	255	-2.7	99	-2.8	0	0	973.0	NA	0.0000		9999	1840	0	0	0
2019/05/14 12:20:02	BASE	12.83	225	15.54	226	-2.7	99	-2.9	0	0	973.0	NA	0.0000		9999	0	0	0	0
2019/05/14 12:21:02	BASE	13.24	226	15.54	226	-2.7	98	-2.9	0	0	973.0	NA	0.0000		9999	1770	0	0	0
2019/05/14 12:22:02	BASE	11.71	228	15.54	226	-2.7	98	-2.9	0	0	973.0	NA	0.0000		9999	1570	0	0	0
2019/05/14 12:23:02	BASE	11.16	223	15.54	226	-2.7	98	-3.0	0	0	973.0	NA	0.0000		9999	1670	0	0	0
2019/05/14 12:24:02	BASE	11.84	222	15.54	226	-2.7	98	-3.0	0	0	973.0	NA	0.0000		9999	1670	0	0	0
2019/05/14 12:25:01	BASE	12.51	226	15.54	226	-2.7	98	-3.0	0	0	973.0	NA	0.0000		9999	1800	0	0	0
2019/05/14 12:26:01	BASE	12.88	224	15.54	226	-2.7	98	-3.0	0	0	973.0	NA	0.0000		9999	1670	0	0	0
2019/05/14 12:27:01	BASE	13.10	225	15.64	225	-2.7	98	-3.0	0	0	973.1	NA	0.0000		9999	0	0	0	0
2019/05/14 12:28:01	BASE	12.48	225	15.64	225	-2.7	98	-3.0	0	0	973.2	NA	0.0000		9999	1800	0	0	0
2019/05/14 12:29:02	BASE	11.09	224	15.64	225	-2.7	98	-3.1	0	0	973.2	NA	0.0000		9999	1740	0	0	0
2019/05/14 12:30:01	BASE	11.41	226	15.64	225	-2.8	97	-3.1	0	0	973.2	NA	0.0000		9999	1640	0	0	0
2019/05/14 12:31:01	BASE	11.86	233	15.64	225	-2.7	97	-3.1	0	0	973.2	NA	0.0000		9999	1610	0	0	0
2019/05/14 12:32:02	BASE	11.02	238	15.64	225	-2.7	97	-3.1	0	0	973.3	NA	0.0000		9999	1610	0	0	0
2019/05/14 12:33:01	BASE	9.93	236	15.64	225	-2.6	97	-3.1	0	0	973.3	NA	0.0000		9999	1770	0	0	0
2019/05/14 12:34:02	BASE	9.94	238	15.64	225	-2.6	97	-3.0	0	0	973.3	NA	0.0000		9999	1800	0	0	0
2019/05/14 12:35:01	BASE	10.94	245	15.64	225	-2.6	97	-3.0	0	0	973.3	NA	0.0000		9999	2000	0	0	0
2019/05/14 12:36:02	BASE	11.94	244	15.64	225	-2.7	97	-3.1	0	0	973.3	NA	0.0000		9999	2170	0	0	0
2019/05/14 12:37:02	BASE	11.97	241	14.82	246	-2.7	97	-3.2	1	0	973.4	NA	0.0000		9999	1770	0	0	0
2019/05/14 12:38:02	BASE	11.79	242	14.82	246	-2.8	96	-3.3	1	0	973.4	NA	0.0000		9999	1800	0	0	0
2019/05/14 12:39:02	BASE	11.27	244	14.82	246	-2.8	96	-3.4	1	0	973.4	NA	0.0000		9999	1940	0	0	0
2019/05/14 12:40:02	BASE	10.25	245	14.82	246	-2.9	96	-3.5	1	0	973.4	NA	0.0000		9999	1770	0	0	0
2019/05/14 12:41:01	BASE	10.84	249	14.82	246	-2.9	95	-3.5	1	0	973.4	NA	0.0000		9999	1800	0	0	0
2019/05/14 12:42:02	BASE	12.05	248	14.82	246	-2.8	95	-3.6	1	0	973.4	NA	0.0000		9999	1900	0	0	0
2019/05/14 12:43:02	BASE	12.17	239	14.82	246	-2.8	94	-3.6	1	0	973.4	NA	0.0000		9999	1870	0	0	0
2019/05/14 12:44:02	BASE	11.22	233	14.82	246	-2.8	94	-3.6	1	0	973.5	NA	0.0000		9999	2100	0	0	0
2019/05/14 12:45:02	BASE	11.36	229	15.12	227	-2.8	94	-3.6	1	0	973.4	NA	0.0000		9999	1840	0	0	0
2019/05/14 12:46:02	BASE	12.70	227	15.38	230	-2.8	94	-3.6	1	0	973.4	NA	0.0000		9999	2100	0	0	0
2019/05/14 12:47:02	BASE	13.24	228	15.38	230	-2.7	94	-3.6	1	0	973.5	NA	0.0000		9999	2850	0	0	0
2019/05/14 12:48:02	BASE	11.85	229	15.38	230	-2.7	94	-3.6	1	0	973.5	NA	0.0000		9999	1840	3050	0	0
2019/05/14 12:49:02	BASE	10.99	229	15.38	230	-2.7	94	-3.5	1	0	973.5	NA	0.0000		9999	1800	0	0	0
2019/05/14 12:50:02	BASE	12.32	228	15.38	230	-2.7	94	-3.5	1	0	973.5	NA	0.0000		9999	1740	0	0	0
2019/05/14 12:51:02	BASE	12.09	229	15.38	230	-2.7	94	-3.5	1	0	973.5	NA	0.0000		9999	1770	0	0	0
2019/05/14 12:52:01	BASE	10.57	237	15.38	230	-2.7	94	-3.5	1	0	973.5	NA	0.0000		9999	1800	0	0	0
2019/05/14 12:53:02	BASE	11.38	243	15.38	230	-2.7	94	-3.5	1	0	973.5	NA	0.0000		9999	1840	0	0	0
2019/05/14 12:54:01	BASE	11.53	240	15.38	230	-2.7	94	-3.5	1	0	973.6	NA	0.0000		9999	2000	0	0	0
2019/05/14 12:55:02	BASE	10.30	233	15.38	230	-2.7	94	-3.6	2	0	973.6	NA	0.0000		9999	1970	0	0	0
2019/05/14 12:56:02	BASE	10.74	229	14.71	226	-2.7	94	-3.6	2	0	973.6	NA	0.0000		9999	1840	0	0	0
2019/05/14 12:57:01	BASE	11.71	227	14.25	214	-2.7	94	-3.6	2	0	973.5	NA	0.0000		9999	1800	0	0	0
2019/05/14 12:58:02	BASE	12.25	224	14.25	214	-2.7	94	-3.6	2	0	973.6	NA	0.0000		9999	1800	0	0	0
2019/05/14 12:59:02	BASE	12.03	228	14.25	214	-2.7	94	-3.5	2	0	973.6	NA	0.0000		9999	1800	0	0	0
2019/05/14 13:00:01	BASE	10.77	235	13.99	243	-2.7	94	-3.5	2	0	973.6	NA	0.0000		9999	1740	0	0	0
2019/05/14 13:01:01	BASE	10.44	237	13.99	243	-2.7	94	-3.5	2	0	973.6	NA	0.0000		9999	1800	0	0	0
2019/05/14 13:02:01	BASE	11.33	233	13.99	243	-2.7	94	-3.5	2	0	973.6	NA	0.0000		9999	1840	0	0	0
2019/05/14 13:03:02	BASE	11.80	230	13.89	229	-2.7	94	-3.5	2	0	973.7	NA	0.0000		9999	2170	0	0	0
2019/05/14 13:04:01	BASE	10.97	230	13.89	229	-2.7	94	-3.5	2	0	973.7	NA	0.0000		9999	1840	2660	0	0
2019/05/14 13:05:03	BASE	9.78	233	13.89	229	-2.7	94	-3.5	2	0	973.7	NA	0.0000		9999	2200	0	0	0
2019/05/14 13:06:02	BASE	10.20	232	13.89	229	-2.7	94	-3.5	2	0	973.7	NA	0.0000		9999	1710	0	0	0
2019/05/14 13:07:02	BASE	11.97	239	14.97	242	-2.7	94	-3.5	2	0	973.7	NA	0.0000		9999	1800	0	0	0
2019/05/14 13:08:02	BASE	13.88	249	16.72	245	-2.7	94	-3.6	2	0	973.7	NA	0.0000		9999	1870	0	0	0
2019/05/14 13:09:01	BASE	14.58	251	16.87	247	-2.7	94	-3.6	2	0	973.7	NA	0.0000		9999	1940	0	0	0
2019/05/14 13:10:02	BASE	13.90	246	16.87	247	-2.8	93	-3.7	2	0	973.7	NA	0.0000		9999	1940	0	0	0
2019/05/14 13:11:02	BASE	12.80	245	16.87	247	-2.8	93	-3.7	2	0	973.8	NA	0.0000		9999	1870	0	0	0
2019/05/14 13:12:01	BASE	12.20	254	16.87	247	-2.8	93	-3.8	2	0	973.9	NA	0.0000		9999	1970	0	0	0
2019/05/14 13:13:02	BASE	12.12	256	16.87	247	-2.8	93	-3.9	2	0	973.9	NA	0.0000		9999	2030	0	0	0
2019/05/14 13:14:02	BASE	11.95	253	16.87	247	-2.8	92	-3.9	2	0	973.9	NA	0.0000		9999	2070	0	0	0
2019/05/14 13:15:02	BASE	11.59	250	16.87	247	-2.8	92	-3.9	2	0	973.9	NA	0.0000		9999	1970	0	0	0
2019/05/14 13:16:02	BASE	11.67	244	16.87	247	-2.8	92	-3.9	2	0	974.0	NA	0.0000		9999	1970	0	0	0
2019/05/14 13:17:02	BASE	11.55	242	16.87	247	-2.8	92	-3.9	2	0	974.0	NA	0.0000		9999	2030	0	0	0
2019/05/14 13:18:02	BASE	10.11	243	16.87	247	-2.8	92	-3.9	2	0	974.1	NA	0.0000		9999	1970	0	0	0
2019/05/14 13:19:01	BASE	10.64	239	15.28	242	-2.8	92	-4.0	2	0	974.1	NA	0.0000		9999	2130	0	0	0
2019/05/14 13:20:01	BASE	12.63	234	14.61	251	-2.8	91	-4.1	3	0	974.1	NA	0.0000		9999	2460	0	0	0
2019/05/14 13:21:02	BASE	12.45	233	14.61	251	-2.8	91	-4.1	3	0	974.1	NA	0.0000		9999	2170	0	0	0
2019/05/14 13:22:02	BASE	11.44	238	14.61	251	-2.8	90	-4.1	3	0	974.1	NA	0.0000		9999	2300	0	0	0
2019/05/14 13:23:01	BASE	12.64	246	16.10	248	-2.8	90	-4.1	3	0	974.1	NA	0.0000		9999	1940	0	0	0
2019/05/14 13:24:01	BASE	12.94	246	16.10	248	-2.7	90	-4.2	3	0	974.1	NA	0.0000		9999	2200	0	0	0
2019/05/14 13:25:02	BASE	11.72	236	16.10	248	-2.7	90	-4.1	3	0	974.1	NA	0.0000		9999	2200	0	0	0
2019/05/14 13:26:02	BASE	12.17	229	16.10	248	-2.7	90	-4.1	3	0	974.1	NA	0.0000		9999	2100	0	0	0
2019/05/14 13:27:02	BASE	12.07	228	16.10	248	-2.8	90	-4.2	3	0	974.2	NA	0.0000		9999	2170	0	0	0
2019/05/14 13:28:02	BASE	11.60	229	16.10	248	-2.8	90	-4.2	3	0	974.2	NA	0.0000		9999	2230	0	0	0
2019/05/14 13:29:02	BASE	11.95	233	16.10	248	-2.8	90	-4.2	3	0	974.2	NA	0.0000		9999	2300	0	0	0
2019/05/14 13:30:02	BASE	12.71	240	16.10	248	-2.8	90	-4.3	4	0	974.2	NA	0.0000		9999	2230	0	0	0
2019/05/14 13:31:02	BASE	13.24	236	16.10	248	-2.8	89	-4.4	4	0	974.2	NA	0.0000		9999	2300	0	0	0
2019/05/14 13:32:02	BASE	12.90	228	16.10	248	-2.9	89	-4.5	4	0	974.2	NA	0.0000		9999	2260	0	0	0
2019/05/14 13:33:02	BASE	11.55	227	15.28	225	-2.9	88	-4.6	4	0	974.2	NA	0.0000		9999	2430	0	0	0
2019/05/14 13:34:02	BASE	10.70	227	15.28	225	-2.9	87	-4.7	4	0	974.2	NA	0.0000		9999	2430	0	0	0
2019/05/14 13:35:02	BASE	10.82	229	15.28	225	-2.9	87	-4.8	4	0	974.3	NA	0.0000		9999	2170	0	0	0
2019/05/14 13:36:02	BASE	10.77	233	15.28	225	-2.9	86	-4.8	4	0	974.3	NA	0.0000		9999	2460	0	0	0
2019/05/14 13:37:02	BASE	10.62	237	15.28	225	-2.8	86	-4.8	4	0	974.3	NA	0.0000		9999	2230	0	0	0
2019/05/14 13:38:02	BASE	11.35	241	15.28	225	-2.7	86	-4.8	4	0	974.3	NA	0.0000		9999	2200	0	0	0
2019/05/14 13:39:02	BASE	12.53	239	15.28	225	-2.7	86	-4.7	4	0	974.3	NA	0.0000		9999	2070	0	0	0
2019/05/14 13:40:02	BASE	11.85	237	15.28	225	-2.7	86	-4.7	4	0	974.3	NA	0.0000		9999	1940	0	0	0
2019/05/14 13:41:02	BASE	10.67	243	14.40	229	-2.6	86	-4.6	4	0	974.3	NA	0.0000		9999	1800	0	0	0
2019/05/14 13:42:02	BASE	11.62	243	16.20	240	-2.6	87	-4.5	4	0	974.3	NA	0.0000		9999	1640	0	0	0
2019/05/14 13:43:02	BASE	12.99	242	16.20	240	-2.6	87	-4.4	4	0	974.3	NA	0.0000		9999	2130	0	0	0
2019/05/14 13:44:02	BASE	13.46	245	16.20	240	-2.6	88	-4.3	4	0	974.3	NA	0.0000		9999	1900	0	0	0
2019/05/14 13:45:02	BASE	12.99	246	16.20	240	-2.7	89	-4.3	4	0	974.4	NA	0.0000		9999	1940	0	0	0
2019/05/14 13:46:02	BASE	13.07	246	16.20	240	-2.7	89	-4.2	4	0	974.4	NA	0.0000		9999	2100	0	0	0
2019/05/14 13:47:02	BASE	13.16	248	16.20	240	-2.8	90	-4.2	5	0	974.5	NA	0.0000		9999	1940	0	0	0
2019/05/14 13:48:02	BASE	13.30	250	16.20	240	-2.8	90	-4.2	5	0	974.5	NA	0.0000		9999	1870	0	0	0
2019/05/14 13:49:01	BASE	13.69	247	16.20	240	-2.8	90	-4.2	5	0	974.5	NA	0.0000		9999	1900	0	0	0
2019/05/14 13:50:02	BASE	13.07	248	16.20	240	-2.8	90	-4.2	5	0	974.6	NA	0.0000		9999	2000	0	0	0
2019/05/14 13:51:02	BASE	12.71	250	16.20	240	-2.8	90	-4.2	5	0	974.6	NA	0.0000		9999	2130	0	0	0
2019/05/14 13:52:02	BASE	12.43	246	15.84	241	-2.8	90	-4.2	5	0	974.6	NA	0.0000		9999	2000	0	0	0
2019/05/14 13:53:01	BASE	12.56	242	15.74	243	-2.8	90	-4.2	6	0	974.6	NA	0.0000		9999	2030	0	0	0
2019/05/14 13:54:01	BASE	12.47	242	15.74	243	-2.8	90	-4.2	6	0	974.6	NA	0.0000		9999	2070	0	0	0
2019/05/14 13:55:02	BASE	13.14	246	16.57	245	-2.8	90	-4.2	6	0	974.6	NA	0.0000		9999	2200	0	0	0
2019/05/14 13:56:02	BASE	13.92	250	16.57	245	-2.8	90	-4.2	6	0	974.6	NA	0.0000		9999	2100	0	0	0
2019/05/14 13:57:01	BASE	12.98	249	16.57	245	-2.9	90	-4.3	6	0	974.7	NA	0.0000		9999	2130	0	0	0
2019/05/14 13:58:01	BASE	11.99	251	16.57	245	-2.9	90	-4.4	7	0	974.7	NA	0.0000		9999	2100	0	0	0
2019/05/14 13:59:01	BASE	9.99	257	16.57	245	-2.9	89	-4.5	7	0	974.7	NA	0.0000		9999	2300	0	0	0
2019/05/14 14:00:01	BASE	9.00	261	16.57	245	-2.9	89	-4.5	7	0	974.8	NA	0.0000		9999	2230	0	0	0
2019/05/14 14:01:02	BASE	10.83	255	16.57	245	-2.9	88	-4.6	8	0	974.7	NA	0.0000		9999	2260	0	0	0
2019/05/14 14:02:02	BASE	11.74	247	16.57	245	-2.9	88	-4.6	8	0	974.7	NA	0.0000		9999	2260	0	0	0
2019/05/14 14:03:01	BASE	12.23	248	16.57	245	-2.9	88	-4.6	8	0	974.7	NA	0.0000		9999	2300	0	0	0
2019/05/14 14:04:02	BASE	12.65	252	16.57	245	-2.9	87	-4.7	7	0	974.8	NA	0.0000		9999	2360	0	0	0
2019/05/14 14:05:03	BASE	13.05	249	15.38	251	-2.9	87	-4.8	7	0	974.7	NA	0.0000		9999	2460	0	0	0
2019/05/14 14:06:01	BASE	12.78	247	15.38	251	-3.0	86	-5.0	7	0	974.8	NA	0.0000		9999	2400	0	0	0
2019/05/14 14:07:02	BASE	11.00	249	15.38	251	-3.0	86	-5.0	8	0	974.8	NA	0.0000		9999	2400	0	0	0
2019/05/14 14:08:01	BASE	9.96	243	15.38	251	-3.1	85	-5.2	9	0	974.8	NA	0.0000		9999	2300	0	0	0
2019/05/14 14:09:01	BASE	8.85	237	15.38	251	-3.1	85	-5.3	9	0	974.8	NA	0.0000		9999	2460	0	0	0
2019/05/14 14:10:01	BASE	7.89	234	15.38	251	-3.0	84	-5.3	9	0	974.8	NA	0.0000		9999	2130	0	0	0
2019/05/14 14:11:02	BASE	7.99	235	15.38	251	-3.0	84	-5.3	9	0	974.7	NA	0.0000		9999	2030	0	0	0
2019/05/14 14:12:02	BASE	7.85	240	15.38	251	-3.0	84	-5.3	9	0	974.7	NA	0.0000		9999	2260	0	0	0
2019/05/14 14:13:01	BASE	7.33	236	15.07	241	-3.0	84	-5.3	9	0	974.8	NA	0.0000		9999	2360	0	0	0
2019/05/14 14:14:01	BASE	7.30	233	15.07	241	-2.9	84	-5.3	9	0	974.8	NA	0.0000		9999	2360	0	0	0
2019/05/14 14:15:02	BASE	8.22	234	14.10	246	-2.9	84	-5.3	9	0	974.8	NA	0.0000		9999	2260	0	0	0
2019/05/14 14:16:02	BASE	10.00	231	12.14	232	-2.9	84	-5.2	9	0	974.7	NA	0.0000		9999	2230	0	0	0
2019/05/14 14:17:02	BASE	10.72	240	12.76	243	-2.9	84	-5.2	9	0	974.8	NA	0.0000		9999	2260	0	0	0
2019/05/14 14:18:01	BASE	11.53	252	14.20	253	-2.9	84	-5.1	10	0	974.8	NA	0.0000		9999	2460	0	0	0
2019/05/14 14:19:02	BASE	12.14	253	14.20	253	-2.9	84	-5.1	10	0	974.8	NA	0.0000		9999	2360	0	0	0
2019/05/14 14:20:02	BASE	12.14	252	14.20	253	-2.9	84	-5.1	10	0	974.8	NA	0.0000		9999	2360	0	0	0
2019/05/14 14:21:02	BASE	11.77	251	14.20	253	-2.9	84	-5.2	11	0	974.8	NA	0.0000		9999	2260	2820	0	0
2019/05/14 14:22:02	BASE	11.27	249	14.20	253	-2.9	84	-5.2	12	0	974.8	NA	0.0000		9999	2590	0	0	0
2019/05/14 14:23:01	BASE	11.70	244	14.20	253	-2.9	84	-5.3	13	0	974.8	NA	0.0000		9999	2360	0	0	0
2019/05/14 14:24:02	BASE	11.80	243	14.20	253	-3.0	84	-5.3	15	0	974.9	NA	0.0000		9999	2620	0	0	0
2019/05/14 14:25:02	BASE	11.54	245	14.20	253	-3.0	84	-5.4	15	0	974.9	NA	0.0000		9999	2400	0	0	0
2019/05/14 14:26:02	BASE	10.91	255	14.20	253	-3.0	83	-5.4	15	0	974.9	NA	0.0000		9999	2300	0	0	0
2019/05/14 14:27:01	BASE	10.73	259	14.20	253	-2.9	83	-5.4	14	0	974.9	NA	0.0000		9999	2330	0	0	0
2019/05/14 14:28:00	BASE	10.83	249	14.04	239	-2.9	83	-5.4	12	0	975.0	NA	0.0000		9999	2620	0	0	0
2019/05/14 14:29:01	BASE	10.25	244	14.04	239	-2.9	83	-5.3	11	0	975.0	NA	0.0000		9999	2300	0	0	0
2019/05/14 14:30:01	BASE	9.05	243	14.04	239	-2.8	83	-5.3	11	0	975.1	NA	0.0000		9999	2070	0	0	0
2019/05/14 14:31:01	BASE	8.35	246	14.04	239	-2.8	83	-5.2	11	0	975.1	NA	0.0000		9999	2070	0	0	0
2019/05/14 14:32:01	BASE	10.60	250	14.35	249	-2.8	84	-5.2	11	0	975.0	NA	0.0000		9999	2070	0	0	0
2019/05/14 14:33:01	BASE	13.14	249	14.66	241	-2.9	84	-5.2	11	0	975.0	NA	0.0000		9999	2070	0	0	0
2019/05/14 14:34:02	BASE	13.34	249	15.64	248	-2.9	84	-5.2	11	0	975.0	NA	0.0000		9999	2170	0	0	0
2019/05/14 14:35:01	BASE	12.78	253	15.64	248	-2.9	84	-5.3	11	0	975.0	NA	0.0000		9999	2260	0	0	0
2019/05/14 14:36:02	BASE	11.90	253	15.64	248	-3.0	84	-5.3	11	0	975.0	NA	0.0000		9999	2400	0	0	0
2019/05/14 14:37:02	BASE	12.00	252	15.64	248	-3.0	84	-5.3	11	0	975.1	NA	0.0000		9999	2360	0	0	0
2019/05/14 14:38:02	BASE	13.01	249	16.05	245	-3.0	84	-5.3	11	0	975.1	NA	0.0000		9999	2530	0	0	0
2019/05/14 14:39:02	BASE	14.18	247	17.54	242	-3.0	84	-5.3	12	0	975.1	NA	0.0000		9999	2560	0	0	0
2019/05/14 14:40:01	BASE	14.36	249	17.54	242	-3.0	84	-5.3	13	0	975.1	NA	0.0000		9999	2620	0	0	0
2019/05/14 14:41:02	BASE	12.49	252	17.54	242	-3.0	84	-5.4	14	0	975.2	NA	0.0000		9999	2590	0	0	0
2019/05/14 14:42:02	BASE	11.21	256	17.54	242	-3.1	84	-5.4	15	0	975.2	NA	0.0000		9999	2760	0	0	0
2019/05/14 14:43:01	BASE	12.21	256	17.54	242	-3.1	84	-5.4	15	0	975.2	NA	0.0000		9999	2660	0	0	0
2019/05/14 14:44:02	BASE	12.85	252	17.54	242	-3.1	84	-5.4	15	0	975.3	NA	0.0000		9999	2560	0	0	0
2019/05/14 14:45:02	BASE	12.13	252	17.54	242	-3.1	84	-5.4	17	0	975.3	NA	0.0000		9999	2720	0	0	0
2019/05/14 14:46:02	BASE	12.26	250	17.54	242	-3.0	84	-5.4	19	0	975.4	NA	0.0000		9999	2620	0	0	0
2019/05/14 14:47:02	BASE	12.36	250	17.54	242	-3.0	83	-5.5	21	0	975.4	NA	0.0000		9999	2530	0	0	0
2019/05/14 14:48:02	BASE	11.67	251	17.54	242	-3.1	83	-5.6	20	0	975.4	NA	0.0000		9999	2660	0	0	0
2019/05/14 14:49:02	BASE	11.21	249	16.77	247	-3.1	82	-5.7	18	0	975.5	NA	0.0000		9999	2720	0	0	0
2019/05/14 14:50:02	BASE	11.51	252	16.77	247	-3.1	82	-5.8	17	0	975.5	NA	0.0000		9999	2590	0	0	0
2019/05/14 14:51:02	BASE	11.83	253	16.77	247	-3.1	82	-5.8	17	0	975.5	NA	0.0000		9999	2660	0	0	0
2019/05/14 14:52:02	BASE	10.54	252	16.77	247	-3.1	81	-5.9	17	0	975.5	NA	0.0000		9999	2560	0	0	0
2019/05/14 14:53:01	BASE	9.60	255	13.99	248	-3.1	81	-5.9	18	0	975.4	NA	0.0000		9999	2590	0	0	0
2019/05/14 14:54:02	BASE	10.87	255	13.99	248	-3.1	81	-5.9	18	0	975.5	NA	0.0000		9999	2560	0	0	0
2019/05/14 14:55:02	BASE	11.59	247	13.99	248	-3.1	81	-5.9	18	0	975.5	NA	0.0000		9999	2920	0	0	0
2019/05/14 14:56:02	BASE	10.61	243	13.79	252	-3.1	81	-6.0	19	0	975.6	NA	0.0000		9999	3050	0	0	0
2019/05/14 14:57:01	BASE	10.83	243	13.79	252	-3.2	81	-6.0	20	0	975.6	NA	0.0000		9999	3220	0	0	0
2019/05/14 14:58:02	BASE	10.81	244	13.79	252	-3.2	80	-6.1	22	0	975.6	NA	0.0000		9999	3020	0	0	0
2019/05/14 14:59:01	BASE	9.51	247	13.79	252	-3.2	80	-6.2	24	0	975.6	NA	0.0000		9999	2890	0	0	0
2019/05/14 15:00:02	BASE	8.85	250	13.79	252	-3.2	79	-6.2	24	0	975.6	NA	0.0000		9999	2620	0	0	0
2019/05/14 15:01:02	BASE	8.15	250	13.79	252	-3.1	79	-6.2	22	0	975.6	NA	0.0000		9999	2560	0	0	0
2019/05/14 15:02:01	BASE	7.64	247	13.79	252	-3.1	79	-6.2	19	0	975.6	NA	0.0000		9999	2490	0	0	0
2019/05/14 15:03:01	BASE	9.05	243	13.79	252	-3.1	80	-6.1	17	0	975.6	NA	0.0000		9999	2590	0	0	0
2019/05/14 15:04:01	BASE	12.09	239	14.71	229	-3.1	80	-6.1	18	0	975.5	NA	0.0000		9999	2590	0	0	0
2019/05/14 15:05:03	BASE	12.63	242	14.71	229	-3.1	80	-6.0	20	0	975.6	NA	0.0000		9999	2590	0	0	0
2019/05/14 15:06:02	BASE	11.98	247	14.71	229	-3.0	80	-6.0	19	0	975.6	NA	0.0000		9999	2400	0	0	0
2019/05/14 15:07:01	BASE	11.76	249	14.71	229	-3.1	80	-6.0	17	0	975.6	NA	0.0000		9999	2460	0	0	0
2019/05/14 15:08:02	BASE	10.77	245	14.71	229	-3.1	80	-6.0	15	0	975.6	NA	0.0000		9999	2360	0	0	0
2019/05/14 15:09:01	BASE	10.26	236	14.71	229	-3.1	80	-6.0	15	0	975.6	NA	0.0000		9999	2460	0	0	0
2019/05/14 15:10:01	BASE	11.42	227	14.71	229	-3.2	81	-6.0	18	0	975.6	NA	0.0000		9999	2460	0	0	0
2019/05/14 15:11:01	BASE	12.70	224	14.71	229	-3.2	81	-6.0	18	0	975.6	NA	0.0000		9999	2590	0	0	0
2019/05/14 15:12:01	BASE	13.21	227	15.95	231	-3.1	81	-6.0	16	0	975.6	NA	0.0000		9999	2690	0	0	0
2019/05/14 15:13:02	BASE	15.20	227	17.85	225	-3.1	81	-5.9	15	0	975.6	NA	0.0000		9999	2690	0	0	0
2019/05/14 15:14:02	BASE	16.59	225	17.90	225	-3.1	81	-5.9	15	0	975.6	NA	0.0000		9999	2590	0	0	0
2019/05/14 15:15:02	BASE	15.47	225	17.90	225	-3.1	81	-6.0	16	0	975.7	NA	0.0000		9999	2720	0	0	0
2019/05/14 15:16:02	BASE	13.63	226	17.90	225	-3.2	81	-6.0	17	0	975.7	NA	0.0000		9999	2690	0	0	0
2019/05/14 15:17:02	BASE	12.49	222	17.90	225	-3.2	80	-6.1	18	0	975.8	NA	0.0000		9999	2760	0	0	0
2019/05/14 15:18:02	BASE	11.44	222	17.90	225	-3.2	80	-6.2	19	0	975.8	NA	0.0000		9999	2790	0	0	0
2019/05/14 15:19:02	BASE	10.52	227	17.90	225	-3.2	79	-6.3	20	0	975.8	NA	0.0000		9999	2790	0	0	0
2019/05/14 15:20:02	BASE	10.74	226	17.90	225	-3.2	79	-6.3	19	0	975.8	NA	0.0000		9999	2760	0	0	0
2019/05/14 15:21:02	BASE	13.27	222	17.90	225	-3.3	79	-6.3	19	0	975.8	NA	0.0000		9999	2820	0	0	0
2019/05/14 15:22:02	BASE	14.21	221	17.90	225	-3.3	80	-6.3	19	0	975.8	NA	0.0000		9999	2820	0	0	0
2019/05/14 15:23:02	BASE	10.54	220	17.90	225	-3.3	80	-6.3	20	0	975.9	NA	0.0000		9999	2660	0	0	0
2019/05/14 15:24:02	BASE	8.23	231	17.18	219	-3.3	80	-6.2	22	0	975.9	NA	0.0000		9999	2660	0	0	0
2019/05/14 15:25:02	BASE	9.55	249	17.18	219	-3.3	81	-6.2	23	0	975.9	NA	0.0000		9999	2890	0	0	0
2019/05/14 15:26:02	BASE	11.07	257	17.18	219	-3.3	81	-6.1	24	0	975.9	NA	0.0000		9999	2790	0	0	0
2019/05/14 15:27:01	BASE	11.32	257	17.18	219	-3.3	81	-6.0	25	0	975.9	NA	0.0000		9999	2920	0	0	0
2019/05/14 15:28:01	BASE	11.17	254	17.18	219	-3.2	81	-6.0	25	0	976.0	NA	0.0000		9999	2720	0	0	0
2019/05/14 15:29:02	BASE	10.68	246	17.18	219	-3.2	81	-5.9	25	0	976.0	NA	0.0000		9999	2460	0	0	0
2019/05/14 15:30:01	BASE	9.63	242	17.18	219	-3.2	81	-6.0	24	0	976.0	NA	0.0000		9999	2530	0	0	0
2019/05/14 15:31:01	BASE	8.50	239	14.04	215	-3.2	81	-6.1	24	0	976.0	NA	0.0000		9999	2460	0	0	0
2019/05/14 15:32:02	BASE	7.59	241	13.02	257	-3.2	80	-6.1	24	0	976.0	NA	0.0000		9999	2590	0	0	0
2019/05/14 15:33:02	BASE	7.57	250	13.02	257	-3.2	80	-6.2	24	0	976.0	NA	0.0000		9999	2620	0	0	0
2019/05/14 15:34:01	BASE	9.80	253	13.02	257	-3.2	79	-6.3	23	0	976.0	NA	0.0000		9999	2560	0	0	0
2019/05/14 15:35:01	BASE	10.91	256	12.91	253	-3.2	79	-6.3	22	0	976.0	NA	0.0000		9999	2560	0	0	0
2019/05/14 15:36:02	BASE	9.47	258	12.91	253	-3.2	79	-6.3	22	0	976.0	NA	0.0000		9999	2530	0	0	0
2019/05/14 15:37:01	BASE	7.93	261	12.71	249	-3.2	79	-6.3	22	0	976.0	NA	0.0000		9999	2490	0	0	0
2019/05/14 15:38:01	BASE	8.83	264	13.68	261	-3.2	79	-6.3	22	0	976.0	NA	0.0000		9999	2460	0	0	0
2019/05/14 15:39:01	BASE	10.83	249	13.68	261	-3.1	79	-6.2	20	0	976.0	NA	0.0000		9999	2400	0	0	0
2019/05/14 15:40:02	BASE	10.54	230	13.68	261	-3.1	79	-6.1	20	0	975.9	NA	0.0000		9999	2460	0	0	0
2019/05/14 15:41:02	BASE	9.58	227	13.68	261	-3.0	80	-6.1	20	0	976.0	NA	0.0000		9999	2490	0	0	0
2019/05/14 15:42:01	BASE	10.84	238	14.56	252	-3.0	80	-6.0	21	0	976.0	NA	0.0000		9999	2590	0	0	0
2019/05/14 15:43:02	BASE	11.60	250	14.56	252	-3.0	80	-6.0	23	0	976.0	NA	0.0000		9999	2690	0	0	0
2019/05/14 15:44:02	BASE	10.39	257	14.56	252	-3.0	80	-6.0	25	0	976.0	NA	0.0000		9999	2890	0	0	0
2019/05/14 15:45:02	BASE	9.95	259	14.56	252	-3.0	80	-6.0	26	0	976.0	NA	0.0000		9999	2530	0	0	0
2019/05/14 15:46:01	BASE	9.44	256	14.56	252	-3.0	80	-6.0	26	0	976.0	NA	0.0000		9999	2850	0	0	0
2019/05/14 15:47:01	BASE	8.36	262	14.56	252	-3.0	79	-6.0	28	0	976.0	NA	0.0000		9999	2790	0	0	0
2019/05/14 15:48:01	BASE	9.33	268	14.56	252	-3.0	79	-6.1	31	0	976.0	NA	0.0000		9999	2850	0	0	0
2019/05/14 15:49:02	BASE	11.95	261	14.56	252	-3.0	79	-6.2	33	0	975.9	NA	0.0000		9999	2760	0	0	0
2019/05/14 15:50:02	BASE	12.48	250	14.71	269	-3.0	78	-6.2	32	0	976.0	NA	0.0000		9999	2590	0	0	0
2019/05/14 15:51:02	BASE	9.49	238	14.71	269	-3.0	78	-6.2	30	0	976.1	NA	0.0000		9999	2660	0	0	0
2019/05/14 15:52:02	BASE	7.79	222	14.71	269	-3.0	78	-6.3	28	0	976.1	NA	0.0000		9999	2660	0	0	0
2019/05/14 15:53:01	BASE	8.59	214	14.71	269	-3.0	78	-6.3	26	0	976.2	NA	0.0000		9999	2560	0	0	0
2019/05/14 15:54:02	BASE	8.35	218	14.71	269	-3.0	78	-6.4	23	0	976.2	NA	0.0000		9999	2660	0	0	0
2019/05/14 15:55:03	BASE	8.09	223	14.71	269	-3.1	77	-6.5	21	0	976.2	NA	0.0000		9999	2590	0	0	0
2019/05/14 15:56:02	BASE	7.89	229	14.71	269	-3.1	77	-6.6	20	0	976.1	NA	0.0000		9999	2660	0	0	0
2019/05/14 15:57:02	BASE	7.44	231	14.71	269	-3.1	77	-6.6	20	0	976.0	NA	0.0000		9999	2590	0	0	0
2019/05/14 15:58:02	BASE	6.38	238	14.71	269	-3.1	77	-6.6	21	0	976.0	NA	0.0000		9999	2490	0	0	0
2019/05/14 15:59:02	BASE	7.47	247	14.71	269	-3.1	77	-6.6	23	0	976.0	NA	0.0000		9999	2460	0	0	0
2019/05/14 16:00:02	BASE	9.70	246	11.11	251	-3.1	77	-6.6	24	0	976.0	NA	0.0000		9999	2430	0	0	0
2019/05/14 16:01:02	BASE	9.03	249	11.11	251	-3.1	77	-6.5	25	0	976.0	NA	0.0000		9999	2360	0	0	0
2019/05/14 16:02:02	BASE	7.82	253	11.11	251	-3.0	77	-6.4	25	0	976.1	NA	0.0000		9999	2490	0	0	0
2019/05/14 16:03:02	BASE	7.42	253	11.11	251	-3.0	78	-6.4	25	0	976.2	NA	0.0000		9999	2590	0	0	0
2019/05/14 16:04:02	BASE	7.03	247	11.11	251	-3.0	78	-6.3	25	0	976.2	NA	0.0000		9999	2620	0	0	0
2019/05/14 16:05:03	BASE	7.22	241	11.11	251	-3.0	79	-6.1	26	0	976.2	NA	0.0000		9999	2430	0	0	0
2019/05/14 16:06:01	BASE	6.84	243	11.11	251	-3.0	79	-6.1	27	0	976.2	NA	0.0000		9999	2620	0	0	0
2019/05/14 16:07:01	BASE	7.71	257	11.11	251	-2.9	80	-6.0	27	0	976.2	NA	0.0000		9999	2430	0	0	0
2019/05/14 16:08:01	BASE	8.46	263	11.11	251	-2.9	80	-5.9	27	0	976.2	NA	0.0000		9999	2530	0	0	0
2019/05/14 16:09:02	BASE	8.07	249	11.01	240	-2.9	80	-5.8	27	0	976.2	NA	0.0000		9999	2430	0	0	0
2019/05/14 16:10:01	BASE	8.24	241	10.44	246	-2.8	80	-5.8	27	0	976.3	NA	0.0000		9999	2430	0	0	0
2019/05/14 16:11:01	BASE	7.57	243	10.44	246	-2.8	80	-5.8	27	0	976.4	NA	0.0000		9999	2460	0	0	0
2019/05/14 16:12:02	BASE	6.32	246	10.44	246	-2.8	80	-5.7	27	0	976.4	NA	0.0000		9999	2460	0	0	0
2019/05/14 16:13:01	BASE	6.19	248	10.44	246	-2.9	81	-5.7	26	0	976.4	NA	0.0000		9999	2490	0	0	0
2019/05/14 16:14:01	BASE	7.47	252	10.44	246	-2.9	81	-5.7	24	0	976.3	NA	0.0000		9999	2530	0	0	0
2019/05/14 16:15:02	BASE	7.79	254	10.44	246	-2.9	81	-5.8	23	0	976.4	NA	0.0000		9999	2460	0	0	0
2019/05/14 16:16:01	BASE	7.27	254	10.44	246	-2.9	81	-5.8	22	0	976.4	NA	0.0000		9999	2200	0	0	0
2019/05/14 16:17:02	BASE	6.75	254	10.44	246	-2.9	80	-5.8	22	0	976.4	NA	0.0000		9999	2260	0	0	0
2019/05/14 16:18:01	BASE	6.75	255	9.31	259	-2.9	80	-5.8	21	0	976.4	NA	0.0000		9999	2230	0	0	0
2019/05/14 16:19:01	BASE	7.28	258	9.31	259	-2.9	80	-5.8	21	0	976.4	NA	0.0000		9999	2200	0	0	0
2019/05/14 16:20:02	BASE	6.96	265	9.31	259	-2.8	80	-5.8	21	0	976.4	NA	0.0000		9999	2260	0	0	0
2019/05/14 16:21:02	BASE	7.22	271	11.57	286	-2.8	80	-5.8	20	0	976.3	NA	0.0000		9999	2130	0	0	0
2019/05/14 16:22:01	BASE	11.32	256	16.46	228	-2.8	80	-5.7	20	0	976.2	NA	0.0000		9999	2130	0	0	0
2019/05/14 16:23:01	BASE	13.99	231	16.46	228	-2.8	80	-5.7	21	0	976.3	NA	0.0000		9999	2070	0	0	0
2019/05/14 16:24:02	BASE	12.81	225	16.46	228	-2.8	81	-5.6	22	0	976.4	NA	0.0000		9999	2130	0	0	0
2019/05/14 16:25:01	BASE	12.87	228	16.46	228	-2.8	81	-5.6	24	0	976.4	NA	0.0000		9999	2200	0	0	0
2019/05/14 16:26:01	BASE	12.62	229	16.46	228	-2.8	81	-5.6	24	0	976.4	NA	0.0000		9999	2360	0	0	0
2019/05/14 16:27:01	BASE	11.51	226	16.46	228	-2.8	81	-5.6	25	0	976.4	NA	0.0000		9999	2230	0	0	0
2019/05/14 16:28:01	BASE	10.10	226	16.46	228	-2.8	81	-5.7	25	0	976.4	NA	0.0000		9999	2200	0	0	0
2019/05/14 16:29:02	BASE	8.68	226	16.46	228	-2.9	81	-5.7	25	0	976.4	NA	0.0000		9999	2230	0	0	0
2019/05/14 16:30:01	BASE	8.85	225	16.46	228	-2.9	80	-5.8	25	0	976.4	NA	0.0000		9999	2230	0	0	0
2019/05/14 16:31:01	BASE	8.92	227	16.46	228	-2.9	80	-5.8	25	0	976.5	NA	0.0000		9999	2200	0	0	0
2019/05/14 16:32:01	BASE	8.67	229	14.92	226	-2.9	80	-5.8	25	0	976.5	NA	0.0000		9999	2260	0	0	0
2019/05/14 16:33:01	BASE	7.98	233	14.92	226	-2.8	80	-5.8	24	0	976.6	NA	0.0000		9999	2200	0	0	0
2019/05/14 16:34:01	BASE	6.88	233	14.92	226	-2.8	80	-5.8	24	0	976.6	NA	0.0000		9999	2170	0	0	0
2019/05/14 16:35:01	BASE	7.43	225	13.12	228	-2.8	80	-5.7	23	0	976.6	NA	0.0000		9999	2170	0	0	0
2019/05/14 16:36:02	BASE	7.95	222	12.40	223	-2.8	81	-5.7	21	0	976.6	NA	0.0000		9999	2100	0	0	0
2019/05/14 16:37:02	BASE	7.61	227	10.34	225	-2.8	81	-5.6	20	0	976.7	NA	0.0000		9999	2170	0	0	0
2019/05/14 16:38:02	BASE	9.37	235	13.48	243	-2.8	81	-5.5	20	0	976.7	NA	0.0000		9999	2130	0	0	0
2019/05/14 16:39:02	BASE	11.59	240	13.58	243	-2.8	82	-5.5	20	0	976.6	NA	0.0000		9999	2130	0	0	0
2019/05/14 16:40:02	BASE	11.53	245	13.58	243	-2.8	82	-5.5	20	0	976.7	NA	0.0000		9999	2230	0	0	0
2019/05/14 16:41:01	BASE	10.48	252	13.58	243	-2.8	82	-5.5	20	0	976.7	NA	0.0000		9999	2130	0	0	0
2019/05/14 16:42:02	BASE	9.13	257	13.58	243	-2.9	82	-5.5	20	0	976.7	NA	0.0000		9999	2170	0	0	0
2019/05/14 16:43:02	BASE	9.17	255	13.58	243	-2.9	82	-5.5	21	0	976.7	NA	0.0000		9999	2130	0	0	0
2019/05/14 16:44:02	BASE	8.85	257	13.58	243	-2.9	82	-5.6	21	0	976.8	NA	0.0000		9999	2200	0	0	0
2019/05/14 16:45:02	BASE	7.45	267	13.58	243	-3.0	82	-5.7	21	0	976.8	NA	0.0000		9999	2130	0	0	0
2019/05/14 16:46:02	BASE	7.11	267	13.58	243	-3.0	81	-5.7	21	0	976.8	NA	0.0000		9999	2130	0	0	0
2019/05/14 16:47:01	BASE	6.00	270	13.58	243	-3.0	81	-5.7	22	0	976.8	NA	0.0000		9999	2260	0	0	0
2019/05/14 16:48:01	BASE	5.44	279	13.58	243	-3.0	81	-5.8	23	0	976.7	NA	0.0000		9999	2300	0	0	0
2019/05/14 16:49:01	BASE	6.67	279	12.14	246	-3.0	81	-5.8	22	0	976.7	NA	0.0000		9999	2360	0	0	0
2019/05/14 16:50:02	BASE	7.86	261	11.06	255	-2.9	81	-5.7	21	0	976.8	NA	0.0000		9999	2030	0	0	0
2019/05/14 16:51:01	BASE	7.90	248	11.01	254	-2.9	81	-5.7	20	0	976.8	NA	0.0000		9999	2100	0	0	0
2019/05/14 16:52:01	BASE	8.29	248	11.01	254	-2.9	81	-5.7	19	0	976.8	NA	0.0000		9999	2130	0	0	0
2019/05/14 16:53:01	BASE	7.45	259	10.08	251	-2.9	81	-5.7	18	0	976.8	NA	0.0000		9999	2130	0	0	0
2019/05/14 16:54:02	BASE	7.08	259	10.70	243	-2.9	81	-5.6	18	0	976.8	NA	0.0000		9999	2200	0	0	0
2019/05/14 16:55:01	BASE	8.43	247	10.70	243	-2.8	81	-5.6	18	0	976.8	NA	0.0000		9999	2170	0	0	0
2019/05/14 16:56:01	BASE	8.31	244	10.70	243	-2.8	82	-5.5	20	0	976.8	NA	0.0000		9999	2260	0	0	0
2019/05/14 16:57:01	BASE	8.72	246	10.70	243	-2.8	82	-5.5	21	0	976.8	NA	0.0000		9999	2230	0	0	0
2019/05/14 16:58:01	BASE	9.07	250	10.70	243	-2.8	82	-5.5	22	0	976.8	NA	0.0000		9999	2490	0	0	0
2019/05/14 16:59:01	BASE	8.78	250	10.70	243	-2.9	82	-5.5	23	0	976.8	NA	0.0000		9999	2330	0	0	0
2019/05/14 17:00:02	BASE	8.30	252	10.70	243	-2.9	82	-5.5	24	0	976.8	NA	0.0000		9999	2360	0	0	0
2019/05/14 17:01:01	BASE	7.01	248	10.70	243	-2.9	82	-5.5	24	0	976.9	NA	0.0000		9999	2200	0	0	0
2019/05/14 17:02:01	BASE	6.03	245	10.70	243	-2.9	82	-5.6	24	0	977.0	NA	0.0000		9999	2200	22870	0	0
2019/05/14 17:03:02	BASE	6.18	245	10.70	243	-2.9	82	-5.6	24	0	977.0	NA	0.0000		9999	2260	0	0	0
2019/05/14 17:04:01	BASE	6.37	249	10.13	252	-2.9	82	-5.6	24	0	977.0	NA	0.0000		9999	2200	0	0	0
2019/05/14 17:05:03	BASE	6.11	254	10.13	252	-2.9	82	-5.6	24	0	977.0	NA	0.0000		9999	2330	0	0	0
2019/05/14 17:06:02	BASE	5.67	251	10.13	252	-3.0	82	-5.6	24	0	977.0	NA	0.0000		9999	2200	0	0	0
2019/05/14 17:07:01	BASE	5.00	252	9.41	252	-3.0	82	-5.6	24	0	977.0	NA	0.0000		9999	2200	0	0	0
2019/05/14 17:08:01	BASE	5.28	254	9.41	252	-3.0	82	-5.6	23	0	977.0	NA	0.0000		9999	2170	0	0	0
2019/05/14 17:09:01	BASE	6.83	253	8.75	252	-3.0	82	-5.6	23	0	977.0	NA	0.0000		9999	2200	0	0	0
2019/05/14 17:10:02	BASE	7.50	251	8.39	252	-2.9	82	-5.6	23	0	977.0	NA	0.0000		9999	2260	0	0	0
2019/05/14 17:11:01	BASE	6.85	250	8.39	252	-2.9	82	-5.6	23	0	977.1	NA	0.0000		9999	2530	0	0	0
2019/05/14 17:12:02	BASE	6.30	244	8.39	252	-2.9	82	-5.5	23	0	977.1	NA	0.0000		9999	2620	0	0	0
2019/05/14 17:13:01	BASE	8.05	233	10.65	221	-2.9	82	-5.5	22	0	977.1	NA	0.0000		9999	2660	0	0	0
2019/05/14 17:14:02	BASE	9.09	225	10.65	221	-2.9	82	-5.6	21	0	977.1	NA	0.0000		9999	2790	0	0	0
2019/05/14 17:15:02	BASE	9.66	227	13.02	230	-2.9	82	-5.6	20	0	977.0	NA	0.0000		9999	2330	0	0	0
2019/05/14 17:16:01	BASE	11.25	232	13.02	230	-2.9	82	-5.6	20	0	977.1	NA	0.0000		9999	2330	0	0	0
2019/05/14 17:17:01	BASE	11.05	238	13.32	241	-2.9	82	-5.6	20	0	977.1	NA	0.0000		9999	2460	0	0	0
2019/05/14 17:18:02	BASE	11.78	239	13.79	237	-2.9	82	-5.6	19	0	977.0	NA	0.0000		9999	2430	0	0	0
2019/05/14 17:19:02	BASE	12.47	236	13.79	237	-2.9	82	-5.6	20	0	977.0	NA	0.0000		9999	2490	0	0	0
2019/05/14 17:20:01	BASE	12.42	236	14.15	235	-2.9	82	-5.6	21	0	977.1	NA	0.0000		9999	2720	0	0	0
2019/05/14 17:21:02	BASE	12.56	233	14.15	235	-2.9	81	-5.7	22	0	977.0	NA	0.0000		9999	2760	0	0	0
2019/05/14 17:22:02	BASE	11.76	233	14.15	235	-3.0	81	-5.8	23	0	977.0	NA	0.0000		9999	2490	0	0	0
2019/05/14 17:23:02	BASE	12.21	235	14.35	234	-3.0	80	-5.9	24	0	977.0	NA	0.0000		9999	2430	0	0	0
2019/05/14 17:24:01	BASE	12.53	236	14.35	234	-3.0	80	-5.9	24	0	977.1	NA	0.0000		9999	2460	0	0	0
2019/05/14 17:25:02	BASE	12.67	240	14.46	244	-3.0	80	-6.0	25	0	977.1	NA	0.0000		9999	2620	0	0	0
2019/05/14 17:26:02	BASE	13.25	244	14.46	244	-3.0	80	-6.1	25	0	977.1	NA	0.0000		9999	2720	0	0	0
2019/05/14 17:27:01	BASE	12.62	241	14.46	244	-3.1	79	-6.2	25	0	977.1	NA	0.0000		9999	2660	0	0	0
2019/05/14 17:28:02	BASE	12.68	243	14.71	243	-3.1	79	-6.3	25	0	977.1	NA	0.0000		9999	2490	0	0	0
2019/05/14 17:29:02	BASE	12.84	249	14.71	243	-3.1	78	-6.3	24	0	977.2	NA	0.0000		9999	2590	0	0	0
2019/05/14 17:30:02	BASE	11.86	248	14.71	243	-3.1	78	-6.4	24	0	977.2	NA	0.0000		9999	0	0	0	0
2019/05/14 17:31:02	BASE	10.92	246	14.71	243	-3.1	78	-6.5	26	0	977.2	NA	0.0000		9999	0	0	0	0
2019/05/14 17:32:02	BASE	10.57	246	14.71	243	-3.2	77	-6.5	28	0	977.3	NA	0.0000		9999	2330	0	0	0
2019/05/14 17:33:01	BASE	9.68	248	14.71	243	-3.2	77	-6.6	29	0	977.3	NA	0.0000		9999	2360	0	0	0
2019/05/14 17:34:01	BASE	9.17	250	14.71	243	-3.2	77	-6.7	29	0	977.3	NA	0.0000		9999	2460	0	0	0
2019/05/14 17:35:02	BASE	8.93	247	14.71	243	-3.2	76	-6.8	29	0	977.3	NA	0.0000		9999	2620	0	0	0
2019/05/14 17:36:01	BASE	8.16	243	14.71	243	-3.2	76	-6.8	29	0	977.3	NA	0.0000		9999	2530	0	0	0
2019/05/14 17:37:01	BASE	8.11	245	14.71	243	-3.2	76	-6.9	29	0	977.3	NA	0.0000		9999	2490	0	0	0
2019/05/14 17:38:02	BASE	7.90	249	13.22	247	-3.2	76	-6.9	29	0	977.3	NA	0.0000		9999	2490	0	0	0
2019/05/14 17:39:01	BASE	8.11	247	12.09	250	-3.2	76	-6.9	28	0	977.3	NA	0.0000		9999	2530	0	0	0
2019/05/14 17:40:02	BASE	8.95	243	12.09	250	-3.2	76	-6.9	27	0	977.3	NA	0.0000		9999	2560	0	0	0
2019/05/14 17:41:02	BASE	8.24	235	11.21	246	-3.2	76	-6.8	27	0	977.3	NA	0.0000		9999	2400	0	0	0
2019/05/14 17:42:02	BASE	6.00	233	10.80	248	-3.2	76	-6.8	27	0	977.3	NA	0.0000		9999	2330	0	0	0
2019/05/14 17:43:01	BASE	5.34	243	10.80	248	-3.2	76	-6.8	26	0	977.3	NA	0.0000		9999	2490	0	0	0
2019/05/14 17:44:01	BASE	5.79	254	10.08	246	-3.1	76	-6.8	25	0	977.3	NA	0.0000		9999	2460	0	0	0
2019/05/14 17:45:02	BASE	5.08	255	10.08	246	-3.1	76	-6.8	24	0	977.3	NA	0.0000		9999	2400	0	0	0
2019/05/14 17:46:02	BASE	4.54	257	10.08	246	-3.2	76	-6.8	23	0	977.3	NA	0.0000		9999	2400	0	0	0
2019/05/14 17:47:01	BASE	4.28	261	10.08	246	-3.2	76	-6.8	22	0	977.3	NA	0.0000		9999	2330	0	0	0
2019/05/14 17:48:02	BASE	4.70	270	10.08	246	-3.2	76	-6.8	23	0	977.3	NA	0.0000		9999	2400	0	0	0
2019/05/14 17:49:01	BASE	5.37	278	10.08	246	-3.2	76	-6.8	23	0	977.3	NA	0.0000		9999	2430	0	0	0
2019/05/14 17:50:01	BASE	5.57	269	9.05	233	-3.1	76	-6.7	22	0	977.3	NA	0.0000		9999	2300	0	0	0
2019/05/14 17:51:01	BASE	5.92	265	7.87	255	-3.1	76	-6.6	22	0	977.3	NA	0.0000		9999	2460	0	0	0
2019/05/14 17:52:01	BASE	5.56	267	7.87	255	-3.0	77	-6.5	21	0	977.3	NA	0.0000		9999	2430	0	0	0
2019/05/14 17:53:02	BASE	5.91	263	7.87	255	-3.0	77	-6.4	21	0	977.3	NA	0.0000		9999	2400	0	0	0
2019/05/14 17:54:02	BASE	7.53	258	11.27	258	-3.0	78	-6.4	21	0	977.3	NA	0.0000		9999	2400	0	0	0
2019/05/14 17:55:02	BASE	8.86	259	11.27	258	-3.0	78	-6.3	21	0	977.3	NA	0.0000		9999	2460	0	0	0
2019/05/14 17:56:02	BASE	7.97	258	11.27	258	-3.0	78	-6.2	21	0	977.3	NA	0.0000		9999	2400	0	0	0
2019/05/14 17:57:02	BASE	5.96	262	11.27	258	-3.0	79	-6.2	20	0	977.3	NA	0.0000		9999	2330	0	0	0
2019/05/14 17:58:01	BASE	7.18	261	11.27	258	-3.0	79	-6.1	20	0	977.3	NA	0.0000		9999	2360	0	0	0
2019/05/14 17:59:02	BASE	9.04	248	11.27	258	-2.9	79	-6.0	20	0	977.3	NA	0.0000		9999	2300	0	0	0
2019/05/14 18:00:01	BASE	8.12	241	11.27	258	-3.0	79	-6.0	19	0	977.3	NA	0.0000		9999	2330	0	0	0
2019/05/14 18:01:01	BASE	8.30	237	11.47	230	-2.9	80	-6.0	19	0	977.3	NA	0.0000		9999	2330	0	0	0
2019/05/14 18:02:02	BASE	9.17	249	11.47	230	-2.9	80	-5.9	19	0	977.4	NA	0.0000		9999	2400	0	0	0
2019/05/14 18:03:02	BASE	8.22	263	11.47	230	-2.9	80	-5.8	19	0	977.4	NA	0.0000		9999	2400	0	0	0
2019/05/14 18:04:01	BASE	7.93	259	11.47	230	-2.9	80	-5.8	19	0	977.4	NA	0.0000		9999	2460	0	0	0
2019/05/14 18:05:02	BASE	8.58	253	11.47	230	-2.9	81	-5.8	20	0	977.4	NA	0.0000		9999	2620	0	0	0
2019/05/14 18:06:02	BASE	8.69	252	11.47	230	-3.0	81	-5.8	21	0	977.4	NA	0.0000		9999	2460	0	0	0
2019/05/14 18:07:02	BASE	8.44	250	11.47	230	-3.0	81	-5.9	22	0	977.5	NA	0.0000		9999	2760	0	0	0
2019/05/14 18:08:02	BASE	8.66	246	11.47	230	-3.0	80	-5.9	23	0	977.5	NA	0.0000		9999	2850	0	0	0
2019/05/14 18:09:02	BASE	8.67	249	11.47	230	-3.0	80	-6.0	22	0	977.5	NA	0.0000		9999	2760	0	0	0
2019/05/14 18:10:02	BASE	8.18	247	11.47	230	-3.0	80	-6.0	22	0	977.6	NA	0.0000		9999	2720	0	0	0
2019/05/14 18:11:02	BASE	7.21	243	10.19	251	-3.0	79	-6.1	21	0	977.6	NA	0.0000		9999	2790	0	0	0
2019/05/14 18:12:02	BASE	6.31	240	10.19	251	-3.1	79	-6.3	20	0	977.6	NA	0.0000		9999	2620	0	0	0
2019/05/14 18:13:02	BASE	5.96	239	10.19	251	-3.1	78	-6.4	18	0	977.6	NA	0.0000		9999	2660	0	0	0
2019/05/14 18:14:02	BASE	5.87	242	9.77	248	-3.1	78	-6.4	17	0	977.6	NA	0.0000		9999	2690	0	0	0
2019/05/14 18:15:02	BASE	5.81	239	9.77	248	-3.0	77	-6.5	17	0	977.6	NA	0.0000		9999	2760	0	0	0
2019/05/14 18:16:02	BASE	5.52	240	9.77	248	-3.0	77	-6.5	17	0	977.6	NA	0.0000		9999	2890	0	0	0
2019/05/14 18:17:01	BASE	6.01	233	9.77	248	-3.0	77	-6.5	18	0	977.6	NA	0.0000		9999	2890	0	0	0
2019/05/14 18:18:01	BASE	6.55	230	9.77	248	-3.0	77	-6.5	19	0	977.6	NA	0.0000		9999	2890	0	0	0
2019/05/14 18:19:01	BASE	5.96	241	9.26	249	-2.9	77	-6.5	19	0	977.7	NA	0.0000		9999	2950	0	0	0
2019/05/14 18:20:01	BASE	5.71	245	7.72	240	-2.9	76	-6.5	18	0	977.7	NA	0.0000		9999	3020	0	0	0
2019/05/14 18:21:01	BASE	5.52	250	7.72	240	-2.9	76	-6.6	17	0	977.7	NA	0.0000		9999	2820	0	0	0
2019/05/14 18:22:01	BASE	4.89	247	7.72	240	-2.9	76	-6.6	15	0	977.7	NA	0.0000		9999	2820	0	0	0
2019/05/14 18:23:01	BASE	4.04	248	7.72	240	-2.9	76	-6.6	15	0	977.8	NA	0.0000		9999	2890	0	0	0
2019/05/14 18:24:01	BASE	3.99	263	7.72	240	-2.9	76	-6.6	14	0	977.8	NA	0.0000		9999	2890	0	0	0
2019/05/14 18:25:02	BASE	5.05	270	7.72	240	-2.9	76	-6.5	14	0	977.8	NA	0.0000		9999	2790	0	0	0
2019/05/14 18:26:02	BASE	5.13	272	7.72	240	-2.9	77	-6.4	13	0	977.8	NA	0.0000		9999	2760	0	0	0
2019/05/14 18:27:01	BASE	4.19	267	7.72	240	-2.9	77	-6.4	13	0	977.8	NA	0.0000		9999	2620	0	0	0
2019/05/14 18:28:01	BASE	3.82	268	6.43	243	-2.9	77	-6.4	13	0	977.8	NA	0.0000		9999	2620	0	0	0
2019/05/14 18:29:01	BASE	4.70	278	6.43	243	-2.9	77	-6.3	12	0	977.9	NA	0.0000		9999	2530	0	0	0
2019/05/14 18:30:01	BASE	5.86	273	7.15	254	-2.9	77	-6.3	11	0	977.9	NA	0.0000		9999	2400	0	0	0
2019/05/14 18:31:01	BASE	6.62	259	8.08	243	-2.8	77	-6.3	11	0	977.9	NA	0.0000		9999	2590	0	0	0
2019/05/14 18:32:01	BASE	6.66	246	8.08	243	-2.8	77	-6.3	10	0	977.9	NA	0.0000		9999	2560	0	0	0
2019/05/14 18:33:01	BASE	7.03	244	9.41	243	-2.8	77	-6.3	10	0	977.9	NA	0.0000		9999	2560	0	0	0
2019/05/14 18:34:00	BASE	7.55	242	9.41	243	-2.8	77	-6.3	11	0	977.9	NA	0.0000		9999	2490	0	0	0
2019/05/14 18:35:03	BASE	6.78	245	9.41	243	-2.8	77	-6.3	11	0	977.9	NA	0.0000		9999	2430	0	0	0
2019/05/14 18:36:02	BASE	6.09	263	9.41	243	-2.8	76	-6.4	12	0	977.9	NA	0.0000		9999	2530	0	0	0
2019/05/14 18:37:02	BASE	5.86	268	9.41	243	-2.8	76	-6.5	12	0	977.9	NA	0.0000		9999	2490	0	0	0
2019/05/14 18:38:01	BASE	5.48	262	9.41	243	-2.8	75	-6.6	12	0	977.9	NA	0.0000		9999	2490	0	0	0
2019/05/14 18:39:02	BASE	5.60	255	9.41	243	-2.8	75	-6.6	12	0	977.9	NA	0.0000		9999	2490	0	0	0
2019/05/14 18:40:02	BASE	7.42	244	12.24	243	-2.7	75	-6.6	13	0	977.9	NA	0.0000		9999	2490	0	0	0
2019/05/14 18:41:02	BASE	9.76	242	12.24	243	-2.7	75	-6.5	15	0	977.9	NA	0.0000		9999	2490	0	0	0
2019/05/14 18:42:02	BASE	9.58	238	12.24	243	-2.7	76	-6.4	16	0	977.9	NA	0.0000		9999	2620	0	0	0
2019/05/14 18:43:02	BASE	8.54	236	12.24	243	-2.7	76	-6.3	16	0	977.9	NA	0.0000		9999	2590	0	0	0
2019/05/14 18:44:01	BASE	8.07	244	12.24	243	-2.7	77	-6.2	16	0	977.9	NA	0.0000		9999	2590	0	0	0
2019/05/14 18:45:02	BASE	8.72	251	12.24	243	-2.7	77	-6.2	15	0	977.9	NA	0.0000		9999	2590	0	0	0
2019/05/14 18:46:02	BASE	9.36	255	12.24	243	-2.7	77	-6.2	14	0	977.9	NA	0.0000		9999	2690	0	0	0
2019/05/14 18:47:01	BASE	8.30	255	12.24	243	-2.7	77	-6.2	12	0	977.9	NA	0.0000		9999	2560	0	0	0
2019/05/14 18:48:01	BASE	7.13	251	12.24	243	-2.8	77	-6.2	11	0	977.9	NA	0.0000		9999	2660	0	0	0
2019/05/14 18:49:02	BASE	5.93	251	12.24	243	-2.8	77	-6.3	10	0	977.9	NA	0.0000		9999	2990	0	0	0
2019/05/14 18:50:01	BASE	5.72	255	11.32	249	-2.8	77	-6.3	10	0	977.9	NA	0.0000		9999	0	0	0	0
2019/05/14 18:51:02	BASE	6.02	258	10.85	253	-2.8	76	-6.4	9	0	977.9	NA	0.0000		9999	0	0	0	0
2019/05/14 18:52:02	BASE	6.56	255	10.85	253	-2.8	76	-6.4	9	0	977.9	NA	0.0000		9999	3410	0	0	0
2019/05/14 18:53:01	BASE	7.65	250	10.85	253	-2.8	76	-6.5	8	0	977.9	NA	0.0000		9999	3610	0	0	0
2019/05/14 18:54:00	BASE	8.32	249	10.85	253	-2.8	76	-6.5	8	0	977.9	NA	0.0000		9999	2720	0	0	0
2019/05/14 18:55:01	BASE	8.15	251	10.80	253	-2.8	76	-6.5	8	0	978.0	NA	0.0000		9999	2720	3510	0	0
2019/05/14 18:56:01	BASE	7.25	256	9.21	241	-2.8	76	-6.5	8	0	978.0	NA	0.0000		9999	2790	3450	0	0
2019/05/14 18:57:01	BASE	6.50	263	9.21	241	-2.9	76	-6.5	7	0	978.1	NA	0.0000		9999	3080	3510	0	0
2019/05/14 18:58:00	BASE	6.63	267	9.41	253	-2.8	76	-6.5	7	0	978.1	NA	0.0000		9999	3120	3640	0	0
2019/05/14 18:59:01	BASE	6.85	257	9.41	253	-2.8	75	-6.6	6	0	978.1	NA	0.0000		9999	3250	0	0	0
2019/05/14 19:00:02	BASE	6.57	244	9.41	253	-2.8	75	-6.6	6	0	978.1	NA	0.0000		9999	0	0	0	0
2019/05/14 19:01:01	BASE	7.03	238	9.41	253	-2.8	75	-6.6	6	0	978.1	NA	0.0000		9999	3380	0	0	0
2019/05/14 19:02:02	BASE	8.52	240	10.85	242	-2.8	75	-6.5	6	0	978.1	NA	0.0000		9999	3410	0	0	0
2019/05/14 19:03:01	BASE	8.85	238	10.85	242	-2.8	75	-6.5	6	0	978.1	NA	0.0000		9999	0	0	0	0
2019/05/14 19:04:01	BASE	7.46	236	10.85	242	-2.8	75	-6.6	6	0	978.1	NA	0.0000		9999	3180	0	0	0
2019/05/14 19:05:02	BASE	7.15	240	10.85	242	-2.8	75	-6.6	5	0	978.1	NA	0.0000		9999	0	0	0	0
2019/05/14 19:06:02	BASE	8.06	241	10.85	242	-2.7	75	-6.6	5	0	978.2	NA	0.0000		9999	3150	0	0	0
2019/05/14 19:07:01	BASE	9.60	241	13.02	242	-2.7	74	-6.7	5	0	978.1	NA	0.0000		9999	3250	0	0	0
2019/05/14 19:08:01	BASE	10.58	242	13.02	242	-2.7	74	-6.7	5	0	978.2	NA	0.0000		9999	0	0	0	0
2019/05/14 19:09:01	BASE	10.57	242	13.02	242	-2.7	74	-6.7	5	0	978.2	NA	0.0000		9999	0	0	0	0
2019/05/14 19:10:02	BASE	9.41	241	13.02	242	-2.7	73	-6.8	5	0	978.2	NA	0.0000		9999	0	0	0	0
2019/05/14 19:11:01	BASE	8.05	241	13.02	242	-2.7	73	-6.9	5	0	978.3	NA	0.0000		9999	3350	0	0	0
2019/05/14 19:12:02	BASE	7.65	240	13.02	242	-2.7	73	-6.9	5	0	978.3	NA	0.0000		9999	0	0	0	0
2019/05/14 19:13:00	BASE	8.36	242	13.02	242	-2.7	73	-6.9	4	0	978.2	NA	0.0000		9999	3610	0	0	0
2019/05/14 19:14:02	BASE	9.53	234	13.02	242	-2.7	73	-6.9	4	0	978.3	NA	0.0000		9999	3080	0	0	0
2019/05/14 19:15:02	BASE	9.60	226	13.02	242	-2.7	73	-6.8	4	0	978.3	NA	0.0000		9999	0	0	0	0
2019/05/14 19:16:02	BASE	9.03	228	13.02	242	-2.6	73	-6.7	4	0	978.3	NA	0.0000		9999	3120	0	0	0
2019/05/14 19:17:02	BASE	9.16	227	11.42	246	-2.6	74	-6.7	4	0	978.3	NA	0.0000		9999	3410	0	0	0
2019/05/14 19:18:02	BASE	9.45	230	11.16	237	-2.6	74	-6.6	4	0	978.3	NA	0.0000		9999	3480	0	0	0
2019/05/14 19:19:02	BASE	9.46	233	11.16	234	-2.6	74	-6.6	4	0	978.3	NA	0.0000		9999	3180	0	0	0
2019/05/14 19:20:02	BASE	9.44	234	11.21	231	-2.6	74	-6.6	4	0	978.4	NA	0.0000		9999	0	0	0	0
2019/05/14 19:21:02	BASE	9.53	232	11.37	234	-2.6	74	-6.7	3	0	978.4	NA	0.0000		9999	0	0	0	0
2019/05/14 19:22:02	BASE	10.25	229	11.73	223	-2.6	73	-6.8	3	0	978.4	NA	0.0000		9999	0	0	0	0
2019/05/14 19:23:02	BASE	10.73	229	11.88	229	-2.6	73	-6.9	3	0	978.4	NA	0.0000		9999	0	0	0	0
2019/05/14 19:24:02	BASE	10.31	227	11.88	229	-2.7	72	-7.0	3	0	978.4	NA	0.0000		9999	3410	0	0	0
2019/05/14 19:25:01	BASE	9.38	227	11.88	229	-2.7	71	-7.1	3	0	978.5	NA	0.0000		9999	3580	0	0	0
2019/05/14 19:26:01	BASE	8.39	233	11.88	229	-2.7	71	-7.2	3	0	978.5	NA	0.0000		9999	3580	0	0	0
2019/05/14 19:27:01	BASE	7.01	234	11.88	229	-2.7	70	-7.3	3	0	978.4	NA	0.0000		9999	3450	0	0	0
2019/05/14 19:28:02	BASE	6.36	229	11.88	229	-2.7	70	-7.3	3	0	978.5	NA	0.0000		9999	3050	0	0	0
2019/05/14 19:29:01	BASE	6.75	232	11.88	229	-2.7	70	-7.4	3	0	978.5	NA	0.0000		9999	3220	0	0	0
2019/05/14 19:30:02	BASE	6.81	240	11.88	229	-2.7	70	-7.5	3	0	978.5	NA	0.0000		9999	3220	0	0	0
2019/05/14 19:31:02	BASE	6.56	242	11.88	229	-2.7	69	-7.5	2	0	978.5	NA	0.0000		9999	3180	0	0	0
2019/05/14 19:32:02	BASE	6.07	246	11.88	229	-2.7	69	-7.5	2	0	978.5	NA	0.0000		9999	2920	0	0	0
2019/05/14 19:33:02	BASE	5.60	248	10.39	229	-2.6	69	-7.5	2	0	978.5	NA	0.0000		9999	2950	0	0	0
2019/05/14 19:34:02	BASE	5.81	241	9.62	228	-2.6	70	-7.4	2	0	978.5	NA	0.0000		9999	2560	0	0	0
2019/05/14 19:35:02	BASE	6.29	245	8.85	235	-2.6	70	-7.3	2	0	978.5	NA	0.0000		9999	2530	2990	0	0
2019/05/14 19:36:02	BASE	7.51	255	9.83	256	-2.6	71	-7.1	2	0	978.5	NA	0.0000		9999	2490	0	0	0
2019/05/14 19:37:02	BASE	8.06	257	9.83	256	-2.6	72	-6.9	2	0	978.5	NA	0.0000		9999	2490	0	0	0
2019/05/14 19:38:01	BASE	8.28	260	10.24	265	-2.6	73	-6.8	2	0	978.5	NA	0.0000		9999	2720	0	0	0
2019/05/14 19:39:01	BASE	9.37	259	11.47	239	-2.6	74	-6.6	2	0	978.5	NA	0.0000		9999	2990	0	0	0
2019/05/14 19:40:03	BASE	9.73	249	11.47	239	-2.6	75	-6.4	2	0	978.5	NA	0.0000		9999	0	0	0	0
2019/05/14 19:41:01	BASE	9.74	242	11.47	239	-2.6	75	-6.3	1	0	978.5	NA	0.0000		9999	0	0	0	0
2019/05/14 19:42:02	BASE	9.92	243	11.47	239	-2.6	76	-6.3	1	0	978.5	NA	0.0000		9999	3510	0	0	0
2019/05/14 19:43:02	BASE	10.26	242	11.94	238	-2.6	76	-6.3	1	0	978.5	NA	0.0000		9999	0	0	0	0
2019/05/14 19:44:03	BASE	10.14	237	11.94	238	-2.7	76	-6.3	1	0	978.5	NA	0.0000		9999	0	0	0	0
2019/05/14 19:45:04	BASE	9.56	232	11.94	238	-2.7	76	-6.4	1	0	978.5	NA	0.0000		9999	0	0	0	0
2019/05/14 19:46:01	BASE	8.96	233	11.94	238	-2.7	76	-6.4	1	0	978.5	NA	0.0000		9999	0	0	0	0
2019/05/14 19:47:02	BASE	8.41	235	11.94	238	-2.7	76	-6.4	1	0	978.5	NA	0.0000		9999	0	0	0	0
2019/05/14 19:48:02	BASE	8.03	237	11.94	238	-2.7	76	-6.4	1	0	978.5	NA	0.0000		9999	0	0	0	0
2019/05/14 19:49:02	BASE	7.73	240	11.94	238	-2.7	75	-6.5	1	0	978.5	NA	0.0000		9999	0	0	0	0
2019/05/14 19:50:02	BASE	8.43	240	11.94	238	-2.7	75	-6.5	1	0	978.5	NA	0.0000		9999	0	0	0	0
2019/05/14 19:51:02	BASE	9.26	242	11.94	238	-2.7	75	-6.5	1	0	978.5	NA	0.0000		9999	0	0	0	0
2019/05/14 19:52:02	BASE	9.47	246	11.94	238	-2.7	75	-6.5	1	0	978.5	NA	0.0000		9999	0	0	0	0
2019/05/14 19:53:01	BASE	10.39	248	12.71	243	-2.7	75	-6.6	0	0	978.5	NA	0.0000		9999	2720	0	0	0
2019/05/14 19:54:02	BASE	10.66	245	12.71	243	-2.7	75	-6.6	0	0	978.5	NA	0.0000		9999	0	0	0	0
2019/05/14 19:55:02	BASE	10.20	244	12.71	243	-2.8	75	-6.5	0	0	978.6	NA	0.0000		9999	0	0	0	0
2019/05/14 19:56:02	BASE	10.01	244	12.71	243	-2.8	75	-6.5	0	0	978.6	NA	0.0000		9999	0	0	0	0
2019/05/14 19:57:01	BASE	9.50	246	12.71	243	-2.8	76	-6.5	0	0	978.6	NA	0.0000		9999	0	0	0	0
2019/05/14 19:58:01	BASE	9.21	250	12.71	243	-2.8	76	-6.5	0	0	978.6	NA	0.0000		9999	0	0	0	0
2019/05/14 19:59:02	BASE	9.12	248	12.71	243	-2.8	76	-6.4	0	0	978.7	NA	0.0000		9999	0	0	0	0
2019/05/14 20:00:01	BASE	8.57	242	12.71	243	-2.8	76	-6.4	0	0	978.7	NA	0.0000		9999	0	0	0	0
2019/05/14 20:01:01	BASE	8.06	239	12.71	243	-2.8	76	-6.4	0	0	978.7	NA	0.0000		9999	0	0	0	0
2019/05/14 20:02:01	BASE	8.84	238	12.71	243	-2.8	76	-6.4	0	0	978.7	NA	0.0000		9999	0	0	0	0
2019/05/14 20:03:01	BASE	9.49	234	11.63	228	-2.8	76	-6.4	0	0	978.7	NA	0.0000		9999	0	0	0	0
2019/05/14 20:04:02	BASE	9.03	231	11.63	228	-2.8	77	-6.3	0	0	978.7	NA	0.0000		9999	0	0	0	0
2019/05/14 20:05:03	BASE	9.75	231	11.63	228	-2.8	77	-6.2	0	0	978.7	NA	0.0000		9999	0	0	0	0
2019/05/14 20:06:01	BASE	11.00	233	11.99	225	-2.8	78	-6.2	0	0	978.7	NA	0.0000		9999	0	0	0	0
2019/05/14 20:07:01	BASE	10.36	234	11.99	225	-2.8	78	-6.2	0	0	978.8	NA	0.0000		9999	0	0	0	0
2019/05/14 20:08:02	BASE	9.76	235	12.40	234	-2.8	78	-6.2	0	0	978.7	NA	0.0000		9999	2690	0	0	0
2019/05/14 20:09:01	BASE	9.58	234	12.40	234	-2.8	77	-6.2	0	0	978.8	NA	0.0000		9999	2660	0	0	0
2019/05/14 20:10:01	BASE	8.47	234	12.40	234	-2.8	77	-6.3	0	0	978.8	NA	0.0000		9999	2690	0	0	0
2019/05/14 20:11:02	BASE	8.53	239	12.40	234	-2.8	76	-6.4	0	0	978.8	NA	0.0000		9999	0	0	0	0
2019/05/14 20:12:01	BASE	9.83	240	12.40	234	-2.8	76	-6.5	0	0	978.8	NA	0.0000		9999	0	0	0	0
2019/05/14 20:13:01	BASE	9.93	239	12.40	234	-2.8	75	-6.5	0	0	978.9	NA	0.0000		9999	0	0	0	0
2019/05/14 20:14:01	BASE	9.49	240	12.40	234	-2.8	75	-6.6	0	0	978.9	NA	0.0000		9999	0	0	0	0
2019/05/14 20:15:02	BASE	9.30	239	12.40	234	-2.8	75	-6.6	0	0	978.9	NA	0.0000		9999	0	0	0	0
2019/05/14 20:16:02	BASE	8.98	241	12.40	234	-2.8	75	-6.6	0	0	978.9	NA	0.0000		9999	0	0	0	0
2019/05/14 20:17:02	BASE	8.68	242	12.40	234	-2.8	75	-6.6	0	0	978.9	NA	0.0000		9999	0	0	0	0
2019/05/14 20:18:03	BASE	9.34	241	11.94	239	-2.8	75	-6.5	0	0	978.9	NA	0.0000		9999	0	0	0	0
2019/05/14 20:19:03	BASE	10.10	244	11.94	239	-2.8	76	-6.5	0	0	978.9	NA	0.0000		9999	0	0	0	0
2019/05/14 20:20:03	BASE	10.00	249	11.94	239	-2.8	76	-6.4	0	0	979.0	NA	0.0000		9999	0	0	0	0
2019/05/14 20:21:02	BASE	9.63	253	11.94	239	-2.8	76	-6.4	0	0	979.0	NA	0.0000		9999	0	0	0	0
2019/05/14 20:22:02	BASE	9.33	250	11.88	240	-2.9	76	-6.5	0	0	978.9	NA	0.0000		9999	0	0	0	0
2019/05/14 20:23:02	BASE	8.95	247	11.88	240	-2.9	76	-6.5	0	0	979.0	NA	0.0000		9999	0	0	0	0
2019/05/14 20:24:03	BASE	8.67	251	11.88	240	-3.0	76	-6.6	0	0	978.9	NA	0.0000		9999	0	0	0	0
2019/05/14 20:25:02	BASE	8.86	246	11.88	240	-3.0	76	-6.6	0	0	978.9	NA	0.0000		9999	0	0	0	0
2019/05/14 20:26:02	BASE	9.30	236	11.88	240	-3.0	76	-6.6	0	0	978.9	NA	0.0000		9999	0	0	0	0
2019/05/14 20:27:01	BASE	9.31	236	11.88	240	-3.0	75	-6.7	0	0	978.9	NA	0.0000		9999	0	0	0	0
2019/05/14 20:28:01	BASE	9.05	239	11.32	241	-2.9	75	-6.8	0	0	978.9	NA	0.0000		9999	0	0	0	0
2019/05/14 20:29:02	BASE	9.12	239	11.01	255	-2.9	74	-6.9	0	0	978.9	NA	0.0000		9999	0	0	0	0
2019/05/14 20:30:02	BASE	9.65	242	11.16	243	-2.9	74	-6.9	0	0	978.9	NA	0.0000		9999	0	0	0	0
2019/05/14 20:31:02	BASE	10.10	245	11.16	243	-2.9	74	-7.0	0	0	978.9	NA	0.0000		9999	0	0	0	0
2019/05/14 20:32:02	BASE	10.30	247	11.94	246	-2.9	74	-7.0	0	0	978.9	NA	0.0000		9999	0	0	0	0
2019/05/14 20:33:01	BASE	10.94	248	11.94	240	-2.9	74	-6.9	0	0	978.9	NA	0.0000		9999	0	0	0	0
2019/05/14 20:34:02	BASE	11.08	245	12.24	248	-2.9	74	-7.0	0	0	978.9	NA	0.0000		9999	0	0	0	0
2019/05/14 20:35:02	BASE	9.89	247	12.24	248	-3.0	73	-7.0	0	0	979.0	NA	0.0000		9999	0	0	0	0
2019/05/14 20:36:01	BASE	9.35	247	12.24	248	-3.0	73	-7.1	0	0	978.9	NA	0.0000		9999	0	0	0	0
2019/05/14 20:37:01	BASE	9.43	244	12.24	248	-2.9	73	-7.1	0	0	979.0	NA	0.0000		9999	0	0	0	0
2019/05/14 20:38:02	BASE	9.96	245	12.24	248	-2.9	73	-7.1	0	0	979.0	NA	0.0000		9999	0	0	0	0
2019/05/14 20:39:02	BASE	10.94	246	12.24	248	-2.9	73	-7.0	0	0	979.0	NA	0.0000		9999	0	0	0	0
2019/05/14 20:40:01	BASE	10.85	247	12.24	248	-2.9	74	-6.9	0	0	979.0	NA	0.0000		9999	0	0	0	0
2019/05/14 20:41:01	BASE	10.76	247	12.24	248	-2.9	74	-6.8	0	0	979.0	NA	0.0000		9999	0	0	0	0
2019/05/14 20:42:01	BASE	11.01	249	12.81	251	-2.9	75	-6.8	0	0	979.0	NA	0.0000		9999	0	0	0	0
2019/05/14 20:43:01	BASE	11.62	250	13.53	240	-2.9	75	-6.8	0	0	979.0	NA	0.0000		9999	0	0	0	0
2019/05/14 20:44:00	BASE	10.99	244	13.53	240	-2.9	75	-6.7	0	0	979.0	NA	0.0000		9999	0	0	0	0
2019/05/14 20:45:01	BASE	10.19	240	13.53	240	-2.9	75	-6.7	0	0	979.0	NA	0.0000		9999	0	0	0	0
2019/05/14 20:46:01	BASE	10.97	240	13.53	240	-2.9	76	-6.6	0	0	979.0	NA	0.0000		9999	0	0	0	0
2019/05/14 20:47:02	BASE	11.50	240	13.53	240	-2.9	76	-6.6	0	0	979.0	NA	0.0000		9999	0	0	0	0
2019/05/14 20:48:01	BASE	11.10	240	13.53	240	-2.9	76	-6.5	0	0	979.1	NA	0.0000		9999	0	0	0	0
2019/05/14 20:49:02	BASE	10.73	242	13.53	240	-2.9	76	-6.6	0	0	979.1	NA	0.0000		9999	0	0	0	0
2019/05/14 20:50:02	BASE	10.84	245	13.53	240	-2.9	76	-6.6	0	0	979.1	NA	0.0000		9999	0	0	0	0
2019/05/14 20:51:02	BASE	10.33	247	13.53	240	-2.9	76	-6.6	0	0	979.1	NA	0.0000		9999	0	0	0	0
2019/05/14 20:52:02	BASE	9.77	247	13.53	240	-2.9	76	-6.6	0	0	979.1	NA	0.0000		9999	0	0	0	0
2019/05/14 20:53:02	BASE	9.69	250	12.76	242	-3.0	76	-6.6	0	0	979.1	NA	0.0000		9999	0	0	0	0
2019/05/14 20:54:02	BASE	9.46	253	12.76	242	-3.0	76	-6.6	0	0	979.2	NA	0.0000		9999	0	0	0	0
2019/05/14 20:55:02	BASE	9.41	252	12.76	242	-3.0	76	-6.6	0	0	979.1	NA	0.0000		9999	0	0	0	0
2019/05/14 20:56:01	BASE	10.42	243	13.12	238	-3.0	76	-6.6	0	0	979.2	NA	0.0000		9999	2530	0	0	0
2019/05/14 20:57:01	BASE	11.47	238	13.32	229	-2.9	76	-6.5	0	0	979.2	NA	0.0000		9999	2400	0	0	0
2019/05/14 20:58:00	BASE	11.16	238	13.32	229	-2.9	77	-6.4	0	0	979.2	NA	0.0000		9999	2560	0	0	0
2019/05/14 20:59:01	BASE	11.11	240	13.32	229	-2.8	77	-6.3	0	0	979.2	NA	0.0000		9999	2660	0	0	0
2019/05/14 21:00:02	BASE	11.45	241	13.32	229	-2.9	78	-6.2	0	0	979.2	NA	0.0000		9999	2660	0	0	0
2019/05/14 21:01:02	BASE	11.41	241	13.32	229	-2.9	78	-6.1	0	0	979.2	NA	0.0000		9999	2820	0	0	0
2019/05/14 21:02:02	BASE	11.31	239	13.32	229	-2.9	79	-6.1	0	0	979.2	NA	0.0000		9999	0	0	0	0
2019/05/14 21:03:02	BASE	10.90	240	13.32	229	-2.9	79	-6.1	0	0	979.2	NA	0.0000		9999	0	0	0	0
2019/05/14 21:04:02	BASE	10.28	242	13.32	229	-2.9	79	-6.1	0	0	979.2	NA	0.0000		9999	0	0	0	0
2019/05/14 21:05:03	BASE	9.80	239	13.32	229	-3.0	79	-6.1	0	0	979.2	NA	0.0000		9999	0	0	0	0
2019/05/14 21:06:01	BASE	10.58	239	13.32	229	-3.0	79	-6.1	0	0	979.2	NA	0.0000		9999	0	0	0	0
2019/05/14 21:07:01	BASE	11.43	240	13.27	234	-3.0	79	-6.1	0	0	979.2	NA	0.0000		9999	0	0	0	0
2019/05/14 21:08:02	BASE	11.53	243	13.58	244	-3.0	79	-6.1	0	0	979.2	NA	0.0000		9999	0	0	0	0
2019/05/14 21:09:01	BASE	11.61	241	13.58	244	-3.0	80	-6.1	0	0	979.2	NA	0.0000		9999	0	0	0	0
2019/05/14 21:10:01	BASE	11.19	241	14.40	231	-3.0	80	-6.0	0	0	979.2	NA	0.0000		9999	0	0	0	0
2019/05/14 21:11:01	BASE	10.85	241	14.40	231	-3.0	80	-6.0	0	0	979.2	NA	0.0000		9999	0	0	0	0
2019/05/14 21:12:01	BASE	11.23	237	14.40	231	-3.1	80	-6.0	0	0	979.2	NA	0.0000		9999	0	0	0	0
2019/05/14 21:13:01	BASE	11.40	239	14.40	231	-3.1	80	-6.0	0	0	979.2	NA	0.0000		9999	0	0	0	0
2019/05/14 21:14:02	BASE	11.14	243	14.40	231	-3.1	80	-6.0	0	0	979.2	NA	0.0000		9999	0	0	0	0
2019/05/14 21:15:01	BASE	10.72	246	14.40	231	-3.1	80	-6.0	0	0	979.2	NA	0.0000		9999	0	0	0	0
2019/05/14 21:16:01	BASE	10.40	247	14.40	231	-3.1	80	-6.1	0	0	979.2	NA	0.0000		9999	0	0	0	0
2019/05/14 21:17:01	BASE	10.18	243	14.40	231	-3.1	80	-6.1	0	0	979.3	NA	0.0000		9999	0	0	0	0
2019/05/14 21:18:00	BASE	9.55	239	14.40	231	-3.1	80	-6.1	0	0	979.3	NA	0.0000		9999	0	0	0	0
2019/05/14 21:19:01	BASE	9.39	237	14.40	231	-3.1	80	-6.1	0	0	979.3	NA	0.0000		9999	0	0	0	0
2019/05/14 21:20:02	BASE	8.89	241	13.63	235	-3.1	80	-6.1	0	0	979.3	NA	0.0000		9999	0	0	0	0
2019/05/14 21:21:01	BASE	8.35	243	13.63	235	-3.1	80	-6.1	0	0	979.3	NA	0.0000		9999	0	0	0	0
2019/05/14 21:22:02	BASE	8.77	243	12.91	243	-3.1	80	-6.1	0	0	979.3	NA	0.0000		9999	0	0	0	0
2019/05/14 21:23:02	BASE	9.89	243	12.91	243	-3.1	80	-6.1	0	0	979.3	NA	0.0000		9999	0	0	0	0
2019/05/14 21:24:01	BASE	9.79	242	12.30	255	-3.1	80	-6.1	0	0	979.3	NA	0.0000		9999	0	0	0	0
2019/05/14 21:25:02	BASE	9.23	240	11.88	238	-3.1	80	-6.1	0	0	979.3	NA	0.0000		9999	0	0	0	0
2019/05/14 21:26:01	BASE	9.28	239	11.88	238	-3.1	80	-6.1	0	0	979.3	NA	0.0000		9999	0	0	0	0
2019/05/14 21:27:00	BASE	9.17	243	11.88	238	-3.1	80	-6.1	0	0	979.3	NA	0.0000		9999	0	0	0	0
2019/05/14 21:28:02	BASE	10.18	243	12.19	241	-3.1	80	-6.1	0	0	979.3	NA	0.0000		9999	0	0	0	0
2019/05/14 21:29:01	BASE	10.43	240	12.19	241	-3.1	80	-6.1	0	0	979.3	NA	0.0000		9999	0	0	0	0
2019/05/14 21:30:01	BASE	8.96	240	12.19	241	-3.1	80	-6.0	0	0	979.3	NA	0.0000		9999	0	0	0	0
2019/05/14 21:31:01	BASE	9.31	237	12.19	241	-3.1	80	-6.0	0	0	979.3	NA	0.0000		9999	0	0	0	0
2019/05/14 21:32:01	BASE	10.39	234	12.19	241	-3.1	80	-6.0	0	0	979.3	NA	0.0000		9999	0	0	0	0
2019/05/14 21:33:02	BASE	9.64	234	12.19	241	-3.1	80	-6.0	0	0	979.3	NA	0.0000		9999	0	0	0	0
2019/05/14 21:34:01	BASE	8.79	234	12.19	241	-3.1	80	-6.0	0	0	979.3	NA	0.0000		9999	0	0	0	0
2019/05/14 21:35:01	BASE	8.59	236	12.19	241	-3.1	80	-6.0	0	0	979.4	NA	0.0000		9999	0	0	0	0
2019/05/14 21:36:02	BASE	9.10	245	12.19	241	-3.1	80	-6.0	0	0	979.5	NA	0.0000		9999	2430	0	0	0
2019/05/14 21:37:01	BASE	9.21	249	12.19	241	-3.1	80	-6.0	0	0	979.5	NA	0.0000		9999	2300	0	0	0
2019/05/14 21:38:02	BASE	9.27	240	12.04	234	-3.1	80	-6.0	0	0	979.5	NA	0.0000		9999	2300	0	0	0
2019/05/14 21:39:02	BASE	9.23	233	12.04	234	-3.1	80	-6.0	0	0	979.5	NA	0.0000		9999	2400	0	0	0
2019/05/14 21:40:02	BASE	9.35	233	12.55	239	-3.1	81	-5.9	0	0	979.5	NA	0.0000		9999	0	0	0	0
2019/05/14 21:41:02	BASE	11.23	234	13.74	229	-3.0	81	-5.9	0	0	979.5	NA	0.0000		9999	2360	0	0	0
2019/05/14 21:42:02	BASE	11.70	235	13.74	229	-3.0	81	-5.8	0	0	979.5	NA	0.0000		9999	2590	0	0	0
2019/05/14 21:43:01	BASE	11.17	237	13.74	229	-3.0	81	-5.8	0	0	979.5	NA	0.0000		9999	2400	0	0	0
2019/05/14 21:44:02	BASE	11.12	243	13.74	229	-3.0	81	-5.8	0	0	979.6	NA	0.0000		9999	2460	0	0	0
2019/05/14 21:45:02	BASE	11.39	249	13.74	229	-3.0	81	-5.8	0	0	979.6	NA	0.0000		9999	2660	0	0	0
2019/05/14 21:46:02	BASE	11.37	247	13.74	229	-3.0	81	-5.8	0	0	979.6	NA	0.0000		9999	2360	0	0	0
2019/05/14 21:47:01	BASE	9.70	239	13.74	229	-3.0	81	-5.8	0	0	979.6	NA	0.0000		9999	2400	0	0	0
2019/05/14 21:48:00	BASE	9.81	238	13.74	229	-3.0	81	-5.8	0	0	979.7	NA	0.0000		9999	2490	3050	0	0
2019/05/14 21:49:01	BASE	11.02	239	13.74	229	-3.1	81	-5.9	0	0	979.7	NA	0.0000		9999	2790	0	0	0
2019/05/14 21:50:02	BASE	10.03	236	13.74	229	-3.1	81	-5.9	0	0	979.7	NA	0.0000		9999	2490	0	0	0
2019/05/14 21:51:02	BASE	9.61	238	13.02	246	-3.1	81	-5.9	0	0	979.7	NA	0.0000		9999	0	0	0	0
2019/05/14 21:52:01	BASE	10.47	238	13.02	246	-3.1	80	-6.0	0	0	979.7	NA	0.0000		9999	2560	0	0	0
2019/05/14 21:53:02	BASE	10.38	237	13.02	246	-3.1	80	-6.0	0	0	979.7	NA	0.0000		9999	2490	0	0	0
2019/05/14 21:54:02	BASE	10.39	238	13.02	246	-3.1	80	-6.0	0	0	979.7	NA	0.0000		9999	2530	0	0	0
2019/05/14 21:55:01	BASE	10.74	242	12.81	245	-3.1	80	-6.1	0	0	979.8	NA	0.0000		9999	2560	0	0	0
2019/05/14 21:56:01	BASE	10.39	245	12.71	242	-3.1	80	-6.1	0	0	979.8	NA	0.0000		9999	0	0	0	0
2019/05/14 21:57:01	BASE	9.95	245	12.71	242	-3.2	79	-6.2	0	0	979.8	NA	0.0000		9999	0	0	0	0
2019/05/14 21:58:01	BASE	9.66	245	12.04	236	-3.2	79	-6.3	0	0	979.8	NA	0.0000		9999	0	0	0	0
2019/05/14 21:59:01	BASE	9.50	244	12.04	236	-3.2	79	-6.4	0	0	979.8	NA	0.0000		9999	2430	0	0	0
2019/05/14 22:00:01	BASE	8.89	241	12.04	236	-3.2	78	-6.5	0	0	979.8	NA	0.0000		9999	2530	0	0	0
2019/05/14 22:01:01	BASE	8.58	240	12.04	236	-3.2	78	-6.5	0	0	979.8	NA	0.0000		9999	2590	0	0	0
2019/05/14 22:02:02	BASE	8.46	242	11.99	244	-3.2	78	-6.5	0	0	979.8	NA	0.0000		9999	2560	0	0	0
2019/05/14 22:03:01	BASE	9.28	242	11.99	244	-3.2	78	-6.5	0	0	979.8	NA	0.0000		9999	2560	0	0	0
2019/05/14 22:04:01	BASE	9.73	239	11.99	244	-3.2	78	-6.4	0	0	979.9	NA	0.0000		9999	2400	0	0	0
2019/05/14 22:05:03	BASE	8.86	238	11.88	243	-3.2	79	-6.4	0	0	979.9	NA	0.0000		9999	2360	0	0	0
2019/05/14 22:06:02	BASE	8.40	239	11.88	243	-3.2	79	-6.4	0	0	979.9	NA	0.0000		9999	2430	0	0	0
2019/05/14 22:07:01	BASE	7.99	238	11.88	243	-3.2	79	-6.4	0	0	979.9	NA	0.0000		9999	0	0	0	0
2019/05/14 22:08:01	BASE	7.80	239	11.88	243	-3.3	79	-6.4	0	0	979.9	NA	0.0000		9999	0	0	0	0
2019/05/14 22:09:01	BASE	8.03	245	11.88	243	-3.3	79	-6.4	0	0	979.9	NA	0.0000		9999	2330	0	0	0
2019/05/14 22:10:01	BASE	9.20	252	11.88	243	-3.3	79	-6.4	0	0	980.0	NA	0.0000		9999	2330	0	0	0
2019/05/14 22:11:02	BASE	10.28	251	11.88	243	-3.3	79	-6.4	0	0	980.0	NA	0.0000		9999	2430	0	0	0
2019/05/14 22:12:02	BASE	10.58	249	11.88	243	-3.3	79	-6.4	0	0	980.1	NA	0.0000		9999	2490	0	0	0
2019/05/14 22:13:02	BASE	9.91	249	11.78	245	-3.3	79	-6.4	0	0	980.1	NA	0.0000		9999	2590	0	0	0
2019/05/14 22:14:01	BASE	8.42	244	11.78	245	-3.3	79	-6.4	0	0	980.1	NA	0.0000		9999	0	0	0	0
2019/05/14 22:15:02	BASE	7.70	244	11.78	245	-3.3	79	-6.4	0	0	980.1	NA	0.0000		9999	0	0	0	0
2019/05/14 22:16:01	BASE	7.50	250	11.78	245	-3.3	79	-6.5	0	0	980.1	NA	0.0000		9999	0	0	0	0
2019/05/14 22:17:01	BASE	7.38	255	11.78	245	-3.3	79	-6.5	0	0	980.1	NA	0.0000		9999	0	0	0	0
2019/05/14 22:18:01	BASE	8.43	258	12.55	262	-3.3	79	-6.5	0	0	980.1	NA	0.0000		9999	0	0	0	0
2019/05/14 22:19:01	BASE	10.08	254	12.55	262	-3.4	79	-6.5	0	0	980.1	NA	0.0000		9999	2330	0	0	0
2019/05/14 22:20:01	BASE	9.51	247	12.55	262	-3.3	79	-6.5	0	0	980.2	NA	0.0000		9999	2360	0	0	0
2019/05/14 22:21:02	BASE	7.97	245	12.55	262	-3.3	79	-6.4	0	0	980.2	NA	0.0000		9999	2360	0	0	0
2019/05/14 22:22:01	BASE	7.91	247	12.55	262	-3.3	79	-6.4	0	0	980.2	NA	0.0000		9999	2430	0	0	0
2019/05/14 22:23:02	BASE	8.18	245	12.55	262	-3.3	79	-6.4	0	0	980.2	NA	0.0000		9999	2330	0	0	0
2019/05/14 22:24:02	BASE	8.67	237	12.55	262	-3.3	79	-6.4	0	0	980.2	NA	0.0000		9999	2330	0	0	0
2019/05/14 22:25:01	BASE	8.46	237	12.55	262	-3.3	79	-6.4	0	0	980.2	NA	0.0000		9999	2360	0	0	0
2019/05/14 22:26:01	BASE	8.77	237	12.55	262	-3.2	79	-6.3	0	0	980.2	NA	0.0000		9999	2330	0	0	0
2019/05/14 22:27:01	BASE	10.14	233	12.55	262	-3.2	79	-6.3	0	0	980.2	NA	0.0000		9999	2300	0	0	0
2019/05/14 22:28:01	BASE	10.19	231	12.50	257	-3.2	80	-6.2	0	0	980.2	NA	0.0000		9999	2400	0	0	0
2019/05/14 22:29:01	BASE	9.37	235	11.73	231	-3.2	80	-6.2	0	0	980.2	NA	0.0000		9999	2560	0	0	0
2019/05/14 22:30:02	BASE	9.21	241	11.73	231	-3.2	80	-6.2	0	0	980.2	NA	0.0000		9999	2330	0	0	0
2019/05/14 22:31:01	BASE	9.46	241	11.73	231	-3.2	80	-6.2	0	0	980.2	NA	0.0000		9999	2400	0	0	0
2019/05/14 22:32:02	BASE	10.04	239	12.45	239	-3.2	80	-6.2	0	0	980.3	NA	0.0000		9999	2530	0	0	0
2019/05/14 22:33:01	BASE	10.52	243	12.45	239	-3.2	80	-6.2	0	0	980.3	NA	0.0000		9999	2400	0	0	0
2019/05/14 22:34:01	BASE	10.20	244	12.45	239	-3.3	80	-6.2	0	0	980.3	NA	0.0000		9999	2360	0	0	0
2019/05/14 22:35:02	BASE	9.32	238	12.45	239	-3.3	80	-6.2	0	0	980.3	NA	0.0000		9999	2460	0	0	0
2019/05/14 22:36:02	BASE	9.93	232	12.55	239	-3.3	80	-6.2	0	0	980.3	NA	0.0000		9999	2590	0	0	0
2019/05/14 22:37:01	BASE	10.56	231	12.55	231	-3.3	80	-6.2	0	0	980.3	NA	0.0000		9999	2590	0	0	0
2019/05/14 22:38:01	BASE	9.14	242	12.55	231	-3.3	80	-6.2	0	0	980.4	NA	0.0000		9999	2560	0	0	0
2019/05/14 22:39:01	BASE	10.13	252	13.68	255	-3.2	80	-6.2	0	0	980.3	NA	0.0000		9999	2260	0	0	0
2019/05/14 22:40:02	BASE	11.73	252	13.89	248	-3.2	80	-6.2	0	0	980.3	NA	0.0000		9999	2330	0	0	0
2019/05/14 22:41:01	BASE	10.93	253	13.89	248	-3.2	80	-6.2	0	0	980.4	NA	0.0000		9999	2360	0	0	0
2019/05/14 22:42:02	BASE	10.54	254	13.89	248	-3.3	80	-6.1	0	0	980.4	NA	0.0000		9999	2030	2660	0	0
2019/05/14 22:43:01	BASE	9.35	260	13.89	248	-3.3	81	-6.1	0	0	980.4	NA	0.0000		9999	2100	0	0	0
2019/05/14 22:44:01	BASE	8.96	262	13.89	248	-3.3	81	-6.0	0	0	980.4	NA	0.0000		9999	2100	0	0	0
2019/05/14 22:45:03	BASE	10.65	249	14.15	234	-3.2	82	-5.9	0	0	980.4	NA	0.0000		9999	2100	0	0	0
2019/05/14 22:46:02	BASE	11.17	244	14.15	234	-3.2	82	-5.8	0	0	980.4	NA	0.0000		9999	2130	0	0	0
2019/05/14 22:47:00	BASE	10.69	249	14.15	234	-3.2	83	-5.8	0	0	980.4	NA	0.0000		9999	2070	0	0	0
2019/05/14 22:48:01	BASE	11.34	249	14.15	234	-3.3	83	-5.8	0	0	980.4	NA	0.0000		9999	2170	0	0	0
2019/05/14 22:49:01	BASE	12.53	248	14.30	245	-3.3	83	-5.8	0	0	980.4	NA	0.0000		9999	2100	0	0	0
2019/05/14 22:50:02	BASE	11.88	251	14.30	245	-3.4	83	-5.9	0	0	980.4	NA	0.0000		9999	2300	0	0	0
2019/05/14 22:51:02	BASE	10.27	258	14.30	245	-3.5	83	-6.0	0	0	980.5	NA	0.0000		9999	2360	0	0	0
2019/05/14 22:52:02	BASE	9.63	260	14.30	245	-3.5	83	-6.1	0	0	980.6	NA	0.0000		9999	2200	0	0	0
2019/05/14 22:53:01	BASE	10.26	256	14.30	245	-3.6	82	-6.1	0	0	980.6	NA	0.0000		9999	2230	0	0	0
2019/05/14 22:54:02	BASE	9.93	254	14.30	245	-3.6	82	-6.2	0	0	980.6	NA	0.0000		9999	2260	0	0	0
2019/05/14 22:55:02	BASE	9.77	255	14.30	245	-3.6	82	-6.2	0	0	980.6	NA	0.0000		9999	0	0	0	0
2019/05/14 22:56:01	BASE	10.27	256	14.30	245	-3.6	82	-6.2	0	0	980.6	NA	0.0000		9999	0	0	0	0
2019/05/14 22:57:01	BASE	9.45	255	14.30	245	-3.6	82	-6.2	0	0	980.6	NA	0.0000		9999	2260	0	0	0
2019/05/14 22:58:01	BASE	8.79	248	14.30	245	-3.6	82	-6.2	0	0	980.6	NA	0.0000		9999	2330	0	0	0
2019/05/14 22:59:01	BASE	9.28	248	13.12	246	-3.6	82	-6.2	0	0	980.6	NA	0.0000		9999	2490	0	0	0
2019/05/14 23:00:02	BASE	9.54	252	12.30	246	-3.6	82	-6.3	0	0	980.6	NA	0.0000		9999	2300	0	0	0
2019/05/14 23:01:02	BASE	9.15	254	12.30	246	-3.6	82	-6.3	0	0	980.6	NA	0.0000		9999	2360	0	0	0
2019/05/14 23:02:01	BASE	8.64	252	12.30	246	-3.6	81	-6.3	0	0	980.6	NA	0.0000		9999	2460	0	0	0
2019/05/14 23:03:01	BASE	8.15	249	11.42	254	-3.6	81	-6.3	0	0	980.7	NA	0.0000		9999	2430	0	0	0
2019/05/14 23:04:01	BASE	8.65	251	11.42	254	-3.6	81	-6.3	0	0	980.7	NA	0.0000		9999	2360	0	0	0
2019/05/14 23:05:03	BASE	9.00	251	11.37	255	-3.5	82	-6.2	0	0	980.7	NA	0.0000		9999	2200	0	0	0
2019/05/14 23:06:02	BASE	8.73	251	11.37	255	-3.5	82	-6.2	0	0	980.7	NA	0.0000		9999	2230	0	0	0
2019/05/14 23:07:01	BASE	8.96	252	11.37	255	-3.5	82	-6.1	0	0	980.7	NA	0.0000		9999	2200	0	0	0
2019/05/14 23:08:01	BASE	9.76	249	11.73	247	-3.5	82	-6.1	0	0	980.7	NA	0.0000		9999	2200	0	0	0
2019/05/14 23:09:01	BASE	9.95	246	11.73	247	-3.5	82	-6.1	0	0	980.8	NA	0.0000		9999	2200	0	0	0
2019/05/14 23:10:02	BASE	10.65	244	12.96	242	-3.5	82	-6.1	0	0	980.8	NA	0.0000		9999	2330	0	0	0
2019/05/14 23:11:01	BASE	11.55	244	12.96	242	-3.5	82	-6.1	0	0	980.8	NA	0.0000		9999	2400	0	0	0
2019/05/14 23:12:03	BASE	10.84	247	12.96	242	-3.5	82	-6.1	0	0	980.8	NA	0.0000		9999	2230	0	0	0
2019/05/14 23:13:01	BASE	9.54	245	12.96	242	-3.5	82	-6.1	0	0	980.9	NA	0.0000		9999	2260	0	0	0
2019/05/14 23:14:01	BASE	9.17	239	12.96	242	-3.5	82	-6.1	0	0	980.9	NA	0.0000		9999	2100	0	0	0
2019/05/14 23:15:02	BASE	9.67	239	12.96	242	-3.5	82	-6.1	0	0	980.9	NA	0.0000		9999	1940	0	0	0
2019/05/14 23:16:00	BASE	9.68	240	12.96	242	-3.5	83	-6.0	0	0	980.9	NA	0.0000		9999	2000	0	0	0
2019/05/14 23:17:02	BASE	10.70	238	13.89	235	-3.5	83	-6.0	0	0	980.9	NA	0.0000		9999	2200	0	0	0
2019/05/14 23:18:01	BASE	12.05	240	13.89	235	-3.4	83	-5.9	0	0	980.9	NA	0.0000		9999	2230	0	0	0
2019/05/14 23:19:01	BASE	11.16	240	13.89	235	-3.5	83	-5.9	0	0	980.9	NA	0.0000		9999	2230	0	0	0
2019/05/14 23:20:02	BASE	10.05	239	13.89	235	-3.4	83	-5.9	0	0	980.9	NA	0.0000		9999	2100	0	0	0
2019/05/14 23:21:01	BASE	10.39	247	13.89	235	-3.4	83	-5.9	0	0	980.9	NA	0.0000		9999	2030	0	0	0
2019/05/14 23:22:01	BASE	10.61	256	13.89	235	-3.4	83	-5.9	0	0	981.0	NA	0.0000		9999	2100	0	0	0
2019/05/14 23:23:02	BASE	9.65	262	13.89	235	-3.4	83	-5.9	0	0	980.9	NA	0.0000		9999	2260	0	0	0
2019/05/14 23:24:01	BASE	9.11	260	13.89	235	-3.4	83	-5.8	0	0	981.0	NA	0.0000		9999	2130	0	0	0
2019/05/14 23:25:01	BASE	9.43	252	13.89	235	-3.4	84	-5.8	0	0	981.0	NA	0.0000		9999	2100	0	0	0
2019/05/14 23:26:01	BASE	9.12	245	13.89	235	-3.4	84	-5.7	0	0	981.0	NA	0.0000		9999	2200	0	0	0
2019/05/14 23:27:01	BASE	9.02	243	13.27	245	-3.4	84	-5.7	0	0	981.0	NA	0.0000		9999	2230	0	0	0
2019/05/14 23:28:01	BASE	9.51	245	12.35	249	-3.4	84	-5.7	0	0	981.0	NA	0.0000		9999	2260	0	0	0
2019/05/14 23:29:00	BASE	9.62	246	12.35	249	-3.4	84	-5.7	0	0	981.0	NA	0.0000		9999	2330	0	0	0
2019/05/14 23:30:02	BASE	8.76	247	12.35	249	-3.5	84	-5.8	0	0	981.0	NA	0.0000		9999	2460	0	0	0
2019/05/14 23:31:01	BASE	8.06	248	12.35	249	-3.5	84	-5.8	0	0	981.1	NA	0.0000		9999	2530	0	0	0
2019/05/14 23:32:01	BASE	8.10	253	11.21	246	-3.5	84	-5.9	0	0	981.1	NA	0.0000		9999	2530	0	0	0
2019/05/14 23:33:01	BASE	7.54	255	11.21	246	-3.5	84	-5.9	0	0	981.1	NA	0.0000		9999	2360	0	0	0
2019/05/14 23:34:02	BASE	7.08	252	11.21	246	-3.5	83	-5.9	0	0	981.1	NA	0.0000		9999	2200	0	0	0
2019/05/14 23:35:02	BASE	7.79	246	11.21	246	-3.5	83	-5.9	0	0	981.2	NA	0.0000		9999	2260	0	0	0
2019/05/14 23:36:01	BASE	8.83	238	11.21	246	-3.5	83	-5.9	0	0	981.2	NA	0.0000		9999	2230	0	0	0
2019/05/14 23:37:01	BASE	9.51	235	11.21	234	-3.5	83	-5.9	0	0	981.2	NA	0.0000		9999	2300	0	0	0
2019/05/14 23:38:01	BASE	9.88	233	11.21	231	-3.4	83	-5.9	0	0	981.2	NA	0.0000		9999	2360	0	0	0
2019/05/14 23:39:01	BASE	9.23	232	11.21	231	-3.4	83	-5.9	0	0	981.2	NA	0.0000		9999	2330	0	0	0
2019/05/14 23:40:01	BASE	8.35	232	11.21	231	-3.4	83	-5.9	0	0	981.2	NA	0.0000		9999	2300	0	0	0
2019/05/14 23:41:01	BASE	9.23	229	11.78	222	-3.4	83	-5.9	0	0	981.2	NA	0.0000		9999	2100	0	0	0
2019/05/14 23:42:02	BASE	10.05	228	11.78	222	-3.4	83	-5.9	0	0	981.2	NA	0.0000		9999	2230	0	0	0
2019/05/14 23:43:01	BASE	8.88	233	11.78	222	-3.4	83	-5.9	0	0	981.2	NA	0.0000		9999	2330	0	0	0
2019/05/14 23:44:01	BASE	9.16	232	12.60	223	-3.4	83	-5.9	0	0	981.2	NA	0.0000		9999	2360	0	0	0
2019/05/14 23:45:01	BASE	10.65	232	12.60	223	-3.4	83	-5.9	0	0	981.2	NA	0.0000		9999	2300	0	0	0
2019/05/14 23:46:01	BASE	10.86	238	12.60	223	-3.4	83	-5.9	0	0	981.2	NA	0.0000		9999	2330	0	0	0
2019/05/14 23:47:01	BASE	11.10	240	12.60	223	-3.4	83	-5.9	0	0	981.2	NA	0.0000		9999	2360	0	0	0
2019/05/14 23:48:01	BASE	10.47	241	12.60	223	-3.5	83	-5.9	0	0	981.3	NA	0.0000		9999	2360	0	0	0
2019/05/14 23:49:01	BASE	7.91	240	12.60	223	-3.5	83	-6.0	0	0	981.4	NA	0.0000		9999	2430	0	0	0
2019/05/14 23:50:02	BASE	6.35	237	12.60	223	-3.5	83	-6.0	0	0	981.4	NA	0.0000		9999	2170	0	0	0
2019/05/14 23:51:01	BASE	7.64	229	12.60	223	-3.5	82	-6.1	0	0	981.4	NA	0.0000		9999	2200	0	0	0
2019/05/14 23:52:02	BASE	8.97	223	12.60	223	-3.5	82	-6.1	0	0	981.4	NA	0.0000		9999	2130	0	0	0
2019/05/14 23:53:01	BASE	8.95	222	12.60	223	-3.5	82	-6.1	0	0	981.4	NA	0.0000		9999	2200	0	0	0
2019/05/14 23:54:00	BASE	8.40	227	12.55	240	-3.5	82	-6.1	0	0	981.5	NA	0.0000		9999	2230	0	0	0
2019/05/14 23:55:01	BASE	7.43	236	12.55	240	-3.5	82	-6.1	0	0	981.4	NA	0.0000		9999	2230	0	0	0
2019/05/14 23:56:01	BASE	6.87	224	12.55	240	-3.5	82	-6.1	0	0	981.5	NA	0.0000		9999	2170	0	0	0
2019/05/14 23:57:02	BASE	7.66	211	10.75	228	-3.4	82	-6.1	0	0	981.4	NA	0.0000		9999	2130	0	0	0
2019/05/14 23:58:02	BASE	9.03	218	10.75	228	-3.4	82	-6.1	0	0	981.5	NA	0.0000		9999	2260	0	0	0
2019/05/14 23:59:02	BASE	9.51	223	10.75	228	-3.4	82	-6.0	0	0	981.4	NA	0.0000		9999	2200	0	0	0